[[{"header":{"parameterUnit":"m.s-1","parameterCategory":1,"la1":30.6,"la2":29.2853,"lo1":-89.7004,"lo2":-87.6739,"dy":0.0162,"dx":0.0183,"nx":112,"ny":82,"refTime":"2025-04-24T06:00:00:Z","depth":0,"parameterNumber":2,"parameterNumberName":"U-component_of_WINDS"},"data":[0.0,0.0,0.0,0.0,0.0,0.0,0.0,0.0,0.0,0.0,0.0,0.0,0.0,0.0,0.0,0.0,0.0,0.0,0.0,0.0,0.0,0.0,0.0,0.0,0.0,0.0,0.0,0.0,0.0,0.0,0.0,0.0,0.0,0.0,0.0,0.0,0.0,0.0,0.0,0.0,0.0,0.0,0.0,0.0,0.0,0.0,0.0,0.0,0.0,0.0,0.0,0.0,0.0,0.0,0.0,0.0,0.0,0.0,0.0,0.0,0.0,0.0,0.0,0.0,0.0,0.0,0.0,0.0,0.0,0.0,0.0,0.0,0.0,0.0,0.0,0.0,0.0,0.0,0.0,0.0,0.0,0.0,0.0,0.0,0.0,0.0,0.0,0.0,0.0,0.0,-0.6875,-0.8385,-0.8927,-0.8828,-0.7969,-0.7156,-0.6318,-0.5427,0.0,0.0,0.0,0.0,0.0,0.0,0.0,0.0,0.0,0.0,0.0,0.0,0.0,0.0,0.0,0.0,0.0,0.0,0.0,0.0,0.0,0.0,0.0,0.0,0.0,0.0,0.0,0.0,0.0,0.0,0.0,0.0,0.0,0.0,0.0,0.0,0.0,0.0,0.0,0.0,0.0,0.0,0.0,0.0,0.0,0.0,0.0,0.0,0.0,0.0,0.0,0.0,0.0,0.0,0.0,0.0,0.0,0.0,0.0,0.0,0.0,0.0,0.0,0.0,0.0,0.0,0.0,0.0,0.0,0.0,0.0,0.0,0.0,0.0,0.0,0.0,0.0,0.0,0.0,0.0,0.0,0.0,0.0,0.0,0.0,0.0,0.0,0.0,0.0,0.0,0.0,0.0,0.0,0.0,0.0,0.0,0.0,0.0,0.0,0.0,0.0,0.0,0.0,0.0,-0.7829,-0.9478,-0.9577,-0.9079,-0.7992,-0.7156,-0.6165,-0.4894,0.0,0.0,0.0,0.0,0.0,0.0,0.0,0.0,0.0,0.0,0.0,0.0,0.0,0.0,0.0,0.0,0.0,0.0,0.0,0.0,0.0,0.0,0.0,0.0,0.0,0.0,0.0,0.0,0.0,0.0,0.0,0.0,0.0,0.0,0.0,0.0,0.0,0.0,0.0,0.0,0.0,0.0,0.0,0.0,0.0,0.0,0.0,0.0,0.0,0.0,0.0,0.0,0.0,0.0,0.0,0.0,0.0,0.0,0.0,0.0,0.0,0.0,0.0,0.0,0.0,0.0,0.0,0.0,0.0,0.0,0.0,0.0,0.0,0.0,0.0,0.0,0.0,0.0,0.0,0.0,0.0,0.0,0.0,0.0,0.0,0.0,0.0,0.0,0.0,0.0,0.0,0.0,0.0,0.0,0.0,0.0,0.0,0.0,0.0,0.0,0.0,0.0,0.0,-0.7279,-0.8343,-0.9506,-0.9711,-0.9321,-0.8218,-0.7511,-0.6625,-0.5425,-0.4185,0.0,0.0,0.0,0.0,0.0,0.0,0.0,0.0,0.0,0.0,0.0,0.0,0.0,0.0,0.0,0.0,0.0,0.0,0.0,0.0,0.0,0.0,0.0,0.0,0.0,0.0,0.0,0.0,0.0,0.0,0.0,0.0,0.0,0.0,0.0,0.0,0.0,0.0,0.0,0.0,0.0,0.0,0.0,0.0,0.0,0.0,0.0,0.0,0.0,0.0,0.0,0.0,0.0,0.0,0.0,0.0,0.0,0.0,0.0,0.0,0.0,0.0,0.0,0.0,0.0,0.0,0.0,0.0,0.0,0.0,0.0,0.0,0.0,0.0,0.0,0.0,0.0,0.0,0.0,0.0,0.0,0.0,0.0,0.0,0.0,0.0,0.0,0.0,0.0,0.0,0.0,0.0,0.0,0.0,0.0,0.0,0.0,0.0,0.0,0.0,0.0,0.0,-0.8175,-0.8649,-0.9542,-0.9791,-0.9441,-0.8297,-0.7779,-0.6956,-0.5693,-0.4285,0.0,0.0,0.0,0.0,0.0,0.0,0.0,0.0,0.0,0.0,0.0,0.0,0.0,0.0,0.0,0.0,0.0,0.0,0.0,0.0,0.0,0.0,0.0,0.0,0.0,0.0,0.0,0.0,0.0,0.0,0.0,0.0,0.0,0.0,0.0,0.0,0.0,0.0,0.0,0.0,0.0,0.0,0.0,0.0,0.0,0.0,0.0,0.0,0.0,0.0,0.0,0.0,0.0,0.0,0.0,0.0,0.0,0.0,0.0,0.0,0.0,0.0,0.0,0.0,0.0,0.0,0.0,0.0,0.0,0.0,0.0,0.0,0.0,0.0,0.0,0.0,0.0,0.0,0.0,0.0,0.0,0.0,0.0,0.0,0.0,0.0,0.0,0.0,0.0,0.0,0.0,0.0,0.0,0.0,0.0,0.0,0.0,0.0,0.0,0.0,0.0,0.0,-0.844,-0.8811,-1.0175,-1.0072,-0.9367,-0.804,-0.7666,-0.6717,-0.4893,-0.3978,0.0,0.0,0.0,0.0,0.0,0.0,0.0,0.0,0.0,0.0,0.0,0.0,0.0,0.0,0.0,0.0,0.0,0.0,0.0,0.0,0.0,0.0,0.0,0.0,0.0,0.0,0.0,0.0,0.0,0.0,0.0,0.0,0.0,0.0,0.0,0.0,0.0,0.0,0.0,0.0,0.0,0.0,0.0,0.0,0.0,0.0,0.0,0.0,0.0,0.0,0.0,0.0,0.0,0.0,0.0,0.0,0.0,0.0,0.0,0.0,0.0,0.0,0.0,0.0,0.0,0.0,0.0,0.0,0.0,0.0,0.0,0.0,0.0,0.0,0.0,0.0,0.0,0.0,0.0,0.0,0.0,0.0,0.0,0.0,0.0,0.0,0.0,0.0,0.0,0.0,0.0,0.0,0.0,0.0,0.0,0.0,0.0,0.0,0.0,0.0,0.0,0.0,-0.8361,-0.8758,0.0,-0.997,-0.9355,-0.8007,-0.7655,-0.6771,-0.5059,0.0,0.0,0.0,0.0,0.0,0.0,0.0,0.0,0.0,0.0,0.0,0.0,0.0,0.0,0.0,0.0,0.0,0.0,0.0,0.0,0.0,0.0,0.0,0.0,0.0,0.0,0.0,0.0,0.0,0.0,0.0,0.0,0.0,0.0,0.0,0.0,0.0,0.0,0.0,0.0,0.0,0.0,0.0,0.0,0.0,0.0,0.0,0.0,0.0,0.0,0.0,0.0,0.0,0.0,0.0,0.0,0.0,0.0,0.0,0.0,0.0,0.0,0.0,0.0,0.0,0.0,0.0,0.0,0.0,0.0,0.0,0.0,0.0,0.0,0.0,0.0,0.0,0.0,0.0,0.0,0.0,0.0,0.0,0.0,0.0,0.0,0.0,0.0,0.0,0.0,0.0,0.0,0.0,0.0,0.0,0.0,0.0,0.0,0.0,0.0,0.0,0.0,-0.8095,-0.8298,-0.8713,0.0,-0.9905,-0.9318,-0.7895,-0.7599,-0.6739,-0.4961,0.0,0.0,0.0,0.0,0.0,0.0,0.0,0.0,0.0,0.0,0.0,0.0,0.0,0.0,0.0,0.0,0.0,0.0,0.0,0.0,0.0,0.0,0.0,0.0,0.0,0.0,0.0,0.0,0.0,0.0,0.0,0.0,0.0,0.0,0.0,0.0,0.0,0.0,0.0,0.0,0.0,0.0,0.0,0.0,0.0,0.0,0.0,0.0,0.0,0.0,0.0,0.0,0.0,0.0,0.0,0.0,0.0,0.0,0.0,0.0,0.0,0.0,0.0,0.0,0.0,0.0,0.0,0.0,0.0,0.0,0.0,0.0,0.0,0.0,0.0,0.0,0.0,0.0,0.0,0.0,0.0,0.0,0.0,0.0,0.0,0.0,0.0,0.0,0.0,0.0,0.0,0.0,0.0,0.0,0.0,0.0,0.0,0.0,0.0,0.0,0.0,0.0,-0.8105,-0.8288,-0.8713,-0.978,-0.9905,-0.9255,-0.7646,-0.7497,-0.6585,0.0,0.0,0.0,0.0,0.0,0.0,0.0,0.0,0.0,0.0,0.0,0.0,0.0,0.0,0.0,0.0,0.0,0.0,0.0,0.0,0.0,0.0,0.0,0.0,0.0,0.0,0.0,0.0,0.0,0.0,0.0,0.0,0.0,0.0,0.0,0.0,0.0,0.0,0.0,0.0,0.0,0.0,0.0,0.0,0.0,0.0,0.0,0.0,0.0,0.0,0.0,0.0,0.0,0.0,0.0,0.0,0.0,0.0,0.0,0.0,0.0,0.0,0.0,0.0,0.0,0.0,0.0,0.0,0.0,0.0,0.0,0.0,0.0,0.0,0.0,0.0,0.0,0.0,0.0,0.0,0.0,0.0,0.0,0.0,0.0,0.0,0.0,0.0,0.0,0.0,0.0,0.0,0.0,0.0,0.0,0.0,0.0,0.0,0.0,0.0,0.0,0.0,0.0,-0.7844,-0.8189,-0.8713,-0.978,-0.9686,-0.9122,-0.8079,-0.7467,-0.6553,-0.5164,0.0,0.0,0.0,0.0,0.0,0.0,0.0,0.0,0.0,0.0,0.0,0.0,0.0,0.0,0.0,0.0,0.0,0.0,0.0,0.0,0.0,0.0,0.0,0.0,0.0,0.0,0.0,0.0,0.0,0.0,0.0,0.0,0.0,0.0,0.0,0.0,0.0,0.0,0.0,0.0,0.0,0.0,0.0,0.0,0.0,0.0,0.0,0.0,0.0,0.0,0.0,0.0,0.0,0.0,0.0,0.0,0.0,0.0,0.0,0.0,0.0,0.0,0.0,0.0,0.0,0.0,0.0,0.0,0.0,0.0,0.0,0.0,0.0,0.0,0.0,0.0,0.0,0.0,0.0,0.0,0.0,0.0,0.0,0.0,0.0,0.0,0.0,0.0,0.0,0.0,0.0,0.0,0.0,0.0,0.0,0.0,0.0,0.0,0.0,0.0,0.0,0.0,-0.7902,-0.8397,-0.895,-0.9805,-0.9712,-0.922,-0.8283,-0.7592,-0.6684,-0.548,0.0,0.0,0.0,0.0,0.0,0.0,0.0,0.0,0.0,0.0,0.0,0.0,0.0,0.0,0.0,0.0,0.0,0.0,0.0,0.0,0.0,0.0,0.0,0.0,0.0,0.0,0.0,0.0,0.0,0.0,0.0,0.0,0.0,0.0,0.0,0.0,0.0,0.0,0.0,0.0,0.0,0.0,0.0,0.0,0.0,0.0,0.0,0.0,0.0,0.0,0.0,0.0,0.0,0.0,0.0,0.0,0.0,0.0,0.0,0.0,0.0,0.0,0.0,0.0,0.0,0.0,0.0,0.0,0.0,0.0,0.0,0.0,0.0,0.0,0.0,0.0,0.0,0.0,0.0,0.0,0.0,0.0,0.0,0.0,0.0,0.0,0.0,0.0,0.0,0.0,0.0,0.0,0.0,0.0,0.0,0.0,0.0,0.0,0.0,0.0,0.0,0.0,-0.8094,-0.8728,-0.9302,-0.9843,-0.9867,-0.9425,-0.8352,-0.7791,-0.6932,-0.5571,0.0,0.0,0.0,0.0,0.0,0.0,0.0,0.0,0.0,0.0,0.0,0.0,0.0,0.0,0.0,0.0,0.0,0.0,0.0,0.0,0.0,0.0,0.0,0.0,0.0,0.0,0.0,0.0,0.0,0.0,0.0,0.0,0.0,0.0,0.0,0.0,0.0,0.0,0.0,0.0,0.0,0.0,0.0,0.0,0.0,0.0,0.0,0.0,0.0,0.0,0.0,0.0,0.0,0.0,0.0,0.0,0.0,0.0,0.0,0.0,-0.8346,0.0,0.0,0.0,0.0,0.0,0.0,0.0,0.0,0.0,0.0,0.0,0.0,0.0,0.0,0.0,0.0,0.0,0.0,0.0,0.0,0.0,0.0,0.0,0.0,0.0,0.0,0.0,0.0,0.0,0.0,0.0,0.0,0.0,0.0,0.0,0.0,0.0,0.0,0.0,0.0,0.0,-0.7586,-0.8496,-0.9302,-0.9843,-0.9659,-0.9282,-0.8725,-0.7993,-0.7181,-0.6251,-0.5303,0.0,0.0,0.0,0.0,0.0,0.0,0.0,0.0,0.0,0.0,0.0,0.0,0.0,0.0,0.0,0.0,0.0,0.0,0.0,0.0,0.0,0.0,0.0,0.0,0.0,0.0,0.0,0.0,0.0,0.0,0.0,0.0,0.0,0.0,0.0,0.0,0.0,0.0,0.0,0.0,0.0,0.0,0.0,0.0,0.0,0.0,0.0,0.0,0.0,0.0,0.0,0.0,0.0,0.0,0.0,0.0,0.0,0.0,0.0,0.0,-0.9469,0.0,0.0,0.0,0.0,0.0,0.0,0.0,0.0,0.0,0.0,0.0,0.0,0.0,0.0,0.0,0.0,0.0,0.0,0.0,0.0,0.0,0.0,0.0,0.0,0.0,0.0,0.0,0.0,0.0,0.0,0.0,0.0,0.0,0.0,0.0,0.0,0.0,0.0,0.0,0.0,-0.7993,-0.912,-1.0094,-1.0673,-1.0294,-0.9874,-0.9501,-0.8501,-0.7635,-0.7006,-0.5942,0.0,0.0,0.0,0.0,0.0,0.0,0.0,0.0,0.0,0.0,0.0,0.0,0.0,0.0,0.0,0.0,0.0,0.0,0.0,0.0,0.0,0.0,0.0,0.0,0.0,0.0,0.0,0.0,0.0,0.0,0.0,0.0,0.0,0.0,0.0,0.0,0.0,0.0,0.0,0.0,0.0,0.0,0.0,0.0,0.0,0.0,0.0,0.0,0.0,0.0,0.0,0.0,0.0,-1.4078,-1.4485,-1.45,-1.5052,-1.515,-1.4804,-1.3071,-1.2196,-1.1858,-1.0285,0.0,0.0,0.0,0.0,0.0,0.0,0.0,0.0,0.0,0.0,0.0,0.0,0.0,0.0,0.0,0.0,0.0,0.0,0.0,0.0,0.0,0.0,0.0,0.0,-1.0351,-1.0384,0.0,0.0,0.0,0.0,0.0,0.0,0.0,0.0,0.0,0.0,0.0,0.0,-0.8754,-1.0022,-1.1046,-1.1553,-1.1161,-1.0679,-1.0238,-0.9116,-0.8201,-0.7637,-0.6613,-0.5737,0.0,0.0,0.0,0.0,0.0,0.0,0.0,0.0,0.0,0.0,0.0,0.0,0.0,0.0,0.0,0.0,0.0,0.0,0.0,0.0,0.0,0.0,0.0,0.0,0.0,0.0,0.0,0.0,0.0,0.0,0.0,0.0,-0.8874,-0.9519,0.0,0.0,0.0,0.0,0.0,0.0,0.0,0.0,0.0,0.0,0.0,0.0,0.0,-1.4162,-1.4327,-1.5548,-1.6144,-1.6159,-1.6845,-1.719,-1.719,-1.728,-1.7278,-1.7246,-1.6962,0.0,-1.4243,-1.2747,0.0,0.0,0.0,0.0,0.0,0.0,0.0,0.0,0.0,0.0,0.0,0.0,0.0,0.0,0.0,0.0,0.0,0.0,0.0,0.0,0.0,0.0,-1.3366,-1.2805,-1.2528,-1.2402,0.0,-1.0618,-0.8786,-0.8195,-0.8081,0.0,0.0,0.0,0.0,0.0,0.0,0.0,-0.9396,-1.0658,-1.1515,-1.159,-1.154,-1.1129,-1.0274,-0.9721,-0.8897,-0.7679,-0.7182,-0.6553,-0.5712,-0.5312,0.0,0.0,0.0,0.0,0.0,0.0,0.0,0.0,0.0,0.0,0.0,0.0,0.0,0.0,0.0,0.0,0.0,0.0,0.0,0.0,0.0,0.0,0.0,0.0,0.0,0.0,0.0,0.0,0.0,-0.8795,-0.9689,-1.0329,-1.0534,-1.051,0.0,0.0,0.0,0.0,0.0,0.0,0.0,0.0,0.0,-1.484,-1.5519,-1.6054,-1.6443,-1.7355,-1.8012,-1.8386,-1.9074,-1.9582,-1.9959,-1.9959,-1.9959,-1.9959,-1.9959,-1.9452,-1.8464,-1.5784,-1.4594,-1.4358,0.0,0.0,0.0,0.0,-1.3342,-1.3399,-1.4047,-1.4045,0.0,-1.3747,0.0,0.0,0.0,0.0,0.0,0.0,0.0,0.0,0.0,0.0,-1.411,-1.4155,-1.4026,-1.397,-1.4112,-1.3231,-1.1919,0.0,-0.9982,-0.9485,-0.7923,0.0,0.0,0.0,0.0,-0.9856,-1.043,-1.1399,-1.2178,-1.2463,-1.2241,-1.1877,-1.1474,-1.0517,-0.9594,-0.8772,-0.7871,-0.7135,-0.6546,-0.5859,-0.5223,0.0,0.0,0.0,0.0,0.0,0.0,0.0,0.0,0.0,0.0,0.0,0.0,0.0,0.0,0.0,0.0,0.0,0.0,0.0,0.0,0.0,0.0,0.0,0.0,0.0,0.0,0.0,0.0,-1.0108,-1.0862,-1.1485,-1.2174,-1.2473,0.0,0.0,0.0,0.0,0.0,0.0,-1.5217,-1.577,-1.6488,-1.7428,-1.7802,-1.8205,-1.8715,-1.9226,-1.972,-2.0232,-2.0722,-2.1216,-2.1695,-2.1695,-2.1695,-2.1695,-2.1695,-2.1695,-2.145,-1.8419,-1.6972,-1.6584,-1.5832,-1.5547,-1.5589,-1.5982,-1.6,-1.592,-1.6767,-1.6764,-1.637,-1.6135,-1.5677,-1.5015,-1.3818,0.0,0.0,0.0,0.0,-1.3446,-1.4299,-1.4614,-1.4815,-1.5211,-1.5311,-1.5311,-1.5311,-1.5198,-1.4475,0.0,-1.1931,-1.1418,-0.9708,0.0,0.0,0.0,0.0,-1.1057,-1.1461,-1.215,-1.2764,-1.316,-1.2852,-1.2551,-1.24,-1.1168,-1.0223,-0.9789,-0.8502,-0.7618,-0.7237,-0.6408,-0.5689,-0.5142,0.0,0.0,0.0,0.0,0.0,0.0,0.0,0.0,0.0,0.0,0.0,0.0,0.0,0.0,0.0,0.0,0.0,0.0,0.0,0.0,0.0,0.0,0.0,0.0,0.0,0.0,0.0,0.0,0.0,-1.3558,-1.4797,0.0,0.0,0.0,0.0,-1.4737,-1.5801,-1.6517,-1.6592,-1.8418,-1.9483,-1.9558,-2.0782,-2.1455,-2.15,-2.153,-2.156,-2.159,-2.1635,-2.1665,-2.1695,-2.1695,-2.1695,-2.1695,-2.1695,-2.1695,-2.159,-2.0139,-1.9522,-1.937,-1.8052,-1.7545,-1.756,-1.7574,-1.7978,-1.8502,-1.8576,-1.8576,-1.8636,-1.9265,-1.8077,-1.6393,-1.632,-1.5207,0.0,0.0,-1.5099,-1.5542,-1.5593,-1.6007,-1.6387,-1.64,-1.6412,-1.6412,-1.6412,-1.6019,-1.5316,0.0,-1.3941,-1.3589,-1.2409,0.0,-1.2071,-1.152,-1.1921,-1.2309,-1.2334,-1.2822,-1.3173,-1.3198,-1.3173,-1.2947,-1.2438,-1.1509,-1.0723,-1.0204,-0.8972,-0.8049,-0.7595,-0.6795,-0.6182,-0.5763,-0.4922,0.0,0.0,0.0,0.0,0.0,0.0,0.0,0.0,0.0,0.0,0.0,0.0,0.0,0.0,0.0,0.0,0.0,0.0,0.0,0.0,0.0,0.0,0.0,0.0,0.0,0.0,0.0,0.0,-1.5547,-1.6473,0.0,-1.6368,-1.6742,-1.7281,-1.7911,-1.8373,-1.9016,-1.9866,-2.0602,-2.0996,-2.0996,-2.144,-2.1695,-2.1695,-2.1695,-2.1924,-2.2343,-2.2343,-2.2772,-2.3558,-2.3558,-2.3558,-2.3558,-2.3558,-2.3304,-2.2862,-2.1999,-2.1385,-2.0932,-2.0468,-2.0273,-2.0273,-2.0273,-2.0423,-2.0632,-2.0632,-2.0632,-2.0662,-2.0902,-1.9937,-1.8679,-1.8679,-1.7751,-1.664,-1.6466,-1.6572,-1.6654,-1.6292,-1.635,-1.65,-1.65,-1.65,-1.65,-1.65,-1.6337,-1.6107,-1.5718,-1.5085,-1.4374,-1.3614,-1.3778,-1.3828,-1.3292,-1.3664,-1.4016,-1.4016,-1.418,-1.4149,-1.3815,-1.3778,-1.3534,-1.2947,-1.1976,-1.1098,-1.0448,-0.952,-0.8599,-0.7701,-0.709,-0.6598,-0.6193,-0.5332,-0.4662,0.0,0.0,0.0,0.0,0.0,0.0,0.0,0.0,0.0,0.0,0.0,0.0,0.0,0.0,0.0,0.0,0.0,0.0,0.0,0.0,0.0,0.0,0.0,0.0,0.0,-1.5005,-1.6428,-1.7264,-1.8371,-1.8954,-1.873,-1.8924,-1.942,-2.0322,-2.0382,-2.0771,-2.165,-2.1904,-2.2113,-2.2323,-2.2562,-2.2787,-2.3011,-2.3011,-2.3236,-2.3691,-2.3691,-2.4118,-2.4933,-2.4933,-2.4933,-2.4933,-2.4933,-2.4702,-2.4238,-2.3834,-2.3415,-2.2936,-2.2039,-2.1695,-2.1695,-2.1695,-2.1695,-2.1695,-2.1695,-2.1695,-2.1695,-2.1695,-2.1029,-2.0264,-2.0444,-1.9706,-1.8748,-1.8563,-1.8231,-1.7829,-1.7466,-1.7077,-1.681,-1.681,-1.666,-1.65,-1.65,-1.65,-1.65,-1.65,-1.5932,-1.5336,-1.4959,-1.5198,-1.5261,-1.4727,-1.4934,-1.5097,-1.4909,-1.4896,-1.4765,-1.44,-1.4217,-1.3946,-1.3546,-1.2203,-1.1183,-1.0704,-0.9753,-0.8814,-0.7932,-0.732,-0.681,-0.6406,-0.5419,-0.4817,-0.4627,0.0,0.0,0.0,0.0,0.0,0.0,0.0,0.0,0.0,0.0,0.0,0.0,0.0,0.0,0.0,0.0,0.0,0.0,0.0,0.0,0.0,0.0,0.0,-1.4993,-1.7116,-1.8747,-1.8792,-2.0513,-2.1455,-2.0823,-2.135,-2.1739,-2.1784,-2.1784,-2.1799,-2.1814,-2.2448,-2.3062,-2.364,-2.4291,-2.4933,-2.56,-2.5615,-2.5615,-2.5615,-2.5615,-2.5615,-2.563,-2.563,-2.563,-2.563,-2.563,-2.563,-2.5615,-2.5615,-2.5615,-2.536,-2.2817,-2.1799,-2.1784,-2.1784,-2.1784,-2.1754,-2.1754,-2.1754,-2.1754,-2.1754,-2.1388,-2.1038,-2.157,-2.0996,-2.0259,-2.076,-2.0037,-1.9118,-1.9095,-1.8254,-1.7423,-1.7423,-1.6974,-1.6525,-1.6525,-1.65,-1.65,-1.65,-1.65,-1.65,-1.65,-1.65,-1.6312,-1.5806,-1.5718,0.0,-1.5009,-1.4947,-1.4934,-1.4941,-1.4462,-1.4141,-1.4103,-1.2246,-1.1052,-1.1001,-0.9652,-0.8701,-0.8333,-0.7508,-0.6856,-0.6443,-0.5225,-0.472,-0.4951,0.0,0.0,0.0,0.0,0.0,0.0,0.0,0.0,0.0,0.0,0.0,0.0,0.0,0.0,0.0,0.0,0.0,0.0,0.0,0.0,0.0,-1.5942,-1.7476,-1.7606,-1.8657,-1.9779,-2.0752,-2.1365,-2.1814,-2.2134,-2.2328,-2.2802,-2.3723,-2.3797,-2.4007,-2.4507,-2.4702,-2.4881,-2.5046,-2.5241,-2.5397,-2.5615,-2.5615,-2.5615,-2.5615,-2.5615,-2.5854,-2.6318,-2.6318,-2.6318,-2.6318,-2.6318,-2.6048,-2.5615,-2.5615,-2.5615,-2.554,-2.4822,-2.4216,-2.3797,-2.3797,-2.3505,-2.3071,-2.3071,-2.3071,-2.3071,-2.3071,-2.2673,-2.2218,-2.2377,-2.1871,-2.1208,-2.0967,-2.0316,-1.9595,-1.9208,-1.8551,-1.7978,-1.7978,-1.7551,-1.7149,-1.7149,-1.681,-1.65,-1.65,-1.65,-1.65,-1.65,-1.65,-1.645,-1.6287,-1.6274,0.0,-1.6082,-1.607,-1.5906,-1.5517,-1.5349,-1.4947,-1.4166,-1.3184,-1.214,-1.1064,-1.0471,-0.9722,-0.8715,-0.8388,-0.791,-0.7211,-0.6859,-0.6517,0.0,0.0,0.0,0.0,0.0,0.0,0.0,0.0,0.0,0.0,0.0,0.0,0.0,0.0,0.0,0.0,0.0,0.0,0.0,0.0,0.0,0.0,-1.8159,-1.992,-2.0658,-2.0876,-2.134,-2.2368,-2.2742,-2.3191,-2.3849,-2.3909,-2.4223,-2.4963,-2.5023,-2.5187,-2.5585,-2.5615,-2.5734,-2.6019,-2.6019,-2.6153,-2.6437,-2.6437,-2.6437,-2.6437,-2.6437,-2.6632,-2.7031,-2.7031,-2.7031,-2.7031,-2.7031,-2.6806,-2.6437,-2.6437,-2.6437,0.0,0.0,0.0,0.0,0.0,-2.4754,-2.4448,-2.4448,-2.4448,-2.4448,-2.4448,-2.4014,-2.349,-2.349,-2.3026,-2.2384,-2.1808,-2.1179,-2.0525,-1.9977,-1.9186,-1.8531,-1.8531,-1.8129,-1.7664,-1.7461,-1.7112,-1.681,-1.6538,-1.65,0.0,-1.65,-1.65,-1.65,-1.65,-1.65,-1.65,-1.65,-1.65,-1.6375,-1.607,-1.5831,-1.5449,-1.4828,-1.3671,0.0,0.0,0.0,-1.0314,-0.919,-0.8718,0.0,0.0,0.0,0.0,0.0,0.0,0.0,0.0,-0.5517,-0.5572,0.0,0.0,0.0,0.0,0.0,0.0,0.0,0.0,0.0,0.0,0.0,0.0,0.0,0.0,0.0,0.0,-2.0467,-2.2353,-2.3655,-2.3355,-2.3242,-2.3759,-2.4335,-2.4978,-2.5659,-2.5719,-2.5749,-2.5824,-2.5839,-2.5839,-2.5839,0.0,0.0,0.0,0.0,-2.7121,-2.7705,-2.7779,-2.7824,-2.7824,-2.7824,-2.7824,-2.7824,-2.7824,-2.7824,-2.7824,-2.775,-2.7705,-2.7705,-2.763,-2.76,-2.7465,-2.6213,-2.5719,-2.5704,-2.563,-2.5615,-2.5615,-2.5615,0.0,0.0,-2.5615,-2.5187,-2.4709,-2.4709,-2.4231,-2.3606,-2.3059,-2.2333,-2.1592,-2.1053,-1.9997,-1.9096,-1.9096,-1.8669,-1.8166,-1.7664,-1.7498,-1.7247,-1.6722,-1.6538,-1.65,-1.65,-1.65,-1.65,-1.65,-1.65,-1.65,-1.65,-1.65,-1.65,-1.65,0.0,0.0,-1.5706,-1.4062,-1.2961,-1.2761,-1.1689,-1.0686,-0.9863,-0.9028,-0.8578,-0.8578,-0.8704,-0.8938,-0.9299,-0.9413,-0.9588,-0.979,-0.7898,-0.7299,0.0,0.0,0.0,0.0,0.0,0.0,0.0,0.0,0.0,0.0,0.0,0.0,0.0,0.0,0.0,-2.093,-2.2378,-2.3699,-2.5031,-2.5121,-2.5076,-2.5211,-2.533,-2.5674,-2.6333,-2.6408,-2.6641,-2.718,-2.721,-2.721,-2.721,-2.721,-2.727,-2.7405,-2.7919,-2.8278,-2.8397,-2.8921,-2.9217,-2.9217,0.0,0.0,-2.9217,-2.9217,-2.9217,-2.9187,-2.8622,-2.8412,-2.8353,-2.7824,-2.76,-2.7525,-2.6707,-2.6408,-2.6333,-2.5809,-2.5615,-2.5615,-2.5615,-2.5615,-2.5615,-2.5615,-2.5501,-2.5397,-2.5397,-2.4933,0.0,-2.4275,-2.3022,-2.1673,-2.1568,-2.0591,-1.966,-1.966,-1.9233,-1.882,-1.8707,-1.8003,-1.7373,-1.726,-1.6835,-1.65,-1.65,-1.65,-1.65,-1.65,-1.65,-1.65,-1.65,-1.65,-1.65,-1.65,-1.64,-1.6183,-1.5731,-1.5332,-1.4543,-1.3186,-1.2079,-1.1397,-1.1215,-1.1044,-1.0939,-1.0939,-1.0968,-1.103,-1.1099,-1.1117,-1.1159,-1.1178,-0.9717,-0.918,0.0,0.0,0.0,0.0,0.0,0.0,0.0,0.0,0.0,0.0,0.0,-1.8439,-1.9045,0.0,-2.1824,-2.3083,-2.403,-2.4956,-2.5959,-2.6093,-2.6093,-2.6093,-2.6093,-2.6363,-2.7046,-2.7106,-2.724,-2.757,-2.7914,-2.8109,-2.8109,-2.8423,-2.8603,-2.8603,-2.8933,-2.9086,-2.9086,-2.9415,-2.9606,-2.9606,-2.9606,-2.9606,-2.9606,-2.9606,-2.9606,-2.9592,-2.9235,-2.9086,-2.9071,-2.8753,-2.8603,-2.8573,-2.8244,-2.7705,-2.7061,-2.6707,-2.6587,-2.6587,-2.6587,-2.6587,-2.6587,-2.6587,-2.6363,-2.6093,-2.6093,-2.5621,-2.4908,-2.392,-2.296,-2.199,-2.0995,-2.0283,-1.9798,-1.9798,-1.961,-1.9321,-1.9058,-1.8569,-1.8041,-1.7511,-1.7149,-1.6861,-1.655,-1.65,-1.65,-1.65,-1.65,-1.65,-1.65,-1.65,-1.65,-1.65,-1.65,-1.6387,-1.6132,-1.5856,-1.5229,-1.4124,-1.33,-1.2722,-1.24,-1.214,-1.1864,-1.1615,-1.1864,-1.2002,-1.2002,-1.2262,-1.24,-1.2388,-1.1715,-1.1169,0.0,0.0,0.0,0.0,0.0,0.0,0.0,-1.7472,-1.829,-1.8738,-2.0572,-2.2113,-2.2233,-2.3543,-2.4694,-2.4948,-2.5555,-2.6183,-2.6731,-2.6901,-2.6931,-2.6821,-2.6782,-2.7016,-2.754,-2.772,-2.7794,-2.7794,-2.8438,-2.8786,-2.8786,-2.9295,-2.9606,-2.9606,-2.9726,-2.9759,-2.9759,-2.9894,-2.9968,-2.9968,-2.9968,-2.9968,-2.9968,-2.9968,-2.9968,-2.9953,-2.9819,-2.9726,-2.9606,-2.9606,-2.9606,-2.9606,-2.9606,-2.8948,-2.7974,-2.7839,-2.7705,-2.76,-2.76,-2.76,-2.76,-2.76,-2.724,-2.6782,-2.6782,-2.6318,-2.5438,-2.372,-2.2978,-2.2317,-2.0591,-1.9989,-1.9798,-1.9798,-1.9798,-1.9685,-1.9246,-1.907,-1.8744,-1.7877,-1.7637,-1.7363,-1.6785,-1.6663,-1.6647,-1.6513,-1.65,-1.65,-1.65,-1.65,-1.65,-1.65,-1.65,-1.65,-1.65,-1.6019,-1.5525,-1.5085,-1.4551,-1.4029,-1.3554,-1.3132,-1.268,-1.2256,-1.2554,-1.273,-1.273,-1.3052,-1.3198,-1.3198,-1.3198,-1.2739,-1.4274,-1.3968,-1.4423,-1.6567,-1.706,-1.7875,0.0,-2.152,-2.1535,-2.2712,-2.3176,-2.3565,-2.4171,-2.4455,-2.4993,-2.6183,-2.6941,-2.7405,-2.748,-2.7993,-2.8143,-2.7555,-2.748,-2.751,-2.7585,-2.8154,-2.8487,-2.8487,-2.9101,-2.9502,-2.9502,-2.9577,-2.9606,-2.9606,-3.0118,-3.0402,-3.0402,-3.0972,-3.1286,-3.1286,-3.1286,-3.1286,-3.1286,-3.1286,-3.1286,-3.1256,-3.0672,-3.0088,-2.9606,-2.9606,-2.9606,-2.9606,-2.9606,-2.9517,-2.9307,-2.8697,-2.8124,-2.76,-2.76,-2.76,-2.76,-2.76,-2.754,-2.748,-2.748,-2.7031,-2.6307,-2.543,-2.3999,-2.2512,-2.1625,-2.0592,-1.9798,-1.9798,-1.9798,-1.9786,-1.9723,-1.9334,-1.897,-1.8845,-1.8455,-1.794,-1.7398,-1.731,-1.7112,-1.6575,-1.65,-1.65,-1.65,-1.65,-1.65,-1.65,-1.65,-1.65,-1.65,-1.6019,-1.5668,-1.5605,-1.511,-1.4771,-1.4708,-1.4645,-1.4582,-1.4532,-1.4123,-1.3909,-1.3909,-1.3433,-1.3198,-1.3198,-1.3198,-1.3135,-1.6014,-1.6451,-1.7369,-1.9066,-1.9963,-2.0931,-2.2796,-2.331,-2.3528,-2.4066,-2.4807,-2.542,-2.5719,-2.6078,-2.6662,-2.7604,-2.7993,-2.8334,-2.8723,-2.8667,-2.8502,-2.8229,-2.7839,-2.775,-2.8128,-2.8427,-2.8757,-2.9146,-2.9759,-3.0118,-3.0118,-3.0492,-3.0717,-3.0717,-3.0943,-3.1077,-3.1077,-3.1361,-3.1511,-3.1511,-3.1511,-3.1511,-3.1511,-3.1511,-3.1511,-3.1481,-3.1197,-3.0928,-3.0717,-3.0717,-3.0717,-3.0717,-3.0717,-3.0477,-3.0043,-2.94,-2.8742,-2.8173,-2.8173,-2.7929,-2.76,-2.76,-2.76,-2.76,-2.76,-2.7405,-2.6942,-2.5861,-2.4682,-2.3513,-2.2458,-2.1249,-2.0327,-2.0327,-2.0075,-1.9798,-1.9798,-1.9623,-1.9359,-1.9058,-1.882,-1.8505,-1.7953,-1.7624,-1.7322,-1.7049,-1.6713,-1.65,-1.65,-1.65,-1.65,-1.65,-1.65,-1.65,-1.65,-1.6287,-1.617,-1.617,-1.5957,-1.568,-1.5387,-1.5374,-1.5223,-1.4916,-1.4676,-1.4563,-1.4563,-1.4318,-1.4186,-1.4186,-1.4186,-1.4186,-1.7384,-1.8465,-1.9712,-2.1104,-2.234,-2.343,-2.4238,-2.4807,-2.5187,-2.5382,-2.6198,-2.6881,-2.6881,-2.727,-2.7824,-2.8487,-2.8757,-2.9041,-2.9547,-2.9175,-2.8801,-2.8622,-2.8019,-2.7944,-2.8786,-2.8876,-2.9146,-2.9789,-3.0417,-3.0791,-3.0791,-3.1241,-3.1511,-3.1511,-3.1511,-3.1511,-3.1511,-3.1511,-3.1511,-3.1511,-3.1511,-3.1511,-3.1511,-3.1511,-3.1511,-3.1511,-3.1511,-3.1511,-3.1511,-3.1511,-3.1511,-3.1511,-3.1511,-3.1197,-3.0731,-3.0283,-2.9579,-2.8876,-2.8876,-2.8573,-2.8124,-2.7944,-2.7884,-2.7839,-2.766,-2.7458,-2.7034,-2.5894,-2.4876,-2.3947,-2.2813,-2.1719,-2.0918,-2.0918,-2.0478,-2.0037,-2.0037,-1.9911,-1.9698,-1.9284,-1.9221,-1.9045,-1.8506,-1.8103,-1.779,-1.7626,-1.725,-1.6851,-1.6538,-1.65,-1.65,-1.65,-1.65,-1.65,-1.65,-1.65,-1.65,-1.65,-1.65,-1.6333,-1.5944,-1.5919,-1.5731,-1.5349,-1.5198,-1.5123,-1.5123,-1.4959,-1.4896,-1.4896,-1.4896,-1.4896,-1.7955,-1.9154,-2.0525,-2.2379,-2.3703,-2.4889,-2.6198,-2.6512,-2.6707,-2.7375,-2.754,-2.757,-2.757,-2.7585,-2.7824,-2.8487,-2.9146,-2.9592,-2.9606,-2.9592,-2.9337,-2.8682,-2.8019,-2.8124,-2.9457,-2.9577,-2.9804,-3.0432,-3.1077,-3.1466,-3.1466,-3.1496,-3.1511,-3.1511,-3.1511,-3.1511,-3.1511,-3.1511,-3.1511,-3.1511,-3.1511,-3.1511,-3.1511,-3.1511,-3.1511,-3.1511,-3.1511,-3.1511,-3.1511,-3.1511,-3.1511,-3.1511,-3.1511,-3.1496,-3.1466,-3.1451,-3.0657,-2.9577,-2.9577,-2.9562,-2.9442,-2.8771,-2.8562,-2.8442,-2.7809,-2.7086,-2.639,-2.5618,-2.4462,-2.327,-2.2502,-2.1882,-2.1496,-2.1496,-2.1069,-2.0666,-2.0666,-2.02,-1.9798,-1.9786,-1.9773,-1.961,-1.907,-1.8958,-1.877,-1.8254,-1.8166,-1.7752,-1.6638,-1.65,-1.65,-1.65,-1.65,-1.65,-1.65,-1.65,-1.65,-1.65,-1.65,-1.6488,-1.6475,-1.6475,-1.6463,-1.645,-1.5944,-1.5668,-1.5668,-1.5148,-1.4896,-1.4896,-1.4896,-1.4896,-1.8567,-2.0251,-2.2169,-2.3612,-2.4958,-2.6153,-2.7061,-2.727,-2.733,-2.754,-2.7255,-2.6941,-2.6941,-2.6941,-2.7315,-2.8412,-2.9146,-2.9906,-3.0746,-3.0477,-3.0103,-2.9894,-2.9295,-2.9277,-3.0103,-2.9819,0.0,-3.1077,-3.1376,-3.169,-3.2123,-3.2153,-3.2377,-3.2826,-3.2841,-3.2841,-3.2841,-3.2841,-3.2841,-3.2841,-3.2841,-3.2572,-3.2153,-3.2153,-3.1914,-3.1511,-3.1511,-3.1511,-3.1511,-3.1511,-3.1511,-3.1511,-3.1511,-3.1511,-3.1511,-3.1511,-3.1227,-3.0806,-3.0357,-2.9924,-2.9577,-2.9352,-2.925,-2.9131,-2.8457,-2.7748,-2.7016,-2.6317,-2.5108,-2.3932,-2.3686,-2.284,-2.2033,-2.2033,-2.1606,-2.1131,-2.0779,-2.0541,-2.0289,-1.9874,-1.9798,-1.9748,-1.9572,-1.9233,-1.882,-1.8292,-1.789,-1.7513,-1.7137,-1.676,-1.65,-1.65,-1.65,-1.65,-1.65,-1.65,-1.65,-1.65,-1.65,-1.65,-1.65,-1.65,-1.65,-1.65,-1.6312,-1.6233,-1.6233,-1.6057,-1.5969,-1.5969,-1.5969,-1.5969,-1.9856,-2.1559,-2.3363,-2.5078,-2.6363,-2.7347,-2.7838,-2.7959,-2.7824,-2.7345,-2.6692,-2.6243,-2.6243,-2.6048,-2.6482,-2.8308,-2.8951,-2.9774,-3.1286,-3.0913,-3.0507,-3.0507,-2.9968,-2.9846,-3.0447,-3.0148,-3.0357,-3.1421,-3.172,-3.2049,-3.2497,-3.2736,-3.3051,-3.3484,-3.3499,-3.3499,-3.3499,-3.3499,-3.3499,-3.3499,-3.3499,-3.3275,-3.2871,-3.2871,-3.2632,-3.2183,-3.1959,-3.1854,-3.1839,-3.16,-3.1511,-3.1511,-3.1511,-3.1511,-3.1511,-3.1511,-3.1511,-3.1436,-3.1002,-3.0612,-3.0238,-2.9998,-2.9909,-2.9734,-2.8793,-2.8177,-2.7606,-2.6646,-2.5743,-2.4936,-2.4432,-2.367,-2.2949,-2.2657,-2.2184,-2.1681,-2.1358,-2.1131,-2.0817,-2.0225,-2.0112,-2.0037,-1.9836,-1.9497,-1.9158,-1.8832,-1.8317,-1.7903,-1.7702,-1.7174,-1.6823,-1.6823,-1.6635,-1.65,-1.65,-1.65,-1.65,-1.65,-1.65,-1.65,-1.65,-1.65,-1.65,-1.65,-1.65,-1.65,-1.65,-1.65,-1.65,-1.65,-1.65,-1.65,-2.1667,-2.2943,-2.413,-2.6608,-2.771,-2.8237,-2.842,-2.8427,-2.801,-2.6723,-2.5917,-2.5401,-2.5418,-2.4955,-2.5433,-2.8083,-2.8577,-2.934,-3.1286,-3.0987,-3.0627,-3.0657,-3.0148,-3.0013,-3.0597,-3.0657,-3.0926,-3.1555,0.0,-3.2542,-3.2617,-3.32,-3.3559,-3.3604,-3.3604,-3.3604,-3.3604,-3.3604,-3.3604,-3.3604,-3.3604,-3.3574,-3.3544,-3.3544,-3.3529,-3.3455,-3.2841,-3.2557,-3.2512,-3.1854,-3.16,-3.16,-3.16,-3.1585,-3.1555,-3.1555,-3.1525,-3.1511,-3.1438,-3.1467,-3.1406,-3.0776,-3.0552,-3.0293,-2.8798,-2.8383,-2.8083,-2.6589,-2.6237,-2.5971,-2.4622,-2.4261,-2.406,-2.3275,-2.2706,-2.2347,-2.2322,-2.1895,-2.1395,-2.0842,-2.0717,-2.0515,-1.9936,-1.9823,-1.9798,-1.9798,-1.9359,-1.8845,-1.8317,-1.7765,-1.7448,-1.7448,-1.6911,-1.6538,-1.6538,-1.6513,-1.65,-1.65,-1.65,-1.65,-1.65,-1.65,-1.65,-1.65,-1.65,-1.65,-1.65,-1.65,-1.65,-1.65,-1.65,-1.65,-2.2132,-2.3761,-2.5435,-2.6089,-2.6489,-2.6748,-2.6793,-2.6143,-2.5319,-2.4592,-2.3595,-2.284,-2.2848,-2.3485,-2.4693,-2.6777,-2.8353,-3.0013,-3.1959,-3.2108,-3.2183,-3.2677,-3.2587,-3.2557,-3.2721,-3.2736,-3.2811,0.0,-3.2706,-3.2946,-3.3918,-3.4159,-3.4457,-3.4981,-3.4996,-3.4996,-3.4996,-3.4996,-3.4996,-3.4996,-3.4996,-3.4726,-3.4264,-3.4264,-3.3963,-3.3484,-3.332,-3.3245,-3.323,-3.3066,-3.2991,-3.2991,-3.2991,-3.2691,-3.2243,-3.2243,-3.1929,-3.1409,-3.0807,-3.0999,-3.1466,-3.1301,-3.1241,-3.0964,-2.9494,-2.8649,-2.7943,-2.6405,-2.5328,-2.4545,-2.4172,-2.3742,-2.3335,-2.3138,-2.2995,-2.2782,-2.2397,-2.2196,-2.1945,-2.1393,-2.0968,-2.0641,-2.049,-2.0087,-1.9798,-1.9798,-1.9685,-1.9384,-1.8857,-1.8342,-1.8003,-1.8003,-1.7501,-1.7162,-1.7162,-1.6773,-1.65,-1.65,-1.65,-1.65,-1.65,-1.65,-1.65,-1.65,-1.65,-1.65,-1.65,-1.65,-1.65,-1.65,-1.65,-1.65,-2.3489,-2.4722,-2.5922,-2.6553,-2.6592,-2.6416,-2.5989,-2.5217,-2.4201,-2.2822,-2.1792,-2.1103,-2.1118,-2.2125,-2.3685,-2.5879,-2.7895,-2.9939,-3.2198,-3.2512,-3.2766,-3.3425,-3.3499,-3.3499,-3.3499,-3.3499,-3.3619,-3.3934,-3.3589,-3.3694,-3.4474,-3.4788,-3.51,-3.5489,-3.5504,-3.5504,-3.5504,-3.5504,-3.5504,-3.5504,-3.5504,-3.5295,-3.4921,-3.4921,-3.4726,-3.4352,0.0,-3.3918,-3.3934,-3.3619,-3.3499,-3.3499,-3.3499,-3.3275,-3.2885,-3.2476,-3.1926,-3.1232,-3.038,-3.0209,-3.0464,-3.0837,-3.0703,-3.0241,-2.9416,-2.8862,-2.8243,-2.6698,-2.6015,-2.5563,-2.47,-2.4248,-2.3837,-2.3248,-2.3108,-2.302,-2.2706,-2.2644,-2.2481,-2.1958,-2.1405,-2.1056,-2.1056,-2.0578,-2.0175,-2.0175,-1.9962,-1.9698,-1.9384,-1.887,-1.8544,-1.8544,-1.8078,-1.7739,-1.7739,-1.7225,-1.6898,-1.6898,-1.666,-1.65,-1.65,-1.65,-1.65,-1.65,-1.65,-1.65,-1.65,-1.65,-1.65,-1.65,-1.65,-1.65,-2.5059,-2.5649,-2.6013,-2.722,-2.7085,-2.6374,-2.5418,-2.4654,-2.3496,-2.119,-2.0216,-1.974,-1.9722,-2.0869,-2.2655,-2.5261,-2.7328,-2.9549,-3.2258,-3.2647,-3.2916,-3.3679,-3.3769,-3.3769,-3.3769,-3.3769,-3.4008,-3.4593,-3.4638,-3.4638,-3.4638,-3.5175,-3.5504,-3.5504,-3.5504,-3.5504,-3.5504,-3.5504,-3.5504,-3.5504,-3.5504,-3.5504,-3.5504,-3.5504,-3.5504,-3.5474,-3.4876,-3.4638,-3.4593,-3.4008,-3.3769,-3.3769,-3.3769,-3.3632,-3.3357,-3.2542,-3.1757,-3.0994,-3.0076,-2.9397,-2.9067,-2.9886,-2.9628,-2.8971,-2.8876,-2.8844,-2.8543,-2.709,-2.7147,-2.7304,-2.5594,-2.5123,-2.4745,-2.3528,-2.3221,-2.3195,-2.312,-2.3108,-2.2957,-2.2493,-2.197,-2.1594,-2.1594,-2.1169,-2.0805,-2.0805,-2.0314,-1.9911,-1.9911,-1.9434,-1.9108,-1.9108,-1.8619,-1.8317,-1.8317,-1.7802,-1.7511,-1.7511,-1.6948,-1.6613,-1.6613,-1.6538,-1.65,-1.65,-1.65,-1.65,-1.65,-1.65,-1.65,-1.65,-1.65,-1.65,-2.5372,-2.5971,-2.6395,-2.6667,-2.5919,-2.4874,-2.3782,-2.2424,-2.0874,-1.9067,-1.8247,-1.7863,-1.7792,-1.9684,-2.2067,-2.4568,-2.7007,-2.9714,-3.2886,-3.332,-3.3784,-3.5011,-3.516,-3.516,-3.516,-3.516,-3.5205,0.0,-3.5325,-3.5325,-3.5325,-3.5444,-3.5504,-3.5504,-3.5504,-3.5504,-3.5504,-3.5504,-3.5504,-3.5504,-3.5504,-3.5504,-3.5504,-3.5504,-3.5504,-3.5489,-3.5385,0.0,-3.5325,-3.5205,-3.516,-3.516,-3.516,-3.4336,-3.314,-3.2994,-3.199,-3.0612,-2.9778,-2.9069,-2.8652,-2.9091,-2.9129,-2.8876,-2.8149,-2.792,-2.7743,-2.679,-2.6286,-2.5932,-2.561,-2.5178,-2.469,-2.401,-2.3853,-2.3715,-2.3208,-2.3108,-2.3083,-2.2982,-2.2518,-2.2171,-2.2171,-2.1707,-2.1343,-2.1343,-2.0905,-2.0541,-2.0541,-2.0024,-1.966,-1.966,-1.9171,-1.8857,-1.8857,-1.838,-1.8066,-1.8066,-1.7539,-1.7237,-1.7237,-1.6773,-1.65,-1.65,-1.65,-1.65,-1.65,-1.65,-1.65,-1.65,-1.65,-1.65,-2.5858,-2.6285,-2.6499,-2.6499,-2.5423,-2.3923,-2.2201,-2.0772,-1.9258,-1.7246,-1.6898,-1.6923,-1.6888,-1.89,-2.1198,-2.3084,-2.5448,-2.8188,-3.148,-3.2243,-3.3095,-3.4771,-3.5295,-3.5504,-3.5504,-3.5504,-3.5504,-3.5504,-3.5504,-3.5504,-3.5504,-3.5504,-3.5504,-3.5504,-3.5504,-3.5504,-3.5504,-3.5504,-3.5504,-3.5504,-3.5504,-3.5504,-3.5504,-3.5504,-3.5504,-3.5504,-3.5504,-3.5504,-3.5504,-3.5504,-3.5504,-3.5504,-3.5504,-3.4695,-3.3494,-3.3038,-3.1854,-3.0373,-2.946,-2.8774,-2.8267,-2.8166,-2.792,-2.7703,-2.7703,-2.7417,-2.7007,-2.6624,-2.6298,-2.6009,-2.5674,-2.541,-2.5096,-2.4556,-2.4205,-2.3916,-2.364,-2.3321,-2.3108,-2.3108,-2.2895,-2.2706,-2.2706,-2.2284,-2.192,-2.192,-2.1443,-2.1119,-2.1119,-2.0853,-2.0451,-1.9861,-1.9572,-1.9409,-1.9409,-1.892,-1.8607,-1.8607,-1.8116,-1.7815,-1.7815,-1.7539,-1.7262,-1.6974,-1.6974,-1.6823,-1.65,-1.65,-1.65,-1.65,-1.65,-1.65,-2.6047,-2.6399,-2.6499,-2.6499,-2.5255,-2.3399,-2.111,-1.9777,-1.8337,-1.6078,-1.6073,-1.65,-1.65,-1.8256,-2.0235,-2.1834,-2.3972,-2.6629,-3.0016,-3.1197,-3.2392,-3.4294,-3.5085,-3.5504,-3.5504,-3.5504,-3.5504,-3.5504,-3.5504,-3.5504,-3.5504,-3.5504,-3.5504,-3.5504,-3.5504,-3.5504,-3.5504,-3.5504,-3.5504,-3.5504,-3.5504,-3.5504,-3.5504,-3.5504,-3.5504,-3.5504,-3.5279,-3.518,0.0,-3.518,-3.518,-3.5213,-3.5439,-3.4872,-3.391,-3.3171,-3.2034,-3.0751,-2.9738,-2.9059,-2.8477,-2.7717,-2.7115,-2.6775,-2.7302,-2.7007,-2.6499,-2.6499,-2.6499,-2.6386,-2.5933,-2.5774,-2.5649,-2.5109,-2.4569,-2.4167,-2.4167,-2.3697,-2.3283,-2.3283,-2.3195,-2.3108,-2.3108,-2.2744,-2.2456,-2.2456,-2.202,-2.1656,-2.1656,-2.1556,-2.1154,-2.0263,-2.0062,-1.9936,-1.9811,-1.9409,-1.9171,-1.9171,-1.8657,-1.838,-1.838,-1.8267,-1.8003,-1.7586,-1.7574,-1.7338,-1.6851,-1.676,-1.6697,-1.6697,-1.655,-1.65,-2.5523,-2.6097,-2.6499,-2.6499,-2.5255,-2.3399,-2.111,-1.9777,-1.8337,-1.6078,-1.6073,-1.65,-1.65,-1.7583,-1.9268,-2.1695,-2.365,-2.6186,-2.9973,-3.1614,-3.2931,-3.4339,-3.5085,-3.5504,-3.5504,-3.5504,-3.5504,-3.5504,-3.5504,-3.5504,-3.5504,-3.5504,-3.5504,-3.5504,-3.5504,-3.5504,-3.5504,-3.5504,-3.5504,-3.5504,-3.5504,-3.5504,-3.5504,-3.5504,-3.5504,-3.5439,-3.4543,-3.4129,0.0,-3.4129,-3.4129,-3.4245,-3.5133,-3.4872,-3.3993,-3.391,-3.3248,-3.2275,-3.1309,-3.0635,-2.9938,-2.8489,-2.7657,-2.7153,-2.6741,-2.6555,-2.6499,-2.6499,-2.6499,-2.6487,-2.6424,-2.6411,-2.6273,-2.5661,-2.5121,-2.4713,-2.4713,-2.4305,-2.3916,-2.3916,-2.3459,-2.3108,-2.3108,-2.3058,-2.3032,-2.3032,-2.2556,-2.2234,-2.2234,-2.1794,-2.1443,-2.1343,-2.0918,-2.0402,-1.9849,-1.9761,-1.9736,-1.9736,-1.9221,-1.8933,-1.8933,-1.8468,-1.8179,-1.8129,-1.8129,-1.8103,-1.8041,-1.7539,-1.7322,-1.731,-1.676,-1.65,-2.5372,-2.6047,-2.6411,-2.6059,-2.4707,-2.2754,-2.0132,-1.9,-1.7844,-1.5544,-1.5832,-1.65,-1.65,-1.7165,-1.8403,-2.0559,-2.1753,-2.3645,-2.7066,-2.8712,-3.0328,-3.2452,-3.3649,-3.4622,-3.5429,0.0,-3.5504,-3.5504,-3.5504,-3.5504,-3.5504,-3.5504,-3.5504,-3.5504,-3.5504,-3.5504,-3.5504,-3.5504,-3.5504,-3.5504,-3.5504,-3.5504,-3.5504,-3.5504,-3.5504,-3.5472,-3.5067,-3.4543,0.0,-3.4658,-3.4543,-3.4095,-3.51,-3.4558,-3.3171,-3.3171,-3.2227,-3.0846,-3.0495,-3.0215,-2.987,-2.8899,-2.8448,-2.8047,-2.6864,-2.6499,-2.6499,-2.6499,-2.6499,-2.6499,-2.6499,-2.6499,-2.6436,-2.621,-2.5686,-2.5285,-2.5285,-2.487,-2.4494,-2.4494,-2.4274,-2.401,-2.3715,-2.3653,-2.354,-2.3158,-2.292,-2.2782,-2.2782,-2.2594,-2.2347,-2.202,-2.1493,-2.0955,-2.0402,-2.0352,-2.0201,-1.9823,-1.961,-1.9497,-1.9497,-1.9284,-1.902,-1.8682,-1.8669,-1.8506,-1.8204,-1.799,-1.7877,-1.7877,-1.7639,-1.7526,-2.4619,-2.541,-2.5908,-2.5473,-2.4086,-2.2149,-1.9412,-1.8492,-1.7538,-1.5188,-1.5656,-1.65,-1.65,-1.6816,-1.765,-1.9501,-2.0458,-2.2048,-2.5163,-2.6916,-2.8712,-3.0943,-3.2407,-3.3649,-3.4801,-3.5265,-3.5504,-3.5504,-3.5504,-3.5504,-3.5504,-3.5504,-3.5504,-3.5504,-3.5504,-3.5504,-3.5504,-3.5504,-3.5504,-3.5504,-3.5504,-3.5504,-3.5504,-3.5504,-3.5359,-3.5067,-3.5067,-3.4327,0.0,-3.4558,-3.4476,-3.3705,-3.4986,-3.4476,-3.3031,-3.3031,-3.201,-3.0608,-3.0317,-3.0216,-3.0075,-2.9189,-2.8888,-2.865,-2.7344,-2.6864,-2.6738,-2.6738,-2.6612,-2.6499,-2.6499,-2.6499,-2.6499,-2.6499,-2.6185,-2.585,-2.585,-2.5435,-2.5059,-2.5059,-2.4888,-2.4662,-2.4305,-2.4243,-2.4054,-2.3446,-2.3358,-2.3296,-2.3133,-2.3108,-2.2957,-2.2569,-2.2209,-2.1681,-2.0993,-2.0943,-2.0767,-2.0326,-2.015,-2.0062,-2.0062,-1.9899,-1.9623,-1.9233,-1.9233,-1.9033,-1.8681,-1.8518,-1.8455,-1.8418,-1.8279,-1.8204,-2.2982,-2.3948,-2.4813,-2.48,-2.3534,-2.1692,-1.9342,-1.8492,-1.7538,-1.5188,-1.5656,-1.65,-1.65,-1.65,-1.708,-1.8824,-2.0235,-2.2158,-2.5176,-2.7335,-2.9071,-3.0357,-3.1704,-3.2781,-3.3455,-3.4726,-3.5504,-3.5504,-3.5504,0.0,-3.5504,-3.5504,-3.5504,-3.5504,-3.5504,-3.5504,-3.5504,-3.5504,-3.5504,-3.5504,-3.5504,-3.5504,-3.5504,-3.5504,-3.4953,-3.4027,-3.4027,-3.2961,0.0,-3.3241,-3.3449,-3.282,-3.4739,-3.4872,-3.3993,-3.3993,-3.3394,-3.2464,-3.1499,-3.118,-3.0939,-2.939,-2.8888,-2.8787,-2.826,-2.7708,-2.7268,-2.7268,-2.6914,-2.6499,-2.6499,-2.6499,-2.6499,-2.6499,-2.6487,-2.6487,-2.6487,-2.6034,-2.5586,-2.5586,-2.5172,-2.4788,-2.4775,-2.4775,-2.4619,-2.4067,-2.3991,-2.3778,-2.3183,-2.3108,-2.3108,-2.3095,-2.3095,-2.2644,-2.1568,-2.1481,-2.1481,-2.1468,-2.0981,-2.0679,-2.0679,-2.0138,-1.9798,-1.9798,-1.9798,-1.9798,-1.9786,-1.9246,-1.8995,-1.8983,-1.8455,-1.8204,-2.1281,-2.2259,-2.2924,-2.2171,-2.128,-1.9982,-1.7688,-1.7423,-1.7094,-1.512,-1.5656,-1.65,-1.65,-1.65,-1.722,-1.9373,-2.0082,-2.1405,-2.4418,-2.659,-2.8515,-3.0287,-3.2901,-3.4637,0.0,0.0,-3.5504,-3.5504,-3.5504,-3.5504,-3.5504,-3.5504,-3.5504,-3.5504,-3.5504,-3.5504,-3.5504,-3.5504,-3.5504,-3.5504,-3.5504,-3.5504,-3.5504,-3.5504,-3.5326,-3.4986,-3.4279,-3.331,0.0,-3.282,-3.25,-3.1779,-3.3045,-3.2925,-3.2105,-3.2105,-3.1476,-3.0633,-3.0355,-3.0241,-3.0177,-2.9681,-2.9515,-2.9478,-2.9315,-2.8599,-2.777,-2.7394,-2.719,-2.6964,-2.66,-2.6499,-2.6499,-2.6499,-2.6499,-2.6499,-2.6499,-2.6348,-2.6223,-2.6223,-2.6084,-2.5812,-2.5423,-2.536,-2.5172,-2.4644,-2.4556,-2.4356,-2.3803,-2.3728,-2.3547,-2.3145,-2.3108,-2.2807,-2.2121,-2.2046,-2.1895,-2.1506,-2.1358,-2.1257,-2.1257,-2.0717,-2.0415,-2.0415,-1.9999,-1.9798,-1.9798,-1.9635,-1.956,-1.9547,-1.9371,-1.9296,-1.9625,-2.069,-2.1204,-2.0541,-1.9924,-1.9007,-1.716,-1.6884,-1.6656,-1.5324,-1.5644,-1.6238,-1.6457,-1.65,-1.7044,-1.8709,-1.9364,-2.0654,-2.3488,-2.577,-2.8179,-3.093,-3.332,0.0,0.0,-3.5355,-3.5504,-3.5504,-3.5504,-3.5504,-3.5504,-3.5504,-3.5504,-3.5504,-3.5504,-3.5504,-3.5504,-3.5504,-3.5504,-3.5504,-3.5504,-3.5504,-3.5504,-3.5504,-3.5279,-3.4905,-3.4691,0.0,0.0,-3.2855,-3.2393,-3.1278,-3.2249,-3.2033,-3.1217,-3.1217,-3.0595,-2.9792,-2.9792,-2.9792,-2.9792,-2.9792,-2.9792,-2.9792,-2.9792,-2.9151,-2.8298,-2.7745,-2.7444,-2.7241,-2.6901,-2.665,-2.6499,-2.6499,-2.6499,-2.6499,-2.6499,-2.6499,-2.6499,-2.6499,-2.6499,-2.6386,-2.6021,-2.5925,-2.5737,-2.5197,-2.5109,-2.4921,-2.4381,-2.4305,-2.4092,-2.3496,-2.3434,-2.3208,-2.2644,-2.2594,-2.2443,-2.2133,-2.192,-2.1794,-2.1794,-2.1295,-2.1006,-2.1006,-2.044,-2.0125,-2.0125,-1.9911,-1.9798,-1.9798,-1.9798,-1.9798,0.0,-1.9146,-1.9559,-1.9547,-1.9183,-1.8535,-1.7388,-1.6753,0.0,-1.5672,-1.561,-1.5854,-1.6451,-1.6525,-1.6709,-1.7369,-1.8416,-2.0066,-2.2698,-2.5361,-2.8435,-3.2243,-3.326,-3.3888,-3.4518,-3.513,-3.5504,-3.5504,-3.5504,-3.5504,-3.5504,-3.5504,-3.5504,-3.5504,-3.5504,-3.5504,-3.5504,-3.5504,-3.5504,-3.5504,-3.5504,-3.5504,-3.5504,-3.5504,-3.4986,0.0,-3.4953,0.0,0.0,-3.3031,-3.2664,-3.118,-3.2069,-3.1852,-3.1106,-3.1106,-3.0558,-2.9792,-2.9792,-2.9792,-2.9792,-2.9792,-2.9792,-2.9792,-2.9792,-2.9415,-2.8838,-2.8323,-2.7795,-2.7381,-2.7341,-2.6939,-2.6549,-2.6499,-2.6499,-2.6499,-2.6499,-2.6499,-2.6499,-2.6499,-2.6499,-2.6499,-2.6499,-2.6499,-2.6311,-2.5737,-2.5649,-2.5473,-2.4946,-2.4838,-2.4637,-2.4117,-2.4054,-2.3841,-2.3271,-2.3145,-2.3108,-2.3108,-2.2631,-2.2372,-2.2372,-2.1845,-2.1543,-2.1543,-2.1031,-2.0754,-2.0754,-2.0188,-1.9924,-1.9924,-1.9874,-1.9861,-1.6087,0.0,-1.7216,-1.7275,-1.7177,-1.6794,0.0,-1.593,-1.6188,-1.513,-1.5656,-1.6461,-1.7077,-1.6823,-1.7106,-1.8914,-1.9457,-2.0884,-2.438,-2.8475,-3.202,-3.45,-3.4936,-3.51,-3.525,-3.5415,-3.5504,-3.5504,-3.5504,-3.5504,-3.5504,-3.5504,-3.5504,-3.5504,-3.5504,-3.5504,-3.5504,-3.5504,-3.5504,-3.5504,-3.5504,-3.5504,-3.5504,-3.5504,-3.5359,-3.5067,-3.3822,0.0,-3.2177,-3.1206,-3.0533,-3.0139,-3.0355,-3.0317,-3.0139,-3.0139,-3.0011,-2.9792,-2.9792,-2.9792,-2.9792,-2.9792,-2.9792,-2.9792,-2.9792,-2.9691,-2.9478,-2.89,-2.8599,-2.8348,-2.7507,-2.7216,-2.7014,-2.66,-2.6499,-2.6499,-2.6499,-2.6499,-2.6499,-2.6499,-2.6499,-2.6499,-2.6499,-2.6499,-2.6449,-2.6311,-2.6285,-2.6084,-2.5485,-2.541,-2.5209,-2.4682,-2.4619,-2.4537,-2.4399,-2.3597,-2.3108,-2.3108,-2.2982,-2.2907,-2.2907,-2.241,-2.2121,-2.2121,-2.1581,-2.132,-2.132,-2.1154,-2.1091,-2.1079,-2.0679,-2.049,-1.5028,-1.6015,-1.6878,-1.6885,-1.6911,-1.6744,-1.6093,-1.6013,-1.5986,-1.5599,-1.5832,-1.6259,-1.6879,-1.7149,-1.7677,-1.8882,-1.9911,-2.1992,-2.6013,-2.9668,-3.2632,-3.4571,-3.5213,-3.5504,0.0,-3.5504,-3.5504,-3.5504,-3.5504,-3.5504,-3.5504,-3.5504,-3.5504,-3.5504,-3.5504,-3.5504,-3.5504,-3.5504,-3.5504,-3.5504,-3.5504,-3.5504,-3.5504,-3.5504,-3.5246,-3.4758,-3.3719,0.0,-3.1888,-3.0871,-3.0177,-2.9792,-2.9792,-2.9792,-2.9792,-2.9792,-2.9792,-2.9792,-2.9792,-2.9792,-2.9792,-2.9792,-2.9792,-2.9792,-2.9792,-2.9792,-2.9729,-2.9415,-2.9101,-2.875,-2.8197,-2.7846,-2.7519,-2.7002,-2.7065,-2.7178,-2.6927,-2.6876,-2.6876,-2.6876,-2.6663,-2.6499,-2.6499,-2.6499,-2.6499,-2.6499,-2.6499,-2.6386,-2.6072,-2.6021,-2.5787,-2.5234,-2.5172,-2.5084,-2.4813,-2.4224,-2.3772,-2.3521,-2.3246,-2.3108,-2.3108,-2.2819,-2.2543,-2.2293,-2.202,-2.1744,-2.1493,-2.1493,-2.1493,-2.1481,-2.1207,-2.1069,-1.466,-1.6146,-1.7486,-1.7322,-1.7335,-1.735,-1.7172,-1.6416,-1.5864,-1.6281,-1.6103,-1.6066,-1.6638,-1.7689,-1.8505,-1.8681,-2.0748,-2.37,-2.7617,-3.0067,-3.2129,-3.3792,-3.4872,0.0,-3.5504,-3.5504,-3.5504,-3.5504,-3.5504,-3.5504,-3.5504,-3.5504,-3.5504,-3.5504,-3.5504,-3.5504,-3.5504,-3.5504,-3.5504,-3.5504,-3.5359,-3.5279,-3.5279,-3.5133,-3.4591,-3.3774,0.0,0.0,-3.118,-3.1044,-3.052,-2.9792,-2.9792,-2.9792,-2.9792,-2.9792,-2.9792,-2.9792,-2.9792,-2.9792,-2.9792,-2.9792,-2.9792,-2.9792,-2.9792,-2.9792,-2.9792,-2.9792,-2.944,-2.9001,-2.8913,-2.8549,-2.8097,-2.7544,-2.777,-2.7971,-2.7507,-2.7406,-2.7381,-2.7341,-2.6939,-2.66,-2.6512,-2.6499,-2.6499,-2.6499,-2.6499,-2.6499,-2.6499,-2.6499,-2.6298,-2.5774,-2.5724,-2.5548,-2.5109,-2.4996,-2.4745,-2.4268,-2.3597,-2.3195,-2.3108,-2.3108,-2.2882,-2.2447,-2.2406,-2.2209,-2.1744,-2.1744,-2.1744,-2.1732,-2.1656,-2.1606,-1.5237,-1.6693,-1.7852,-1.6864,-1.7024,-1.7125,-1.6116,-1.6134,-1.6238,-1.582,-1.6475,-1.7285,-1.7842,-1.8832,-1.9874,-2.0828,-2.3857,-2.6809,-2.8932,-3.1296,-3.3087,-3.3892,0.0,-3.5504,-3.5504,-3.5504,-3.5504,-3.5504,-3.5504,-3.5504,-3.5504,-3.5504,-3.5504,-3.5504,-3.5504,-3.5504,-3.5504,-3.5504,-3.5504,-3.5504,-3.4658,-3.4245,-3.4211,-3.3394,-3.2961,-3.2784,0.0,-3.1462,-3.1143,-3.0343,-2.9934,-2.9792,-2.9792,-2.9792,-2.9792,-2.9792,-2.9792,-2.9792,-2.9792,-2.9792,-2.9792,-2.9792,-2.9792,-2.9792,-2.9792,-2.9792,-2.9792,-2.9792,-2.9729,-2.9553,-2.9013,-2.8825,-2.8624,-2.8109,-2.8047,-2.8084,-2.7996,-2.7984,-2.7846,-2.7369,-2.7218,-2.704,-2.6575,-2.6499,-2.6499,-2.6499,-2.6499,-2.6499,-2.6499,-2.6499,-2.6461,-2.6373,-2.6361,-2.6336,-2.6248,-2.5762,-2.5435,-2.5347,-2.4418,-2.364,-2.312,-2.3108,-2.3058,-2.2982,-2.2982,-2.2945,-2.2844,-2.2844,-2.2844,-2.2844,-2.2397,-2.2184,-1.5001,-1.6384,-1.7639,-1.7112,-1.7639,-1.8195,-1.7932,-1.7877,-1.7859,-1.787,-1.8324,-1.8769,-1.902,-2.0213,-2.182,-2.3872,-2.5835,-2.758,-2.8967,-3.0592,-3.1853,0.0,0.0,-3.4109,-3.4658,-3.4691,-3.4905,-3.5472,-3.5504,-3.5504,-3.5504,-3.5504,-3.5504,-3.5504,-3.4986,-3.4953,-3.5504,-3.4457,-3.4442,-3.5504,-3.4461,-3.3993,-3.3993,-3.3031,-3.2321,-3.1815,0.0,-3.0895,-3.0419,-2.9972,-2.9792,-2.9792,-2.9792,-2.9792,-2.9792,-2.9792,-2.9792,-2.9792,-2.9792,-2.9792,-2.9792,-2.9792,-2.9792,-2.9792,-2.9792,-2.9792,-2.9792,-2.9792,-2.9792,-2.9729,-2.9465,-2.9402,-2.9252,-2.8687,-2.8787,-2.8925,-2.8612,-2.8512,-2.8473,-2.8222,-2.7934,-2.7557,-2.704,-2.6939,-2.6839,-2.6537,-2.6499,-2.6499,-2.6499,-2.6499,-2.6499,-2.6499,-2.6499,-2.6499,-2.6499,-2.6248,-2.5812,-2.5222,-2.4707,-2.4192,-2.3597,-2.3602,-2.3421,-2.3108,-2.3108,-2.3108,-2.3108,-2.3108,-2.3108,-2.3095,-2.2844,-2.2732,-1.4681,-1.6007,-1.739,-1.7389,-1.8009,-1.882,-1.9623,-1.9397,-1.9221,-2.0037,-2.03,-2.0351,-2.0225,-2.1681,-2.3766,-2.6449,-2.7306,-2.8009,-2.9001,-2.9949,-3.0742,-3.1164,-3.2033,-3.289,-3.3602,-3.3671,-3.4075,-3.5067,-3.5133,-3.5246,-3.5504,-3.5504,-3.5392,-3.5166,-3.461,-3.461,-3.5133,-3.3671,-3.3685,-3.5133,-3.3925,-3.3345,-3.331,-3.2357,-3.1536,-3.0871,-3.0871,-3.0444,-2.9792,-2.9792,-2.9792,-2.9792,-2.9792,-2.9792,-2.9792,-2.9792,-2.9792,-2.9792,-2.9792,-2.9792,-2.9792,-2.9792,-2.9792,-2.9792,-2.9792,-2.9792,-2.9792,-2.9792,-2.9792,-2.9792,-2.9792,-2.9792,-2.9679,-2.9239,-2.9465,-2.9666,-2.9189,-2.9126,-2.9051,-2.8913,-2.8549,-2.8122,-2.757,-2.7469,-2.7329,-2.6776,-2.6688,-2.6637,-2.6512,-2.6499,-2.6499,-2.6499,-2.6499,-2.6499,-2.6499,-2.6499,-2.6135,-2.5259,-2.5084,-2.4757,-2.4217,-2.4192,-2.3916,-2.3321,-2.3308,-2.3246,-2.3108,-2.3108,-2.3108,-2.3108,-2.3108,-2.3108,-1.4623,-1.5962,-1.7387,-1.7327,-1.7417,-1.7926,-1.9447,-1.9397,-1.9447,-2.1041,-2.1769,-2.197,-2.1455,-2.3163,-2.5339,-2.762,-2.8411,-2.9026,-2.9641,0.0,-3.1164,-3.1204,-3.2033,-3.2629,-3.2713,-3.2713,-3.3101,-3.4027,-3.4095,-3.4509,-3.5439,-3.5504,-3.5067,-3.4129,-3.4953,-3.4986,-3.4129,-3.3993,-3.3993,-3.4095,-3.2285,-3.1389,-3.1352,-3.0419,-2.9972,-2.9895,-2.9895,-2.9856,-2.9792,-2.9792,-2.9792,-2.9792,-2.9792,-2.9792,-2.9792,-2.9792,-2.9792,-2.9792,-2.9792,-2.9792,-2.9792,-2.9792,-2.9792,-2.9792,-2.9792,-2.9792,-2.9792,-2.9792,-2.9792,-2.9792,-2.9792,-2.9792,-2.9779,-2.9741,-2.9767,-2.9779,-2.9741,-2.9729,-2.9566,-2.9001,-2.8863,-2.8662,-2.8134,-2.8047,-2.7858,-2.7306,-2.7218,-2.7065,-2.6562,-2.6499,-2.6499,-2.6499,-2.6499,-2.6499,-2.6499,-2.6499,-2.6461,-2.6386,-2.5837,-2.531,-2.475,-2.4725,-2.4506,-2.3954,-2.3941,-2.3665,-2.3108,-2.3108,-2.3108,-2.3108,-2.3108,-2.3108,-1.4665,-1.6256,-1.7894,-1.7868,-1.8385,-1.9233,-2.0552,-2.0966,-2.1603,-2.3627,-2.3954,-2.3904,-2.4017,-2.5034,-2.6339,-2.7858,-2.8561,-2.9126,-2.9716,-3.0101,-3.0317,-3.0317,-3.0633,-3.1095,-3.1669,-3.1742,-3.2141,-3.3066,-3.3136,-3.329,-3.3685,-3.3685,-3.3533,-3.3136,-3.2925,-3.2925,-3.3136,-3.1974,-3.1696,-3.2249,-3.1536,-3.1217,-3.118,-3.0241,-2.9792,-2.9792,-2.9792,-2.9792,-2.9792,-2.9792,-2.9792,-2.9792,-2.9792,-2.9792,-2.9792,-2.9792,-2.9792,-2.9792,-2.9792,-2.9792,-2.9792,-2.9792,-2.9792,-2.9792,-2.9792,-2.9792,-2.9792,-2.9792,-2.9792,-2.9792,-2.9792,-2.9792,-2.9792,-2.9792,-2.9792,-2.9792,-2.9792,-2.9792,-2.9729,-2.9503,-2.9465,-2.9289,-2.8712,-2.8612,-2.8436,-2.7871,-2.7795,-2.772,-2.7507,-2.718,-2.7002,-2.7002,-2.67,-2.6499,-2.6499,-2.6499,-2.6499,-2.6499,-2.6285,-2.5921,-2.5322,-2.531,-2.5059,-2.4519,-2.4506,-2.4374,-2.4148,-2.381,-2.3665,-2.3665,-2.3271,-2.3108,-1.4698,-1.6146,-1.7706,-1.7878,-1.8734,-1.9987,-2.1631,-2.2447,-2.3464,-2.5674,-2.5699,-2.5498,-2.6038,-2.6487,-2.7065,-2.7959,-2.8725,-2.934,-2.9741,-2.9792,-2.9792,-2.9792,-2.9792,-3.0037,-3.0696,-3.0758,-3.1156,-3.2105,-3.2177,-3.2285,-3.2558,-3.2593,-3.2464,-3.2177,-3.1815,-3.1815,-3.2141,-3.0871,-3.0558,-3.1217,-3.0895,-3.0758,-3.0733,-3.0113,-2.9792,-2.9792,-2.9792,-2.9792,-2.9792,-2.9792,-2.9792,-2.9792,-2.9792,-2.9792,-2.9792,-2.9792,-2.9792,-2.9792,-2.9792,-2.9792,-2.9792,-2.9792,-2.9792,-2.9792,-2.9792,-2.9792,-2.9792,-2.9792,-2.9792,-2.9792,-2.9792,-2.9792,-2.9792,-2.9792,-2.9792,-2.9792,-2.9792,-2.9792,-2.9792,-2.9792,-2.9792,-2.9666,-2.9264,-2.9164,-2.8976,-2.8448,-2.836,-2.8298,-2.8134,-2.777,-2.7469,-2.7341,-2.6826,-2.6499,-2.6499,-2.6499,-2.6499,-2.6499,-2.6499,-2.6311,-2.5921,-2.5875,-2.5611,-2.5039,-2.5059,-2.4983,-2.4788,-2.4443,-2.4167,-2.3991,-2.359,-2.3283,-1.4698,-1.5601,-1.6644,-1.7171,-1.8167,-1.976,-2.2493,-2.3559,-2.4632,-2.6841,-2.6901,-2.6688,-2.7228,-2.7329,-2.7469,-2.8021,-2.9051,-2.9779,-2.9792,-2.9792,-2.9792,-2.9792,-2.9792,-2.9792,-2.9792,-2.9792,-3.0177,-3.1106,-3.118,-3.1609,-3.2522,-3.2558,-3.2141,-3.1217,-3.2105,-3.2141,-3.1217,-3.118,-3.118,-3.118,-3.0241,-2.9792,-2.9792,-2.9792,-2.9792,-2.9792,-2.9792,-2.9792,-2.9792,-2.9792,-2.9792,-2.9792,-2.9792,-2.9792,-2.9792,-2.9792,-2.9792,-2.9792,-2.9792,-2.9792,-2.9792,-2.9792,-2.9792,-2.9792,-2.9792,-2.9792,-2.9792,-2.9792,-2.9792,-2.9792,-2.9792,-2.9792,-2.9792,-2.9792,-2.9792,-2.9792,-2.9792,-2.9792,-2.9792,-2.9792,-2.9792,-2.9792,-2.9792,-2.9792,-2.9591,-2.8988,-2.89,-2.87,-2.8185,-2.8109,-2.7896,-2.7344,-2.6839,-2.6512,-2.6499,-2.6499,-2.6499,-2.6499,-2.6499,-2.6499,-2.6499,-2.6499,-2.6223,-2.5611,-2.5598,-2.536,-2.4813,-2.48,-2.4512,-2.4017,-2.4004,-2.3703,-1.532,-1.6757,-1.8307,-1.8462,-2.0192,-2.2205,-2.3464,-2.4167,-2.5209,-2.7406,-2.8047,-2.8134,-2.7896,-2.7858,-2.8047,-2.8599,-2.8925,-2.9327,-2.9729,-2.9792,-2.9792,-2.9792,-2.9792,-2.9792,-2.9792,-2.9792,-2.9934,-3.0177,-3.0216,-3.0355,-3.0608,-3.0633,-3.0495,-3.0203,-3.0508,-3.0495,-3.0203,-3.0216,-3.0216,-3.0216,-2.9934,-2.9792,-2.9792,-2.9792,-2.9792,-2.9792,-2.9792,-2.9792,-2.9792,-2.9792,-2.9792,-2.9792,-2.9792,-2.9792,-2.9792,-2.9792,-2.9792,-2.9792,-2.9792,-2.9792,-2.9792,-2.9792,-2.9792,-2.9792,-2.9792,-2.9792,-2.9792,-2.9792,-2.9792,-2.9792,-2.9792,-2.9792,-2.9792,-2.9792,-2.9792,-2.9792,-2.9792,-2.9792,-2.9792,-2.9792,-2.9792,-2.9792,-2.9792,-2.9792,-2.9729,-2.9566,-2.9528,-2.9327,-2.8725,-2.865,-2.8473,-2.7921,-2.772,-2.7457,-2.7102,-2.7065,-2.6901,-2.6512,-2.6499,-2.6499,-2.6499,-2.6499,-2.6411,-2.6248,-2.6235,-2.616,-2.5975,-2.5561,-2.5285,-2.5121,-2.4745,-2.4462,-1.6082,-1.7461,-1.8882,-1.976,-2.139,-2.3158,-2.4644,-2.5573,-2.6628,-2.8411,-2.885,-2.8787,-2.8499,-2.8436,-2.8499,-2.8838,-2.9076,-2.939,-2.9741,-2.9792,-2.9792,-2.9792,-2.9792,-2.9792,-2.9792,-2.9792,-2.9792,-2.9792,-2.9792,-2.9792,-2.9792,-2.9792,-2.9792,-2.9792,-2.9792,-2.9792,-2.9792,-2.9792,-2.9792,-2.9792,-2.9792,-2.9792,-2.9792,-2.9792,-2.9792,-2.9792,-2.9792,-2.9792,-2.9792,-2.9792,-2.9792,-2.9792,-2.9792,-2.9792,-2.9792,-2.9792,-2.9792,-2.9792,-2.9792,-2.9792,-2.9792,-2.9792,-2.9792,-2.9792,-2.9792,-2.9792,-2.9792,-2.9792,-2.9792,-2.9792,-2.9792,-2.9792,-2.9792,-2.9792,-2.9792,-2.9792,-2.9792,-2.9792,-2.9792,-2.9792,-2.9792,-2.9792,-2.9792,-2.9792,-2.9792,-2.9792,-2.9792,-2.9666,-2.9315,-2.9026,-2.8762,-2.8461,-2.8235,-2.7971,-2.7645,-2.7607,-2.7369,-2.6851,-2.6826,-2.6725,-2.6499,-2.6499,-2.6499,-2.6499,-2.6499,-2.6499,-2.6499,-2.6135,-2.5824,-2.5586,-2.5272,-2.4988,-1.6749,-1.7768,-1.8794,-2.0953,-2.2046,-2.3301,-2.5971,-2.7341,-2.8348,-2.9478,-2.934,-2.8963,-2.8963,-2.8963,-2.8963,-2.8963,-2.9453,-2.9792,-2.9792,-2.9792,-2.9792,-2.9792,-2.9792,-2.9792,-2.9792,-2.9792,-2.9792,-2.9792,-2.9792,-2.9792,-2.9792,-2.9792,-2.9792,-2.9792,-2.9792,-2.9792,-2.9792,-2.9792,-2.9792,-2.9792,-2.9792,-2.9792,-2.9792,-2.9792,-2.9792,-2.9792,-2.9792,-2.9792,-2.9792,-2.9792,-2.9792,-2.9792,-2.9792,-2.9792,-2.9792,-2.9792,-2.9792,-2.9792,-2.9792,-2.9792,-2.9792,-2.9792,-2.9792,-2.9792,-2.9792,-2.9792,-2.9792,-2.9792,-2.9792,-2.9792,-2.9792,-2.9792,-2.9792,-2.9792,-2.9792,-2.9792,-2.9792,-2.9792,-2.9792,-2.9792,-2.9792,-2.9792,-2.9792,-2.9792,-2.9792,-2.9792,-2.9792,-2.9792,-2.9792,-2.934,-2.8963,-2.8963,-2.8561,-2.8235,-2.8185,-2.8185,-2.7946,-2.7394,-2.7356,-2.714,-2.66,-2.6524,-2.6499,-2.6499,-2.6499,-2.6499,-2.6499,-2.6499,-2.6223,-2.5674,-2.5674,-2.5423,-1.6281,-1.7699,-1.9259,-2.1041,-2.3201,-2.5272,-2.6801,-2.7329,-2.777,-2.8888,-2.9377,-2.9603,-2.9603,-2.9603,-2.9603,-2.9603,-2.9716,-2.9792,-2.9792,-2.9792,-2.9792,-2.9792,-2.9792,-2.9792,-2.9792,-2.9792,-2.9792,-2.9792,-2.9792,-2.9792,-2.9792,-2.9792,-2.9792,-2.9792,-2.9792,-2.9792,-2.9792,-2.9792,-2.9792,0.0,-2.9792,-2.9792,-2.9792,-2.9792,-2.9792,-2.9792,-2.9792,-2.9792,-2.9792,-2.9792,-2.9792,-2.9792,-2.9792,-2.9792,-2.9792,-2.9792,-2.9792,-2.9792,-2.9792,-2.9792,-2.9792,-2.9792,-2.9792,-2.9792,-2.9792,-2.9792,-2.9792,-2.9792,-2.9792,-2.9792,-2.9792,-2.9792,-2.9792,-2.9792,-2.9792,-2.9792,-2.9792,-2.9792,-2.9792,-2.9792,-2.9792,-2.9792,-2.9792,-2.9792,-2.9792,-2.9792,-2.9792,-2.9792,-2.9792,-2.9679,-2.9603,-2.9603,-2.9503,-2.9252,-2.875,-2.8712,-2.8511,-2.7959,-2.7921,-2.7682,-2.7165,-2.6725,-2.6499,-2.6499,-2.6499,-2.6499,-2.6499,-2.6499,-2.6436,-2.6311,-2.6311,-2.6248,-1.6005,-1.769,-1.9621,-2.2385,-2.4356,-2.5824,-2.6725,-2.7128,-2.7444,-2.8021,-2.8599,-2.9063,-2.9327,-2.9377,-2.9465,-2.9741,-2.9792,-2.9792,-2.9792,-2.9792,-2.9792,-2.9792,-2.9792,-2.9792,-2.9792,-2.9792,-2.9792,-2.9792,-2.9792,-2.9792,-2.9792,-2.9792,-2.9792,-2.9792,-2.9792,-2.9792,-2.9792,-2.9792,-2.9792,-2.9792,-2.9792,-2.9792,-2.9792,-2.9792,-2.9792,-2.9792,-2.9792,-2.9792,-2.9792,-2.9792,-2.9792,-2.9792,-2.9792,-2.9792,-2.9792,-2.9792,-2.9792,-2.9792,-2.9792,-2.9792,-2.9792,-2.9792,-2.9792,-2.9792,-2.9792,-2.9792,-2.9792,-2.9792,-2.9792,-2.9792,-2.9792,-2.9792,-2.9792,-2.9792,-2.9792,-2.9792,-2.9792,-2.9792,-2.9792,-2.9792,-2.9792,-2.9792,-2.9792,-2.9792,-2.9792,-2.9792,-2.9792,-2.9792,-2.9792,-2.9792,-2.9792,-2.9792,-2.9792,-2.9666,-2.9365,-2.934,-2.9101,-2.8536,-2.8461,-2.8247,-2.7708,-2.7178,-2.6763,-2.6499,-2.6499,-2.6499,-2.6499,-2.6499,-2.6499,-2.6499,-2.6499,-2.6499,-1.5393,-1.7516,-1.9982,-2.3723,-2.5146,-2.5749,-2.6361,-2.6851,-2.7178,-2.7178,-2.7657,-2.8247,-2.8662,-2.875,-2.8976,-2.9553,-2.9641,-2.9679,-2.9779,-2.9792,-2.9792,-2.9792,-2.9792,-2.9792,-2.9792,-2.9792,-2.9792,-2.9792,-2.9792,-2.9792,-2.9792,-2.9792,-2.9792,-2.9792,-2.9792,-2.9792,-2.9792,-2.9792,-2.9792,-2.9792,-2.9792,-2.9792,-2.9792,-2.9792,-2.9792,-2.9792,-2.9792,-2.9792,-2.9792,-2.9792,-2.9792,-2.9792,-2.9792,-2.9792,-2.9792,-2.9792,-2.9792,-2.9792,-2.9792,-2.9792,-2.9792,-2.9792,-2.9792,-2.9792,-2.9792,-2.9792,-2.9792,-2.9792,-2.9792,-2.9792,-2.9792,-2.9792,-2.9792,-2.9792,-2.9792,-2.9792,-2.9792,-2.9792,-2.9792,-2.9792,-2.9792,-2.9792,-2.9792,-2.9792,-2.9792,-2.9792,-2.9792,-2.9792,-2.9792,-2.9792,-2.9792,-2.9792,-2.9792,-2.9792,-2.9792,-2.9792,-2.9591,-2.9076,-2.9076,-2.8825,-2.8273,-2.7808,-2.7306,-2.6788,-2.6587,-2.6499,-2.6499,-2.6499,-2.6499,-2.6499,-2.6499,-2.6499,-1.3509,-1.669,-2.0458,-2.3379,-2.4858,-2.5749,-2.6361,-2.6549,-2.66,-2.66,-2.7394,-2.8134,-2.8197,-2.821,-2.8398,-2.8913,-2.9001,-2.9176,-2.9729,-2.9792,-2.9792,-2.9792,-2.9792,-2.9792,-2.9792,-2.9792,-2.9792,-2.9792,-2.9792,-2.9792,-2.9792,-2.9792,-2.9792,-2.9792,-2.9792,-2.9792,-2.9792,-2.9792,-2.9792,-2.9792,-2.9792,-2.9792,-2.9792,-2.9792,-2.9792,-2.9792,-2.9792,-2.9792,-2.9792,-2.9792,-2.9792,-2.9792,-2.9792,-2.9792,-2.9792,-2.9792,-2.9792,-2.9792,-2.9792,-2.9792,-2.9792,-2.9792,-2.9792,-2.9792,-2.9792,-2.9792,-2.9792,-2.9792,-2.9792,-2.9792,-2.9792,-2.9792,-2.9792,-2.9792,-2.9792,-2.9792,-2.9792,-2.9792,-2.9792,-2.9792,-2.9792,-2.9792,-2.9792,-2.9792,-2.9792,-2.9792,-2.9792,-2.9792,-2.9792,-2.9792,-2.9792,-2.9792,-2.9792,-2.9792,-2.9792,-2.9792,-2.9767,-2.9679,-2.9679,-2.9415,-2.88,-2.8712,-2.8411,-2.7896,-2.6977,-2.6499,-2.6499,-2.6499,-2.6499,-2.6499,-2.6499,-2.6499,-1.3949,-1.6854,-1.9915,-2.2293,-2.3542,-2.4519,-2.5699,-2.6009,-2.6097,-2.6424,-2.6889,-2.7316,-2.7595,-2.7645,-2.7821,-2.8373,-2.8461,-2.8549,-2.8812,-2.9114,-2.9315,-2.9315,-2.9591,-2.9792,-2.9792,-2.9792,-2.9792,-2.9792,-2.9792,-2.9792,-2.9792,-2.9792,-2.9792,-2.9792,-2.9792,-2.9792,-2.9792,-2.9792,-2.9792,-2.9792,-2.9792,-2.9792,-2.9792,-2.9792,-2.9792,-2.9792,-2.9792,-2.9792,-2.9792,-2.9792,-2.9792,-2.9792,-2.9792,-2.9792,-2.9792,-2.9792,-2.9792,-2.9792,-2.9792,-2.9792,-2.9792,-2.9792,-2.9792,-2.9792,-2.9792,-2.9792,-2.9792,-2.9792,-2.9792,-2.9792,-2.9792,-2.9792,-2.9792,-2.9792,-2.9792,-2.9792,-2.9792,-2.9792,-2.9792,-2.9792,-2.9792,-2.9792,-2.9792,-2.9792,-2.9792,-2.9792,-2.9792,-2.9792,-2.9792,-2.9792,-2.9792,-2.9792,-2.9792,-2.9792,-2.9792,-2.9792,-2.9792,-2.9792,-2.9792,-2.9679,-2.9428,-2.9063,-2.8775,-2.8537,-2.7482,-2.6952,-2.6952,-2.665,-2.6499,-2.6499,-2.6499,-2.6499,-1.4258,-1.6322,-1.8228,-2.0553,-2.1735,-2.2801,-2.4528,-2.4975,-2.5303,-2.6079,-2.6273,-2.6449,-2.7002,-2.7115,-2.7256,-2.7808,-2.7896,-2.7946,-2.8084,-2.8461,-2.8687,-2.8687,-2.9227,-2.9578,-2.9578,-2.9704,-2.9792,-2.9792,-2.9654,-2.9578,-2.9578,-2.9578,-2.9578,-2.9578,-2.9716,-2.9792,-2.9792,-2.9792,-2.9792,-2.9792,-2.9792,-2.9792,-2.9792,-2.9792,-2.9792,-2.9792,-2.9792,-2.9792,-2.9792,-2.9792,-2.9792,-2.9792,-2.9792,-2.9792,-2.9792,-2.9792,-2.9792,-2.9792,-2.9792,-2.9792,-2.9792,-2.9792,-2.9792,-2.9792,-2.9792,-2.9792,-2.9792,-2.9792,-2.9792,-2.9792,-2.9792,-2.9792,-2.9792,-2.9792,-2.9792,-2.9792,-2.9792,-2.9792,-2.9792,-2.9792,-2.9792,-2.9792,-2.9792,-2.9792,-2.9792,-2.9792,-2.9792,-2.9792,-2.9792,-2.9792,-2.9792,-2.9792,-2.9792,-2.9792,-2.9792,-2.9792,-2.9792,-2.9792,-2.9792,-2.9792,-2.9792,-2.9377,-2.9151,-2.9151,-2.8197,-2.7632,-2.7494,-2.6964,-2.67,-2.67,-2.6562,-2.6499,-1.3394,-1.4215,-1.5064,-1.804,-1.9513,-2.0742,-2.2599,-2.3343,-2.3993,-2.5357,-2.5636,-2.5824,-2.6436,-2.6537,-2.6713,-2.7231,-2.7318,-2.7507,-2.8034,-2.8134,-2.8147,-2.8147,-2.8637,-2.8938,-2.8938,-2.9465,-2.9792,-2.9792,-2.9289,-2.8938,-2.8938,-2.8938,-2.8938,-2.8938,-2.9503,-2.9792,-2.9792,-2.9792,-2.9792,-2.9792,-2.9792,-2.9792,-2.9792,-2.9792,-2.9792,-2.9792,-2.9792,-2.9792,-2.9792,-2.9792,-2.9792,-2.9792,-2.9792,-2.9792,-2.9792,-2.9792,-2.9792,-2.9792,-2.9792,-2.9792,-2.9792,-2.9792,-2.9792,-2.9792,-2.9792,-2.9792,-2.9792,-2.9792,-2.9792,-2.9792,-2.9792,-2.9792,-2.9792,-2.9792,-2.9792,-2.9792,-2.9792,-2.9792,-2.9792,-2.9792,-2.9792,-2.9792,-2.9792,-2.9792,-2.9792,-2.9792,-2.9792,-2.9792,-2.9792,-2.9792,-2.9792,-2.9792,-2.9792,-2.9792,-2.9792,-2.9792,-2.9792,-2.9792,-2.9792,-2.9792,-2.9792,-2.9767,-2.9741,-2.9741,-2.9151,-2.8586,-2.8059,-2.7507,-2.7278,-2.7266,-2.6738,-2.6499,-1.2224,-1.3432,-1.4743,-1.6203,-1.7606,-1.9005,-2.0401,-2.167,-2.2803,-2.3689,-2.4528,-2.5259,-2.5799,-2.6248,-2.6562,-2.6763,-2.6788,-2.6851,-2.7052,-2.7356,-2.7582,-2.7582,-2.8059,-2.8398,-2.8398,-2.8586,-2.8712,-2.8712,-2.8511,-2.8398,-2.8398,-2.8398,-2.8398,-2.8398,-2.895,-2.9415,-2.9792,-2.9792,-2.9792,-2.9792,-2.9792,-2.9792,-2.9792,-2.9792,-2.9792,-2.9792,-2.9792,-2.9792,-2.9792,-2.9792,-2.9792,-2.9792,-2.9792,-2.9792,-2.9792,-2.9792,-2.9792,-2.9792,-2.9792,-2.9792,-2.9792,-2.9792,-2.9792,-2.9792,-2.9792,-2.9792,-2.9792,-2.9792,-2.9792,-2.9792,-2.9792,-2.9792,-2.9792,-2.9792,-2.9792,-2.9792,-2.9792,-2.9792,-2.9792,-2.9792,-2.9792,-2.9792,-2.9792,-2.9792,-2.9792,-2.9792,-2.9792,-2.9792,-2.9792,-2.9792,-2.9792,-2.9792,-2.9792,-2.9792,-2.9792,-2.9792,-2.9792,-2.9792,-2.9792,-2.9792,-2.9792,-2.9792,-2.9792,-2.9792,-2.9591,-2.9202,-2.8599,-2.8084,-2.7632,-2.7316,-2.7115,-2.6839,-1.1359,-1.2468,-1.3789,-1.4582,-1.5568,-1.6792,-1.8407,-1.967,-2.0788,-2.1945,-2.3071,-2.4072,-2.4777,-2.5469,-2.6059,-2.6436,-2.6499,-2.6499,-2.6499,-2.6813,-2.704,-2.704,-2.7494,-2.7821,-2.7821,-2.7996,-2.8109,-2.8109,-2.7934,0.0,-2.7821,-2.7821,-2.7908,-2.8097,-2.8599,-2.9076,-2.9503,-2.9691,-2.9792,-2.9792,-2.9792,-2.9792,-2.9792,-2.9792,-2.9792,-2.9792,-2.9792,-2.9792,-2.9792,-2.9792,-2.9792,-2.9792,-2.9792,-2.9792,-2.9792,-2.9792,-2.9792,-2.9792,-2.9792,-2.9792,-2.9792,-2.9792,-2.9792,-2.9792,-2.9792,-2.9792,-2.9792,-2.9792,-2.9792,-2.9792,-2.9792,-2.9792,-2.9792,-2.9792,-2.9792,-2.9792,-2.9792,-2.9792,-2.9792,-2.9792,-2.9792,-2.9792,-2.9792,-2.9792,-2.9792,-2.9792,-2.9792,-2.9792,-2.9792,-2.9792,-2.9792,-2.9792,-2.9792,-2.9792,-2.9792,-2.9792,-2.9792,-2.9792,-2.9792,-2.9792,-2.9792,-2.9792,-2.9792,-2.9792,-2.9792,-2.9603,-2.9214,-2.8649,-2.8197,-2.7833,-2.7645,-2.7268,0.0,0.0,0.0,-1.3145,-1.3467,-1.4152,-1.6688,-1.7313,-1.7994,-2.0252,-2.1369,-2.2265,-2.3263,-2.4161,-2.5159,-2.6226,-2.6461,-2.6474,-2.6499,-2.6499,-2.6499,-2.6499,-2.6964,-2.7291,-2.7291,-2.7745,-2.8059,-2.8059,-2.7557,-2.7291,-2.7291,-2.7291,-2.7507,-2.8059,-2.8562,-2.8863,-2.8888,-2.949,-2.9779,-2.9792,-2.9792,-2.9792,-2.9792,-2.9792,-2.9792,-2.9792,-2.9792,-2.9792,-2.9792,-2.9792,-2.9792,-2.9792,-2.9792,-2.9792,-2.9792,-2.9792,-2.9792,-2.9792,-2.9792,-2.9792,-2.9792,-2.9792,-2.9792,-2.9792,-2.9792,-2.9792,-2.9792,-2.9792,-2.9792,-2.9792,-2.9792,-2.9792,-2.9792,-2.9792,-2.9792,-2.9792,-2.9792,-2.9792,-2.9792,-2.9792,-2.9792,-2.9792,-2.9792,-2.9792,-2.9792,-2.9792,-2.9792,-2.9792,-2.9792,-2.9792,-2.9792,-2.9792,-2.9792,-2.9792,-2.9792,-2.9792,-2.9792,-2.9792,-2.9792,-2.9792,-2.9792,-2.9792,-2.9792,-2.9792,-2.9792,-2.9792,-2.9792,-2.9189,-2.8913,-2.8875,-2.836,-2.7821,-1.1486,0.0,0.0,0.0,0.0,0.0,0.0,0.0,-1.645,-1.8266,-1.9895,-2.126,-2.2178,-2.3352,-2.4252,-2.4317,-2.5193,-2.6021,-2.6436,-2.6499,-2.6499,-2.6499,-2.6625,-2.6725,-2.6725,-2.6864,-2.6952,0.0,-2.6813,-2.6725,-2.6725,-2.6725,-2.6977,-2.7494,-2.7657,-2.8122,-2.8888,-2.9089,-2.9377,-2.9792,-2.9792,-2.9792,-2.9792,-2.9792,-2.9792,-2.9792,-2.9792,-2.9792,-2.9792,-2.9792,-2.9792,-2.9792,-2.9792,-2.9792,-2.9792,-2.9792,-2.9792,-2.9792,-2.9792,-2.9792,-2.9792,-2.9792,-2.9792,-2.9792,-2.9792,-2.9792,-2.9792,-2.9792,-2.9792,-2.9792,-2.9792,-2.9792,-2.9792,-2.9792,-2.9792,-2.9792,-2.9792,-2.9792,-2.9792,-2.9792,-2.9792,-2.9792,-2.9792,-2.9792,-2.9792,-2.9792,-2.9792,-2.9792,-2.9792,-2.9792,-2.9792,-2.9792,-2.9792,-2.9792,-2.9792,-2.9792,-2.9792,-2.9792,-2.9792,-2.9792,-2.9792,-2.9792,-2.9792,-2.9792,-2.9792,-2.9792,-2.9792,-2.9628,-2.934,-2.8875,-2.836,-2.8021,-1.1751,-1.2093,-1.2529,-1.222,0.0,0.0,-1.3281,-1.4043,-1.4977,0.0,-1.7846,-1.9177,-1.989,-2.1136,-2.2123,-2.2339,-2.3063,-2.4176,-2.5882,-2.6135,-2.6223,-2.6461,-2.6499,-2.6499,-2.6499,-2.6499,-2.6499,-2.6499,-2.6499,-2.6499,-2.6499,-2.6499,-2.6637,-2.6964,-2.719,-2.7595,-2.8235,-2.8662,-2.9063,-2.944,-2.9679,-2.9792,-2.9792,-2.9792,-2.9792,-2.9792,-2.9792,-2.9792,-2.9792,-2.9792,-2.9792,-2.9792,-2.9792,-2.9792,-2.9792,-2.9792,-2.9792,-2.9792,-2.9792,-2.9792,-2.9792,-2.9792,-2.9792,-2.9792,-2.9792,-2.9792,-2.9792,-2.9792,-2.9792,-2.9792,-2.9792,-2.9792,-2.9792,-2.9792,-2.9792,-2.9792,-2.9792,-2.9792,-2.9792,-2.9792,-2.9792,-2.9792,-2.9792,-2.9792,-2.9792,-2.9792,-2.9792,-2.9792,-2.9792,-2.9792,-2.9792,-2.9792,-2.9792,-2.9792,-2.9792,-2.9792,-2.9792,-2.9792,-2.9792,-2.9792,-2.9792,-2.9792,-2.9792,-2.9792,-2.9792,-2.9792,-2.9792,-2.9792,-2.9616,-2.9289,-2.8963,-2.8674,-1.2083,-1.2139,-1.2486,-1.2812,-1.2656,0.0,-1.3665,-1.3685,-1.3747,0.0,-1.5735,-1.6694,-1.7143,-1.8298,-1.9437,-2.0236,-2.0504,-2.1748,-2.4917,-2.5365,-2.5599,-2.6248,-2.6311,-2.6336,-2.6386,-2.6399,-2.6424,-2.6487,-2.6499,-2.6499,-2.6499,-2.6499,-2.6499,-2.6499,-2.6964,-2.7253,-2.7281,-2.831,-2.8838,-2.89,-2.9515,-2.9792,-2.9792,-2.9792,-2.9792,-2.9792,-2.9792,-2.9792,-2.9792,-2.9792,-2.9792,-2.9792,-2.9792,-2.9792,-2.9792,-2.9792,-2.9792,-2.9792,-2.9792,-2.9792,-2.9792,-2.9792,-2.9792,-2.9792,-2.9792,-2.9792,-2.9792,-2.9792,-2.9792,-2.9792,-2.9792,-2.9792,-2.9792,-2.9792,-2.9792,-2.9792,-2.9792,-2.9792,-2.9792,-2.9792,-2.9792,-2.9792,-2.9792,-2.9792,-2.9792,-2.9792,-2.9792,-2.9792,-2.9792,-2.9792,-2.9792,-2.9792,-2.9792,-2.9792,-2.9792,-2.9792,-2.9792,-2.9792,-2.9792,-2.9792,-2.9792,-2.9792,-2.9792,-2.9792,-2.9792,-2.9792,-2.9792,-2.9792,-2.9792,-2.9792,-2.9792,-2.9515,-1.3656,-1.3675,-1.3597,0.0,0.0,0.0,-1.2759,-1.3042,-1.3724,0.0,-1.5168,-1.5765,-1.6124,-1.7302,-1.8092,-1.7572,-1.8681,-2.0603,-2.3502,-2.3923,-2.4216,-2.5023,-2.5146,-2.531,-2.5724,-2.5774,-2.5996,-2.6461,-2.6499,-2.6499,-2.6499,-2.6499,-2.6499,-2.6499,-2.66,-2.6864,-2.7316,-2.7934,-2.8449,-2.89,-2.9515,-2.9792,-2.9792,-2.9792,-2.9792,-2.9792,-2.9792,-2.9792,-2.9792,-2.9792,-2.9792,-2.9792,-2.9792,-2.9792,-2.9792,-2.9792,-2.9792,-2.9792,-2.9792,-2.9792,-2.9792,-2.9792,-2.9792,-2.9792,-2.9792,-2.9792,-2.9792,-2.9792,-2.9792,-2.9792,-2.9792,-2.9792,-2.9792,-2.9792,-2.9792,-2.9792,-2.9792,-2.9792,-2.9792,-2.9792,-2.9792,-2.9792,-2.9792,-2.9792,-2.9792,-2.9792,-2.9792,-2.9792,-2.9792,-2.9792,-2.9792,-2.9792,-2.9792,-2.9792,-2.9792,-2.9792,-2.9792,-2.9792,-2.9792,-2.9792,-2.9792,-2.9792,-2.9792,-2.9792,-2.9792,-2.9792,-2.9792,-2.9792,-2.9792,-2.9792,-2.9792,-2.9729,0.0,0.0,0.0,-1.3887,0.0,0.0,0.0,-1.3193,-1.3377,-1.3942,-1.4267,-1.4578,-1.4938,-1.5571,-1.5991,-1.58,-1.6655,-1.7984,-1.9859,-2.1829,-2.3522,-2.4653,-2.4788,-2.4888,-2.5184,-2.5209,-2.5435,-2.6021,-2.6059,-2.6185,-2.6474,-2.6499,-2.6499,-2.6499,-2.6499,-2.6625,-2.6901,-2.7695,-2.8247,-2.8524,-2.9377,-2.9792,-2.9792,-2.9792,-2.9792,-2.9792,-2.9792,-2.9792,-2.9792,-2.9792,-2.9792,-2.9792,-2.9792,-2.9792,-2.9792,-2.9792,-2.9792,-2.9792,-2.9792,-2.9792,-2.9792,-2.9792,-2.9792,-2.9792,-2.9792,-2.9792,-2.9792,-2.9792,-2.9792,-2.9792,-2.9792,-2.9792,-2.9792,-2.9792,-2.9792,-2.9792,-2.9792,-2.9792,-2.9792,-2.9792,-2.9792,-2.9792,-2.9792,-2.9792,-2.9792,-2.9792,-2.9792,-2.9792,-2.9792,-2.9792,-2.9792,-2.9792,-2.9792,-2.9792,-2.9792,-2.9792,-2.9792,-2.9792,-2.9792,-2.9792,-2.9792,-2.9792,-2.9792,-2.9792,-2.9792,-2.9792,-2.9792,-2.9792,-2.9792,-2.9792,-2.9792,-2.9792,0.0,0.0,0.0,0.0,0.0,-1.4065,0.0,0.0,0.0,-1.335,-1.3389,0.0,0.0,0.0,0.0,0.0,0.0,0.0,0.0,-1.9384,0.0,-2.3343,-2.3652,-2.3781,-2.388,-2.4099,-2.4596,-2.5398,-2.5247,-2.546,-2.6285,-2.6336,-2.6386,-2.6499,-2.6499,-2.6499,-2.6499,-2.7557,-2.8109,-2.8122,-2.9252,-2.9792,-2.9792,-2.9792,-2.9792,-2.9792,-2.9792,-2.9792,-2.9792,-2.9792,-2.9792,-2.9792,-2.9792,-2.9792,-2.9792,-2.9792,-2.9792,-2.9792,-2.9792,-2.9792,-2.9792,-2.9792,-2.9792,-2.9792,-2.9792,-2.9792,-2.9792,-2.9792,-2.9792,-2.9792,-2.9792,-2.9792,-2.9792,-2.9792,-2.9792,-2.9792,-2.9792,-2.9792,-2.9792,-2.9792,-2.9792,-2.9792,-2.9792,-2.9792,-2.9792,-2.9792,-2.9792,-2.9792,-2.9792,-2.9792,-2.9792,-2.9792,-2.9792,-2.9792,-2.9792,-2.9792,-2.9792,-2.9792,-2.9792,-2.9792,-2.9792,-2.9792,-2.9792,-2.9792,-2.9792,-2.9792,-2.9792,-2.9792,-2.9792,-2.9792,-2.9792,-2.9792,0.0,0.0,0.0,0.0,-1.5576,0.0,0.0,0.0,-1.3763,-1.3096,0.0,0.0,0.0,0.0,0.0,0.0,0.0,0.0,-1.5431,-1.6611,-1.772,-1.8658,-1.9448,-2.0113,-2.06,-2.1615,-2.296,-2.4768,-2.3948,-2.4048,-2.5611,-2.5686,-2.5971,-2.6474,-2.6499,-2.6499,-2.6499,-2.7557,-2.8109,-2.8122,-2.9252,-2.9792,-2.9792,-2.9792,-2.9792,-2.9792,-2.9792,-2.9792,-2.9792,-2.9792,-2.9792,-2.9792,-2.9792,-2.9792,-2.9792,-2.9792,-2.9792,-2.9792,-2.9792,-2.9792,-2.9792,-2.9792,-2.9792,-2.9792,-2.9792,-2.9792,-2.9792,-2.9792,-2.9792,-2.9792,-2.9792,-2.9792,-2.9792,-2.9792,-2.9792,-2.9792,-2.9792,-2.9792,-2.9792,-2.9792,-2.9792,-2.9792,-2.9792,-2.9792,-2.9792,-2.9792,-2.9792,-2.9792,-2.9792,-2.9792,-2.9792,-2.9792,-2.9792,-2.9792,-2.9792,-2.9792,-2.9792,-2.9792,-2.9792,-2.9792,-2.9792,-2.9792,-2.9792,-2.9792,-2.9792,-2.9792,-2.9792,-2.9792,-2.9792,-2.9792,-2.9792,-2.9792,0.0,0.0,0.0,0.0,0.0,0.0,-1.3965,0.0,-1.3379,0.0,0.0,0.0,0.0,0.0,0.0,0.0,-1.3379,0.0,0.0,0.0,-1.5626,0.0,0.0,0.0,-1.9174,-2.0065,-2.1027,-2.2004,-2.2092,-2.2684,-2.3965,-2.5037,-2.5711,-2.5984,-2.6323,-2.6499,-2.6499,-2.7557,-2.8109,-2.8122,-2.9252,-2.9792,-2.9792,-2.9792,-2.9792,-2.9792,-2.9792,-2.9792,-2.9792,-2.9792,-2.9792,-2.9792,-2.9792,-2.9792,-2.9792,-2.9792,-2.9792,-2.9792,-2.9792,-2.9792,-2.9792,-2.9792,-2.9792,-2.9792,-2.9792,-2.9792,-2.9792,-2.9792,-2.9792,-2.9792,-2.9792,-2.9792,-2.9792,-2.9792,-2.9792,-2.9792,-2.9792,-2.9792,-2.9792,-2.9792,-2.9792,-2.9792,-2.9792,-2.9792,-2.9792,-2.9792,-2.9792,-2.9792,-2.9792,-2.9792,-2.9792,-2.9792,-2.9792,-2.9792,-2.9792,-2.9792,-2.9792,-2.9792,-2.9792,-2.9792,-2.9792,-2.9792,-2.9792,-2.9792,-2.9792,-2.9792,-2.9792,-2.9792,-2.9792,-2.9792,-2.9792,-2.9792,-1.734,0.0,0.0,0.0,0.0,0.0,0.0,0.0,0.0,0.0,0.0,0.0,0.0,0.0,0.0,0.0,0.0,-1.3252,0.0,-1.2939,0.0,0.0,0.0,0.0,0.0,-1.848,-1.9136,-2.0182,-2.0553,-2.138,-2.2889,-2.4362,-2.5297,-2.5586,-2.6197,-2.6499,-2.6499,-2.7406,-2.7959,-2.8109,-2.9089,-2.9641,-2.9792,-2.9792,-2.9792,-2.9792,-2.9792,-2.9792,-2.9792,-2.9792,-2.9792,-2.9792,-2.9792,-2.9792,-2.9792,-2.9792,-2.9792,-2.9792,-2.9792,-2.9792,-2.9792,-2.9792,-2.9792,-2.9792,-2.9792,-2.9792,-2.9792,-2.9792,-2.9792,-2.9792,-2.9792,-2.9792,-2.9792,-2.9792,-2.9792,-2.9792,-2.9792,-2.9792,-2.9792,-2.9792,-2.9792,-2.9792,-2.9792,-2.9792,-2.9792,-2.9792,-2.9792,-2.9792,-2.9792,-2.9792,-2.9792,-2.9792,-2.9792,-2.9792,-2.9792,-2.9792,-2.9792,-2.9792,-2.9792,-2.9792,-2.9792,-2.9792,-2.9792,-2.9792,-2.9792,-2.9792,-2.9792,-2.9792,-2.9792,-2.9792,-2.9792,-2.9792,0.0,0.0,0.0,-1.6064,0.0,0.0,0.0,0.0,-1.4492,0.0,0.0,0.0,0.0,0.0,0.0,0.0,0.0,0.0,0.0,0.0,0.0,0.0,0.0,0.0,0.0,-1.6498,-1.7396,0.0,-1.9672,-2.026,-2.2952,-2.3697,-2.4531,-2.5561,-2.6197,-2.6499,-2.6499,-2.7065,-2.7582,-2.8109,-2.865,-2.9252,-2.9792,-2.9792,-2.9792,-2.9792,-2.9792,-2.9792,-2.9792,-2.9792,-2.9792,-2.9792,-2.9792,-2.9792,-2.9792,-2.9792,-2.9792,-2.9792,-2.9792,-2.9792,-2.9792,-2.9792,-2.9792,-2.9792,-2.9792,-2.9792,-2.9792,-2.9792,-2.9792,-2.9792,-2.9792,-2.9792,-2.9792,-2.9792,-2.9792,-2.9792,-2.9792,-2.9792,-2.9792,-2.9792,-2.9792,-2.9792,-2.9792,-2.9792,-2.9792,-2.9792,-2.9792,-2.9792,-2.9792,-2.9792,-2.9792,-2.9792,-2.9792,-2.9792,-2.9792,-2.9792,-2.9792,-2.9792,-2.9792,-2.9792,-2.9792,-2.9792,-2.9792,-2.9792,-2.9792,-2.9792,-2.9792,-2.9792,-2.9792,-2.9792,-2.9792,-2.9792,0.0,0.0,-1.9686,-1.7637,0.0,0.0,0.0,0.0,0.0,0.0,0.0,0.0,0.0,0.0,0.0,0.0,0.0,0.0,0.0,0.0,0.0,0.0,0.0,0.0,0.0,0.0,0.0,0.0,-1.8297,0.0,-2.1217,-2.237,-2.3329,-2.4074,-2.4342,-2.4838,-2.5511,-2.6372,-2.725,-2.8109,-2.9051,-2.9603,-2.9792,-2.9792,-2.9792,-2.9792,-2.9792,-2.9792,-2.9792,-2.9792,-2.9792,-2.9792,-2.9792,-2.9792,-2.9792,-2.9792,-2.9792,-2.9792,-2.9792,-2.9792,-2.9792,-2.9792,-2.9792,-2.9792,-2.9792,-2.9792,-2.9792,-2.9792,-2.9792,-2.9792,-2.9792,-2.9792,-2.9792,-2.9792,-2.9792,-2.9792,-2.9792,-2.9792,-2.9792,-2.9792,-2.9792,-2.9792,-2.9792,-2.9792,-2.9792,-2.9792,-2.9792,-2.9792,-2.9792,-2.9792,-2.9792,-2.9792,-2.9792,-2.9792,-2.9792,-2.9792,-2.9792,-2.9792,-2.9792,-2.9792,-2.9792,-2.9792,-2.9792,-2.9792,-2.9792,-2.9792,-2.9792,-2.9792,-2.9792,-2.9792,-2.9792,-2.9792,-2.0352,-2.0586,0.0,-1.8857,-1.8262,0.0,-1.5312,0.0,-1.5644,0.0,0.0,0.0,0.0,0.0,0.0,0.0,0.0,0.0,0.0,-1.2054,0.0,0.0,0.0,0.0,0.0,0.0,-1.5463,-1.658,-1.6847,0.0,0.0,-2.0799,-2.1888,-2.2618,-2.307,-2.3684,-2.4445,-2.5308,-2.6348,-2.7558,-2.847,-2.9218,-2.9792,-2.9792,-2.9792,-2.9792,-2.9792,-2.9792,-2.9792,-2.9792,-2.9792,-2.9792,-2.9792,-2.9792,-2.9792,-2.9792,-2.9792,-2.9792,-2.9792,-2.9792,-2.9792,-2.9792,-2.9792,-2.9792,-2.9792,-2.9792,-2.9792,-2.9792,-2.9792,-2.9792,-2.9792,-2.9792,-2.9792,-2.9792,-2.9792,-2.9792,-2.9792,-2.9792,-2.9792,-2.9792,-2.9792,-2.9792,-2.9792,-2.9792,-2.9792,-2.9792,-2.9792,-2.9792,-2.9792,-2.9792,-2.9792,-2.9792,-2.9792,-2.9792,-2.9792,-2.9792,-2.9792,-2.9792,-2.9792,-2.9792,-2.9792,-2.9792,-2.9792,-2.9792,-2.9792,-2.9792,-2.9792,-2.9792,-2.9792,-2.9792,-2.9792,-2.9792]},{"header":{"parameterUnit":"m.s-1","parameterCategory":1,"la1":30.6,"la2":29.2853,"lo1":-89.7004,"lo2":-87.6739,"dy":0.0162,"dx":0.0183,"nx":112,"ny":82,"refTime":"2025-04-24T06:00:00:Z","depth":0,"parameterNumber":3,"parameterNumberName":"V-component_of_WINDS"},"data":[0.0,0.0,0.0,0.0,0.0,0.0,0.0,0.0,0.0,0.0,0.0,0.0,0.0,0.0,0.0,0.0,0.0,0.0,0.0,0.0,0.0,0.0,0.0,0.0,0.0,0.0,0.0,0.0,0.0,0.0,0.0,0.0,0.0,0.0,0.0,0.0,0.0,0.0,0.0,0.0,0.0,0.0,0.0,0.0,0.0,0.0,0.0,0.0,0.0,0.0,0.0,0.0,0.0,0.0,0.0,0.0,0.0,0.0,0.0,0.0,0.0,0.0,0.0,0.0,0.0,0.0,0.0,0.0,0.0,0.0,0.0,0.0,0.0,0.0,0.0,0.0,0.0,0.0,0.0,0.0,0.0,0.0,0.0,0.0,0.0,0.0,0.0,0.0,0.0,0.0,0.7502,0.9688,1.0406,1.0567,1.0132,0.9671,0.9214,0.8769,0.0,0.0,0.0,0.0,0.0,0.0,0.0,0.0,0.0,0.0,0.0,0.0,0.0,0.0,0.0,0.0,0.0,0.0,0.0,0.0,0.0,0.0,0.0,0.0,0.0,0.0,0.0,0.0,0.0,0.0,0.0,0.0,0.0,0.0,0.0,0.0,0.0,0.0,0.0,0.0,0.0,0.0,0.0,0.0,0.0,0.0,0.0,0.0,0.0,0.0,0.0,0.0,0.0,0.0,0.0,0.0,0.0,0.0,0.0,0.0,0.0,0.0,0.0,0.0,0.0,0.0,0.0,0.0,0.0,0.0,0.0,0.0,0.0,0.0,0.0,0.0,0.0,0.0,0.0,0.0,0.0,0.0,0.0,0.0,0.0,0.0,0.0,0.0,0.0,0.0,0.0,0.0,0.0,0.0,0.0,0.0,0.0,0.0,0.0,0.0,0.0,0.0,0.0,0.0,0.7777,0.9772,1.027,1.0352,1.0114,0.9671,0.927,0.8966,0.0,0.0,0.0,0.0,0.0,0.0,0.0,0.0,0.0,0.0,0.0,0.0,0.0,0.0,0.0,0.0,0.0,0.0,0.0,0.0,0.0,0.0,0.0,0.0,0.0,0.0,0.0,0.0,0.0,0.0,0.0,0.0,0.0,0.0,0.0,0.0,0.0,0.0,0.0,0.0,0.0,0.0,0.0,0.0,0.0,0.0,0.0,0.0,0.0,0.0,0.0,0.0,0.0,0.0,0.0,0.0,0.0,0.0,0.0,0.0,0.0,0.0,0.0,0.0,0.0,0.0,0.0,0.0,0.0,0.0,0.0,0.0,0.0,0.0,0.0,0.0,0.0,0.0,0.0,0.0,0.0,0.0,0.0,0.0,0.0,0.0,0.0,0.0,0.0,0.0,0.0,0.0,0.0,0.0,0.0,0.0,0.0,0.0,0.0,0.0,0.0,0.0,0.0,0.8085,0.9045,1.015,1.0809,1.0841,1.0058,0.9967,0.9572,0.8724,0.755,0.0,0.0,0.0,0.0,0.0,0.0,0.0,0.0,0.0,0.0,0.0,0.0,0.0,0.0,0.0,0.0,0.0,0.0,0.0,0.0,0.0,0.0,0.0,0.0,0.0,0.0,0.0,0.0,0.0,0.0,0.0,0.0,0.0,0.0,0.0,0.0,0.0,0.0,0.0,0.0,0.0,0.0,0.0,0.0,0.0,0.0,0.0,0.0,0.0,0.0,0.0,0.0,0.0,0.0,0.0,0.0,0.0,0.0,0.0,0.0,0.0,0.0,0.0,0.0,0.0,0.0,0.0,0.0,0.0,0.0,0.0,0.0,0.0,0.0,0.0,0.0,0.0,0.0,0.0,0.0,0.0,0.0,0.0,0.0,0.0,0.0,0.0,0.0,0.0,0.0,0.0,0.0,0.0,0.0,0.0,0.0,0.0,0.0,0.0,0.0,0.0,0.0,0.9404,1.0105,1.0621,1.1363,1.1302,1.0043,1.023,0.9865,0.8622,0.7517,0.0,0.0,0.0,0.0,0.0,0.0,0.0,0.0,0.0,0.0,0.0,0.0,0.0,0.0,0.0,0.0,0.0,0.0,0.0,0.0,0.0,0.0,0.0,0.0,0.0,0.0,0.0,0.0,0.0,0.0,0.0,0.0,0.0,0.0,0.0,0.0,0.0,0.0,0.0,0.0,0.0,0.0,0.0,0.0,0.0,0.0,0.0,0.0,0.0,0.0,0.0,0.0,0.0,0.0,0.0,0.0,0.0,0.0,0.0,0.0,0.0,0.0,0.0,0.0,0.0,0.0,0.0,0.0,0.0,0.0,0.0,0.0,0.0,0.0,0.0,0.0,0.0,0.0,0.0,0.0,0.0,0.0,0.0,0.0,0.0,0.0,0.0,0.0,0.0,0.0,0.0,0.0,0.0,0.0,0.0,0.0,0.0,0.0,0.0,0.0,0.0,0.0,0.9666,1.0249,1.1153,1.1586,1.1338,1.0176,1.029,0.9982,0.9011,0.7662,0.0,0.0,0.0,0.0,0.0,0.0,0.0,0.0,0.0,0.0,0.0,0.0,0.0,0.0,0.0,0.0,0.0,0.0,0.0,0.0,0.0,0.0,0.0,0.0,0.0,0.0,0.0,0.0,0.0,0.0,0.0,0.0,0.0,0.0,0.0,0.0,0.0,0.0,0.0,0.0,0.0,0.0,0.0,0.0,0.0,0.0,0.0,0.0,0.0,0.0,0.0,0.0,0.0,0.0,0.0,0.0,0.0,0.0,0.0,0.0,0.0,0.0,0.0,0.0,0.0,0.0,0.0,0.0,0.0,0.0,0.0,0.0,0.0,0.0,0.0,0.0,0.0,0.0,0.0,0.0,0.0,0.0,0.0,0.0,0.0,0.0,0.0,0.0,0.0,0.0,0.0,0.0,0.0,0.0,0.0,0.0,0.0,0.0,0.0,0.0,0.0,0.0,0.9811,1.0345,0.0,1.1725,1.1348,1.0202,1.0274,0.9968,0.8942,0.0,0.0,0.0,0.0,0.0,0.0,0.0,0.0,0.0,0.0,0.0,0.0,0.0,0.0,0.0,0.0,0.0,0.0,0.0,0.0,0.0,0.0,0.0,0.0,0.0,0.0,0.0,0.0,0.0,0.0,0.0,0.0,0.0,0.0,0.0,0.0,0.0,0.0,0.0,0.0,0.0,0.0,0.0,0.0,0.0,0.0,0.0,0.0,0.0,0.0,0.0,0.0,0.0,0.0,0.0,0.0,0.0,0.0,0.0,0.0,0.0,0.0,0.0,0.0,0.0,0.0,0.0,0.0,0.0,0.0,0.0,0.0,0.0,0.0,0.0,0.0,0.0,0.0,0.0,0.0,0.0,0.0,0.0,0.0,0.0,0.0,0.0,0.0,0.0,0.0,0.0,0.0,0.0,0.0,0.0,0.0,0.0,0.0,0.0,0.0,0.0,0.0,0.9754,0.989,1.0383,0.0,1.1805,1.1354,1.0289,1.0316,0.9991,0.9019,0.0,0.0,0.0,0.0,0.0,0.0,0.0,0.0,0.0,0.0,0.0,0.0,0.0,0.0,0.0,0.0,0.0,0.0,0.0,0.0,0.0,0.0,0.0,0.0,0.0,0.0,0.0,0.0,0.0,0.0,0.0,0.0,0.0,0.0,0.0,0.0,0.0,0.0,0.0,0.0,0.0,0.0,0.0,0.0,0.0,0.0,0.0,0.0,0.0,0.0,0.0,0.0,0.0,0.0,0.0,0.0,0.0,0.0,0.0,0.0,0.0,0.0,0.0,0.0,0.0,0.0,0.0,0.0,0.0,0.0,0.0,0.0,0.0,0.0,0.0,0.0,0.0,0.0,0.0,0.0,0.0,0.0,0.0,0.0,0.0,0.0,0.0,0.0,0.0,0.0,0.0,0.0,0.0,0.0,0.0,0.0,0.0,0.0,0.0,0.0,0.0,0.0,0.9746,0.9899,1.0383,1.1655,1.1805,1.1429,1.0499,1.0414,1.0092,0.0,0.0,0.0,0.0,0.0,0.0,0.0,0.0,0.0,0.0,0.0,0.0,0.0,0.0,0.0,0.0,0.0,0.0,0.0,0.0,0.0,0.0,0.0,0.0,0.0,0.0,0.0,0.0,0.0,0.0,0.0,0.0,0.0,0.0,0.0,0.0,0.0,0.0,0.0,0.0,0.0,0.0,0.0,0.0,0.0,0.0,0.0,0.0,0.0,0.0,0.0,0.0,0.0,0.0,0.0,0.0,0.0,0.0,0.0,0.0,0.0,0.0,0.0,0.0,0.0,0.0,0.0,0.0,0.0,0.0,0.0,0.0,0.0,0.0,0.0,0.0,0.0,0.0,0.0,0.0,0.0,0.0,0.0,0.0,0.0,0.0,0.0,0.0,0.0,0.0,0.0,0.0,0.0,0.0,0.0,0.0,0.0,0.0,0.0,0.0,0.0,0.0,0.0,0.9883,0.9956,1.0383,1.1655,1.1961,1.1834,1.1223,1.0865,1.0461,0.9973,0.0,0.0,0.0,0.0,0.0,0.0,0.0,0.0,0.0,0.0,0.0,0.0,0.0,0.0,0.0,0.0,0.0,0.0,0.0,0.0,0.0,0.0,0.0,0.0,0.0,0.0,0.0,0.0,0.0,0.0,0.0,0.0,0.0,0.0,0.0,0.0,0.0,0.0,0.0,0.0,0.0,0.0,0.0,0.0,0.0,0.0,0.0,0.0,0.0,0.0,0.0,0.0,0.0,0.0,0.0,0.0,0.0,0.0,0.0,0.0,0.0,0.0,0.0,0.0,0.0,0.0,0.0,0.0,0.0,0.0,0.0,0.0,0.0,0.0,0.0,0.0,0.0,0.0,0.0,0.0,0.0,0.0,0.0,0.0,0.0,0.0,0.0,0.0,0.0,0.0,0.0,0.0,0.0,0.0,0.0,0.0,0.0,0.0,0.0,0.0,0.0,0.0,0.9912,1.0164,1.0643,1.1685,1.194,1.1881,1.1533,1.0969,1.0517,1.0226,0.0,0.0,0.0,0.0,0.0,0.0,0.0,0.0,0.0,0.0,0.0,0.0,0.0,0.0,0.0,0.0,0.0,0.0,0.0,0.0,0.0,0.0,0.0,0.0,0.0,0.0,0.0,0.0,0.0,0.0,0.0,0.0,0.0,0.0,0.0,0.0,0.0,0.0,0.0,0.0,0.0,0.0,0.0,0.0,0.0,0.0,0.0,0.0,0.0,0.0,0.0,0.0,0.0,0.0,0.0,0.0,0.0,0.0,0.0,0.0,0.0,0.0,0.0,0.0,0.0,0.0,0.0,0.0,0.0,0.0,0.0,0.0,0.0,0.0,0.0,0.0,0.0,0.0,0.0,0.0,0.0,0.0,0.0,0.0,0.0,0.0,0.0,0.0,0.0,0.0,0.0,0.0,0.0,0.0,0.0,0.0,0.0,0.0,0.0,0.0,0.0,0.0,0.9907,1.0447,1.1062,1.173,1.1811,1.1769,1.1628,1.0948,1.0472,1.0288,0.0,0.0,0.0,0.0,0.0,0.0,0.0,0.0,0.0,0.0,0.0,0.0,0.0,0.0,0.0,0.0,0.0,0.0,0.0,0.0,0.0,0.0,0.0,0.0,0.0,0.0,0.0,0.0,0.0,0.0,0.0,0.0,0.0,0.0,0.0,0.0,0.0,0.0,0.0,0.0,0.0,0.0,0.0,0.0,0.0,0.0,0.0,0.0,0.0,0.0,0.0,0.0,0.0,0.0,0.0,0.0,0.0,0.0,0.0,0.0,1.0079,0.0,0.0,0.0,0.0,0.0,0.0,0.0,0.0,0.0,0.0,0.0,0.0,0.0,0.0,0.0,0.0,0.0,0.0,0.0,0.0,0.0,0.0,0.0,0.0,0.0,0.0,0.0,0.0,0.0,0.0,0.0,0.0,0.0,0.0,0.0,0.0,0.0,0.0,0.0,0.0,0.0,1.0228,1.0586,1.1062,1.173,1.1982,1.2179,1.2345,1.1878,1.1381,1.0937,0.9566,0.0,0.0,0.0,0.0,0.0,0.0,0.0,0.0,0.0,0.0,0.0,0.0,0.0,0.0,0.0,0.0,0.0,0.0,0.0,0.0,0.0,0.0,0.0,0.0,0.0,0.0,0.0,0.0,0.0,0.0,0.0,0.0,0.0,0.0,0.0,0.0,0.0,0.0,0.0,0.0,0.0,0.0,0.0,0.0,0.0,0.0,0.0,0.0,0.0,0.0,0.0,0.0,0.0,0.0,0.0,0.0,0.0,0.0,0.0,0.0,1.0633,0.0,0.0,0.0,0.0,0.0,0.0,0.0,0.0,0.0,0.0,0.0,0.0,0.0,0.0,0.0,0.0,0.0,0.0,0.0,0.0,0.0,0.0,0.0,0.0,0.0,0.0,0.0,0.0,0.0,0.0,0.0,0.0,0.0,0.0,0.0,0.0,0.0,0.0,0.0,0.0,1.0656,1.1338,1.2029,1.2691,1.2599,1.261,1.2869,1.2169,1.1646,1.1489,1.0214,0.0,0.0,0.0,0.0,0.0,0.0,0.0,0.0,0.0,0.0,0.0,0.0,0.0,0.0,0.0,0.0,0.0,0.0,0.0,0.0,0.0,0.0,0.0,0.0,0.0,0.0,0.0,0.0,0.0,0.0,0.0,0.0,0.0,0.0,0.0,0.0,0.0,0.0,0.0,0.0,0.0,0.0,0.0,0.0,0.0,0.0,0.0,0.0,0.0,0.0,0.0,0.0,0.0,1.1997,1.2181,1.2194,1.263,1.2997,1.3184,1.1899,1.1803,1.2469,1.1397,0.0,0.0,0.0,0.0,0.0,0.0,0.0,0.0,0.0,0.0,0.0,0.0,0.0,0.0,0.0,0.0,0.0,0.0,0.0,0.0,0.0,0.0,0.0,0.0,1.3278,1.3202,0.0,0.0,0.0,0.0,0.0,0.0,0.0,0.0,0.0,0.0,0.0,0.0,1.1205,1.2266,1.3193,1.3737,1.3301,1.3041,1.3193,1.2376,1.1877,1.1901,1.0951,1.0039,0.0,0.0,0.0,0.0,0.0,0.0,0.0,0.0,0.0,0.0,0.0,0.0,0.0,0.0,0.0,0.0,0.0,0.0,0.0,0.0,0.0,0.0,0.0,0.0,0.0,0.0,0.0,0.0,0.0,0.0,0.0,0.0,0.7413,0.8041,0.0,0.0,0.0,0.0,0.0,0.0,0.0,0.0,0.0,0.0,0.0,0.0,0.0,1.1989,1.2156,1.3192,1.3697,1.371,1.4229,1.4456,1.4456,1.4532,1.4595,1.4632,1.4423,0.0,1.3845,1.2775,0.0,0.0,0.0,0.0,0.0,0.0,0.0,0.0,0.0,0.0,0.0,0.0,0.0,0.0,0.0,0.0,0.0,0.0,0.0,0.0,0.0,0.0,1.5964,1.5465,1.554,1.5591,0.0,1.359,1.2037,1.1331,1.1173,0.0,0.0,0.0,0.0,0.0,0.0,0.0,1.1892,1.2957,1.3692,1.3782,1.3722,1.3531,1.3239,1.3289,1.2916,1.1967,1.1953,1.135,0.9918,0.9247,0.0,0.0,0.0,0.0,0.0,0.0,0.0,0.0,0.0,0.0,0.0,0.0,0.0,0.0,0.0,0.0,0.0,0.0,0.0,0.0,0.0,0.0,0.0,0.0,0.0,0.0,0.0,0.0,0.0,0.7446,0.8112,0.8686,0.9198,0.9401,0.0,0.0,0.0,0.0,0.0,0.0,0.0,0.0,0.0,1.2759,1.3167,1.3501,1.3797,1.4595,1.5148,1.5462,1.604,1.6468,1.6748,1.6748,1.6748,1.6748,1.6748,1.6651,1.6299,1.4431,1.3789,1.3895,0.0,0.0,0.0,0.0,1.3313,1.3311,1.4016,1.4045,0.0,1.3598,0.0,0.0,0.0,0.0,0.0,0.0,0.0,0.0,0.0,0.0,1.6741,1.6832,1.6939,1.6985,1.6893,1.605,1.4851,0.0,1.2921,1.2417,1.0805,0.0,0.0,0.0,0.0,1.2475,1.3141,1.389,1.4513,1.4886,1.4588,1.4281,1.4106,1.3644,1.3236,1.2883,1.2354,1.1845,1.1309,1.0149,0.9208,0.0,0.0,0.0,0.0,0.0,0.0,0.0,0.0,0.0,0.0,0.0,0.0,0.0,0.0,0.0,0.0,0.0,0.0,0.0,0.0,0.0,0.0,0.0,0.0,0.0,0.0,0.0,0.0,0.8463,0.9115,0.9679,1.0467,1.0867,0.0,0.0,0.0,0.0,0.0,0.0,1.2797,1.3232,1.3835,1.4689,1.5004,1.5344,1.5739,1.6132,1.6547,1.6939,1.7388,1.7802,1.8204,1.8204,1.8204,1.8204,1.8204,1.8204,1.8039,1.5906,1.5214,1.5465,1.4667,1.4371,1.4441,1.4936,1.4888,1.4716,1.567,1.5701,1.5265,1.4915,1.4747,1.4564,1.3969,0.0,0.0,0.0,0.0,1.6024,1.6965,1.7339,1.7578,1.8087,1.8207,1.8207,1.8207,1.8072,1.7327,0.0,1.4767,1.4227,1.2566,0.0,0.0,0.0,0.0,1.3715,1.4217,1.4739,1.5245,1.5754,1.535,1.499,1.4811,1.3977,1.3475,1.3505,1.2665,1.2191,1.2194,1.096,0.9954,0.9276,0.0,0.0,0.0,0.0,0.0,0.0,0.0,0.0,0.0,0.0,0.0,0.0,0.0,0.0,0.0,0.0,0.0,0.0,0.0,0.0,0.0,0.0,0.0,0.0,0.0,0.0,0.0,0.0,0.0,1.1402,1.2416,0.0,0.0,0.0,0.0,1.2366,1.3347,1.3982,1.4015,1.5454,1.6312,1.6375,1.7438,1.8003,1.8041,1.8066,1.8091,1.8116,1.8154,1.8179,1.8204,1.8204,1.8204,1.8204,1.8204,1.8204,1.8116,1.6898,1.6417,1.6325,1.5282,1.4853,1.4866,1.491,1.5219,1.5628,1.5691,1.5691,1.5742,1.6237,1.6205,1.6004,1.5968,1.6237,0.0,0.0,1.7179,1.8523,1.8583,1.9076,1.9573,1.9588,1.9603,1.9603,1.9603,1.9091,1.8253,0.0,1.6577,1.6159,1.4854,0.0,1.445,1.379,1.427,1.4734,1.4764,1.5349,1.5769,1.5799,1.5769,1.5499,1.4856,1.4404,1.388,1.3268,1.3054,1.2634,1.1951,1.1366,1.0707,0.9956,0.8547,0.0,0.0,0.0,0.0,0.0,0.0,0.0,0.0,0.0,0.0,0.0,0.0,0.0,0.0,0.0,0.0,0.0,0.0,0.0,0.0,0.0,0.0,0.0,0.0,0.0,0.0,0.0,0.0,1.3103,1.3853,0.0,1.3765,1.4079,1.45,1.4996,1.5417,1.5957,1.6706,1.7287,1.7578,1.7578,1.799,1.8204,1.8204,1.8204,1.8356,1.8707,1.8707,1.9108,1.9811,1.9811,1.9811,1.9811,1.9811,1.9598,1.9183,1.8418,1.7904,1.7564,1.7174,1.7011,1.7011,1.7011,1.7137,1.7313,1.7313,1.7313,1.7338,1.7539,1.7523,1.7457,1.7457,1.752,1.7651,1.7813,1.8325,1.8907,1.9245,1.9528,1.9708,1.9708,1.9708,1.9708,1.9708,1.9513,1.9196,1.8732,1.7938,1.7055,1.6189,1.6383,1.6443,1.5771,1.6249,1.6667,1.6667,1.6861,1.6862,1.6428,1.6383,1.6129,1.5499,1.4528,1.3983,1.4087,1.3073,1.2599,1.2849,1.1598,1.0846,1.07,0.9258,0.8156,0.0,0.0,0.0,0.0,0.0,0.0,0.0,0.0,0.0,0.0,0.0,0.0,0.0,0.0,0.0,0.0,0.0,0.0,0.0,0.0,0.0,0.0,0.0,0.0,0.0,1.2563,1.3785,1.4551,1.5449,1.594,1.5751,1.5915,1.6296,1.7014,1.7064,1.739,1.8166,1.838,1.8555,1.8731,1.8932,1.912,1.9309,1.9309,1.9497,1.9835,1.9835,2.0238,2.0968,2.0968,2.0968,2.0968,2.0968,2.0727,2.0338,1.9999,1.9648,1.9246,1.8493,1.8204,1.8204,1.8204,1.8204,1.8204,1.8204,1.8204,1.8204,1.8204,1.8321,1.8446,1.8247,1.8417,1.8707,1.889,1.9211,1.9585,1.996,2.0039,2.0034,2.0034,1.9854,1.9708,1.9708,1.9708,1.9708,1.9708,1.8986,1.8237,1.7788,1.8072,1.8147,1.7473,1.7758,1.7953,1.7728,1.7713,1.7518,1.7085,1.683,1.6547,1.6144,1.4771,1.409,1.4433,1.312,1.2617,1.3234,1.1686,1.0899,1.1096,0.941,0.8428,0.8199,0.0,0.0,0.0,0.0,0.0,0.0,0.0,0.0,0.0,0.0,0.0,0.0,0.0,0.0,0.0,0.0,0.0,0.0,0.0,0.0,0.0,0.0,0.0,1.2608,1.4362,1.5731,1.5768,1.7212,1.8003,1.7511,1.7915,1.8242,1.8279,1.8279,1.8292,1.8304,1.8795,1.9309,1.9836,2.0427,2.0968,2.1481,2.1493,2.1493,2.1493,2.1493,2.1493,2.1506,2.1506,2.1506,2.1506,2.1506,2.1506,2.1493,2.1493,2.1493,2.128,1.9145,1.8292,1.8279,1.8279,1.8279,1.8254,1.8254,1.8254,1.8254,1.8254,1.8593,1.8901,1.8382,1.8947,1.9649,1.9148,1.982,2.0681,2.0702,2.0724,2.0718,2.0718,2.0228,1.9738,1.9738,1.9708,1.9708,1.9708,1.9708,1.9708,1.9708,1.9708,1.9483,1.8837,1.8732,0.0,1.7848,1.7773,1.7758,1.7727,1.716,1.6741,1.6696,1.519,1.4242,1.4208,1.3194,1.2719,1.2986,1.1589,1.0893,1.1075,0.8981,0.8258,0.9002,0.0,0.0,0.0,0.0,0.0,0.0,0.0,0.0,0.0,0.0,0.0,0.0,0.0,0.0,0.0,0.0,0.0,0.0,0.0,0.0,0.0,1.4576,1.5293,1.4872,1.5655,1.6597,1.7413,1.7928,1.8304,1.8531,1.8694,1.9133,1.995,2.0013,2.0189,2.0564,2.0727,2.0878,2.1016,2.1179,2.1358,2.1493,2.1493,2.1493,2.1493,2.1493,2.1694,2.2083,2.2083,2.2083,2.2083,2.2083,2.1857,2.1493,2.1493,2.1493,2.143,2.0828,2.0365,2.0013,2.0013,1.9723,1.9359,1.9359,1.9359,1.9359,1.9359,1.9194,1.8976,1.8818,1.8721,1.8681,1.8921,1.9534,2.0203,2.0598,2.1061,2.1425,2.1425,2.0917,2.0438,2.0438,2.0034,1.9708,1.9708,1.9708,1.9708,1.9708,1.9708,1.9648,1.9453,1.9438,0.0,1.9166,1.9151,1.8957,1.8493,1.8252,1.7773,1.6771,1.5887,1.5025,1.4257,1.3283,1.2727,1.2709,1.1626,1.0887,1.0591,1.0003,0.9527,0.0,0.0,0.0,0.0,0.0,0.0,0.0,0.0,0.0,0.0,0.0,0.0,0.0,0.0,0.0,0.0,0.0,0.0,0.0,0.0,0.0,0.0,1.6172,1.7126,1.7373,1.7478,1.7867,1.8769,1.9083,1.9459,2.0012,2.0062,2.0326,2.0993,2.1043,2.1182,2.1468,2.1493,2.1594,2.1832,2.1832,2.1945,2.2184,2.2184,2.2184,2.2184,2.2184,2.2347,2.2631,2.2631,2.2631,2.2631,2.2631,2.2443,2.2184,2.2184,2.2184,0.0,0.0,0.0,0.0,0.0,2.0817,2.0514,2.0514,2.0514,2.0514,2.0514,2.015,1.971,1.971,1.9321,1.8992,1.9593,2.0186,2.0796,2.1376,2.1829,2.2134,2.2134,2.1605,2.1051,2.0763,2.0393,2.0034,1.9753,1.9708,0.0,1.9708,1.9708,1.9708,1.9708,1.9708,1.9708,1.9708,1.9708,1.9558,1.9151,1.8867,1.8371,1.7593,1.6548,0.0,0.0,0.0,1.3083,1.2419,1.1674,0.0,0.0,0.0,0.0,0.0,0.0,0.0,0.0,0.8434,0.8398,0.0,0.0,0.0,0.0,0.0,0.0,0.0,0.0,0.0,0.0,0.0,0.0,0.0,0.0,0.0,0.0,1.7597,1.8756,1.9849,1.9597,1.9459,1.9936,2.0465,2.1006,2.1531,2.1581,2.1606,2.1669,2.1681,2.1681,2.1681,0.0,0.0,0.0,0.0,2.2706,2.3195,2.3258,2.3296,2.3296,2.3296,2.3296,2.3296,2.3296,2.3296,2.3296,2.3233,2.3195,2.3195,2.3133,2.3108,2.2995,2.1995,2.1581,2.1568,2.1506,2.1493,2.1493,2.1493,0.0,0.0,2.1493,2.1182,2.0779,2.0779,2.0377,2.0028,2.0626,2.124,2.1828,2.2429,2.2702,2.2808,2.2808,2.2298,2.165,2.1051,2.0808,2.0509,1.9929,1.9753,1.9708,1.9708,1.9708,1.9708,1.9708,1.9708,1.9708,1.9708,1.9708,1.9708,1.9708,0.0,0.0,1.8717,1.7288,1.6294,1.6079,1.486,1.3586,1.2344,1.1954,1.1753,1.1753,1.1709,1.1997,1.2654,1.252,1.2411,1.2253,1.0458,0.9955,0.0,0.0,0.0,0.0,0.0,0.0,0.0,0.0,0.0,0.0,0.0,0.0,0.0,0.0,0.0,1.864,1.924,1.9886,2.1004,2.1079,2.1041,2.1154,2.1255,2.1543,2.2096,2.2159,2.2305,2.2757,2.2782,2.2782,2.2782,2.2782,2.2832,2.2945,2.3427,2.3728,2.3828,2.4268,2.4462,2.4462,0.0,0.0,2.4462,2.4462,2.4462,2.4437,2.4017,2.3841,2.3791,2.3296,2.3108,2.3045,2.241,2.2159,2.2096,2.1656,2.1493,2.1493,2.1493,2.1493,2.1493,2.1493,2.1446,2.1358,2.1358,2.0968,0.0,2.0687,2.1189,2.172,2.1852,2.2669,2.343,2.343,2.2972,2.2478,2.2343,2.1455,2.0658,2.0524,2.0064,1.9708,1.9708,1.9708,1.9708,1.9708,1.9708,1.9708,1.9708,1.9708,1.9708,1.9708,1.9588,1.9286,1.8747,1.8393,1.7525,1.5961,1.4621,1.3765,1.3485,1.3398,1.3358,1.3358,1.3335,1.341,1.3555,1.3516,1.3506,1.344,1.2161,1.154,0.0,0.0,0.0,0.0,0.0,0.0,0.0,0.0,0.0,0.0,0.0,1.6386,1.6998,0.0,1.8805,1.9977,2.0433,2.0941,2.1782,2.1895,2.1895,2.1895,2.1895,2.2121,2.2644,2.2694,2.2807,2.3083,2.3371,2.3534,2.3534,2.3797,2.3948,2.3948,2.4224,2.4406,2.4406,2.4682,2.4788,2.4788,2.4788,2.4788,2.4788,2.4788,2.4788,2.4775,2.4531,2.4406,2.4393,2.4073,2.3948,2.3923,2.3647,2.3195,2.2656,2.241,2.2309,2.2309,2.2309,2.2309,2.2309,2.2309,2.2121,2.1895,2.1895,2.1546,2.118,2.1538,2.1884,2.2231,2.2563,2.3128,2.3595,2.3595,2.337,2.3077,2.2763,2.2179,2.15,2.0823,2.0438,2.0094,1.9768,1.9708,1.9708,1.9708,1.9708,1.9708,1.9708,1.9708,1.9708,1.9708,1.9708,1.9573,1.9226,1.8897,1.8149,1.6832,1.5815,1.5127,1.4811,1.4468,1.4139,1.3812,1.4139,1.4303,1.4303,1.4646,1.4811,1.4796,1.4212,1.3549,0.0,0.0,0.0,0.0,0.0,0.0,0.0,1.5357,1.5934,1.5863,1.7262,1.8555,1.8656,1.9799,2.0767,2.0981,2.1443,2.197,2.238,2.2573,2.2598,2.2456,2.2472,2.2619,2.3058,2.3208,2.3271,2.3271,2.381,2.4155,2.4155,2.4582,2.4788,2.4788,2.4888,2.4971,2.4971,2.5084,2.5146,2.5146,2.5146,2.5146,2.5146,2.5146,2.5146,2.5134,2.5021,2.4888,2.4788,2.4788,2.4788,2.4788,2.4788,2.4236,2.3421,2.3308,2.3195,2.3108,2.3108,2.3108,2.3108,2.3108,2.2807,2.2472,2.2472,2.2083,2.1822,2.2559,2.2679,2.2759,2.3428,2.3612,2.3595,2.3595,2.3595,2.346,2.2987,2.2778,2.2388,2.1306,2.0972,2.0692,2.0004,1.9902,1.9839,1.9723,1.9708,1.9708,1.9708,1.9708,1.9708,1.9708,1.9708,1.9708,1.9708,1.9091,1.8461,1.7938,1.7264,1.6682,1.6188,1.565,1.5111,1.4574,1.4962,1.5171,1.5171,1.5589,1.5799,1.5799,1.5799,1.5215,1.6936,1.5858,1.5366,1.6495,1.6014,1.5815,0.0,1.8138,1.815,1.9058,1.9447,1.9773,2.0327,2.0566,2.1018,2.197,2.2556,2.2945,2.3007,2.3489,2.3615,2.307,2.3007,2.3032,2.3095,2.3572,2.3904,2.3904,2.4418,2.47,2.47,2.4763,2.4788,2.4788,2.5272,2.5511,2.5511,2.6047,2.6311,2.6311,2.6311,2.6311,2.6311,2.6311,2.6311,2.6285,2.5737,2.5247,2.4788,2.4788,2.4788,2.4788,2.4788,2.4713,2.4537,2.4079,2.3547,2.3108,2.3108,2.3108,2.3108,2.3108,2.3058,2.3007,2.3007,2.2631,2.2369,2.3099,2.2974,2.2759,2.3497,2.3636,2.3595,2.3595,2.3595,2.358,2.3505,2.3092,2.2658,2.2508,2.1994,2.138,2.0688,2.0583,2.0393,1.9798,1.9708,1.9708,1.9708,1.9708,1.9708,1.9708,1.9708,1.9708,1.9708,1.9091,1.8672,1.8597,1.7968,1.7564,1.7489,1.7414,1.734,1.728,1.6756,1.6502,1.6502,1.6009,1.5799,1.5799,1.5799,1.5724,1.822,1.7641,1.7407,1.8014,1.7817,1.7837,1.917,1.956,1.9786,2.0239,2.0815,2.133,2.1581,2.1882,2.2372,2.3163,2.3489,2.3722,2.4048,2.4054,2.3916,2.3634,2.3308,2.3233,2.3602,2.3853,2.413,2.4456,2.4971,2.5272,2.5272,2.5586,2.5774,2.5774,2.6021,2.6135,2.6135,2.6373,2.6499,2.6499,2.6499,2.6499,2.6499,2.6499,2.6499,2.6474,2.6235,2.6009,2.5774,2.5774,2.5774,2.5774,2.5774,2.5573,2.5209,2.4669,2.4117,2.364,2.364,2.3384,2.3108,2.3108,2.3108,2.3108,2.3108,2.2945,2.2858,2.3234,2.3474,2.3719,2.4083,2.4177,2.4171,2.4171,2.3872,2.3595,2.3595,2.3385,2.3122,2.2763,2.2478,2.2054,2.1395,2.0957,2.0598,2.0318,1.9962,1.9708,1.9708,1.9708,1.9708,1.9708,1.9708,1.9708,1.9708,1.9453,1.9271,1.9271,1.9016,1.8687,1.8296,1.8281,1.8102,1.7697,1.7413,1.7279,1.7279,1.7026,1.6907,1.6907,1.6907,1.6907,1.9223,1.9121,1.9203,1.938,1.9463,1.966,2.0338,2.0815,2.1182,2.1345,2.1983,2.2506,2.2506,2.2832,2.3296,2.3904,2.413,2.4368,2.4738,2.4481,2.4167,2.4017,2.3459,2.3396,2.4155,2.423,2.4456,2.4996,2.5523,2.5837,2.5837,2.6273,2.6499,2.6499,2.6499,2.6499,2.6499,2.6499,2.6499,2.6499,2.6499,2.6499,2.6499,2.6499,2.6499,2.6499,2.6499,2.6499,2.6499,2.6499,2.6499,2.6499,2.6499,2.6235,2.5787,2.541,2.482,2.423,2.423,2.3923,2.3547,2.3396,2.3346,2.3308,2.3158,2.3245,2.35,2.3779,2.4286,2.4743,2.5005,2.4985,2.4874,2.4874,2.435,2.3879,2.3879,2.3729,2.3475,2.3032,2.2957,2.2748,2.2104,2.1575,2.1201,2.1006,2.0557,2.0127,1.9753,1.9708,1.9708,1.9708,1.9708,1.9708,1.9708,1.9708,1.9708,1.9708,1.9708,1.9465,1.9001,1.8972,1.8747,1.8252,1.8072,1.7983,1.7983,1.7788,1.7713,1.7713,1.7713,1.7713,1.9681,1.9705,1.9908,2.0417,2.0604,2.093,2.1983,2.2246,2.241,2.292,2.3058,2.3083,2.3083,2.3095,2.3296,2.3904,2.4456,2.4775,2.4788,2.4775,2.4562,2.4067,2.3459,2.3547,2.4662,2.4763,2.5008,2.5536,2.6135,2.6461,2.6461,2.6487,2.6499,2.6499,2.6499,2.6499,2.6499,2.6499,2.6499,2.6499,2.6499,2.6499,2.6499,2.6499,2.6499,2.6499,2.6499,2.6499,2.6499,2.6499,2.6499,2.6499,2.6499,2.6487,2.6461,2.6449,2.5724,2.4763,2.4763,2.475,2.465,2.4142,2.3966,2.3866,2.3283,2.3649,2.4394,2.512,2.5386,2.5618,2.6347,2.6078,2.5561,2.5561,2.5053,2.4575,2.4575,2.4073,2.3595,2.358,2.3565,2.337,2.2778,2.2643,2.2418,2.1754,2.165,2.1156,1.9872,1.9708,1.9708,1.9708,1.9708,1.9708,1.9708,1.9708,1.9708,1.9708,1.9708,1.9693,1.9678,1.9678,1.9663,1.9648,1.9001,1.8672,1.8672,1.8012,1.7713,1.7713,1.7713,1.7713,2.0576,2.1062,2.1691,2.1875,2.1839,2.1945,2.2656,2.2832,2.2882,2.3058,2.2819,2.2556,2.2556,2.2556,2.2869,2.3841,2.4456,2.5039,2.5799,2.5573,2.5259,2.5084,2.4582,2.4512,2.5259,2.5021,0.0,2.6135,2.6386,2.665,2.7014,2.704,2.7168,2.7544,2.7557,2.7557,2.7557,2.7557,2.7557,2.7557,2.7557,2.7392,2.704,2.704,2.6839,2.6499,2.6499,2.6499,2.6499,2.6499,2.6499,2.6499,2.6499,2.6499,2.6499,2.6499,2.626,2.585,2.5473,2.5109,2.4763,2.4575,2.4544,2.4443,2.3879,2.4227,2.481,2.4702,2.5383,2.6231,2.648,2.6391,2.6258,2.6258,2.5749,2.5128,2.4709,2.4425,2.4126,2.3684,2.3595,2.3535,2.3325,2.2972,2.2478,2.1799,2.1321,2.0872,2.0423,1.9974,1.9708,1.9708,1.9708,1.9708,1.9708,1.9708,1.9708,1.9708,1.9708,1.9708,1.9708,1.9708,1.9708,1.9708,1.9483,1.9346,1.9346,1.9136,1.9031,1.9031,1.9031,1.9031,2.2149,2.2918,2.362,2.3539,2.3582,2.3616,2.3462,2.3409,2.3296,2.2895,2.2397,2.202,2.202,2.1857,2.2221,2.3753,2.4293,2.4983,2.6311,2.5996,2.5598,2.5598,2.5146,2.4988,2.5548,2.5297,2.5473,2.6424,2.6675,2.6952,2.7268,2.7469,2.7733,2.8097,2.8109,2.8109,2.8109,2.8109,2.8109,2.8109,2.8109,2.7921,2.7582,2.7582,2.7381,2.7065,2.6876,2.6788,2.6776,2.6575,2.6499,2.6499,2.6499,2.6499,2.6499,2.6499,2.6499,2.6436,2.6072,2.5686,2.5372,2.5172,2.5096,2.5061,2.481,2.5039,2.5352,2.5121,2.5687,2.6392,2.6488,2.652,2.6633,2.6882,2.6437,2.5839,2.5397,2.5128,2.4754,2.4103,2.3969,2.3879,2.364,2.3287,2.2882,2.2443,2.1829,2.1335,2.1096,2.0468,2.0049,2.0049,1.9824,1.9708,1.9708,1.9708,1.9708,1.9708,1.9708,1.9708,1.9708,1.9708,1.9708,1.9708,1.9708,1.9708,1.9708,1.9708,1.9708,1.9708,1.9708,1.9708,2.4276,2.5203,2.5595,2.5416,2.5728,2.5761,2.4435,2.4066,2.3712,2.2573,2.1892,2.1504,2.1423,2.1033,2.1436,2.3565,2.3979,2.4619,2.6311,2.6059,2.5699,2.5724,2.5297,2.5184,2.5674,2.5724,2.595,2.6537,0.0,2.7306,2.7369,2.7858,2.816,2.8197,2.8197,2.8197,2.8197,2.8197,2.8197,2.8197,2.8197,2.8172,2.8147,2.8147,2.8134,2.8072,2.7557,2.7318,2.7281,2.6788,2.6575,2.6575,2.6575,2.6562,2.6537,2.6537,2.6512,2.6499,2.6555,2.6521,2.6411,2.5824,2.5636,2.5701,2.6044,2.6065,2.6073,2.6416,2.6409,2.637,2.6578,2.6592,2.6721,2.7433,2.7121,2.6632,2.6602,2.6093,2.5442,2.4784,2.4634,2.4395,2.3759,2.3625,2.3595,2.3595,2.3122,2.2508,2.1829,2.1171,2.0748,2.0748,2.0154,1.9753,1.9753,1.9723,1.9708,1.9708,1.9708,1.9708,1.9708,1.9708,1.9708,1.9708,1.9708,1.9708,1.9708,1.9708,1.9708,1.9708,1.9708,1.9708,2.597,2.6857,2.7636,2.7613,2.6956,2.6227,2.5873,2.5027,2.408,2.3286,2.2293,2.1299,2.0393,2.0823,2.1608,2.2569,2.3791,2.5184,2.6876,2.6942,2.7005,2.7419,2.7344,2.7318,2.7457,2.7469,2.7532,0.0,2.7444,2.7645,2.8461,2.8599,2.8913,2.9352,2.9365,2.9365,2.9365,2.9365,2.9365,2.9365,2.9365,2.9139,2.8687,2.8687,2.8499,2.8097,2.7959,2.7896,2.7883,2.7745,2.7682,2.7682,2.7682,2.7431,2.7115,2.7115,2.6851,2.6589,2.7196,2.7007,2.6461,2.6323,2.6273,2.6329,2.6614,2.7068,2.7519,2.7825,2.7945,2.7988,2.8054,2.7676,2.7382,2.7575,2.7465,2.721,2.6692,2.6452,2.6153,2.5495,2.4933,2.4545,2.4365,2.3939,2.3595,2.3595,2.346,2.3152,2.2523,2.1859,2.1455,2.1455,2.0857,2.0453,2.0453,1.9989,1.9708,1.9708,1.9708,1.9708,1.9708,1.9708,1.9708,1.9708,1.9708,1.9708,1.9708,1.9708,1.9708,1.9708,1.9708,1.9708,2.7993,2.8818,2.93,2.9233,2.8454,2.7355,2.616,2.5053,2.3886,2.2476,2.1462,2.0602,1.9909,2.0318,2.1186,2.2447,2.3667,2.5121,2.7017,2.7281,2.7494,2.8047,2.8109,2.8109,2.8109,2.8109,2.821,2.8411,2.8185,2.8273,2.8863,2.9126,2.9453,2.9779,2.9792,2.9792,2.9792,2.9792,2.9792,2.9792,2.9792,2.9616,2.9302,2.9302,2.9139,2.8825,0.0,2.8461,2.8411,2.821,2.8109,2.8109,2.8109,2.7921,2.7717,2.8106,2.7875,2.7511,2.8392,2.8232,2.755,2.7162,2.7284,2.765,2.7793,2.8116,2.8491,2.8755,2.864,2.839,2.8165,2.7833,2.7543,2.7584,2.76,2.7495,2.7121,2.7046,2.6851,2.6168,2.551,2.5038,2.5038,2.447,2.4044,2.4044,2.3789,2.3475,2.3152,2.2538,2.2149,2.2149,2.1545,2.1141,2.1141,2.0528,2.0139,2.0139,1.9854,1.9708,1.9708,1.9708,1.9708,1.9708,1.9708,1.9708,1.9708,1.9708,1.9708,1.9708,1.9708,1.9708,2.9864,3.0567,3.0592,3.0498,2.9884,2.8656,2.6092,2.487,2.3598,2.1236,2.0304,1.9869,1.9722,1.9804,2.0578,2.2646,2.3548,2.4795,2.7067,2.7394,2.762,2.826,2.8335,2.8335,2.8335,2.8335,2.8536,2.8963,2.9001,2.9001,2.9001,2.9515,2.9792,2.9792,2.9792,2.9792,2.9792,2.9792,2.9792,2.9792,2.9792,2.9792,2.9792,2.9792,2.9792,2.9767,2.9264,2.9001,2.8963,2.8536,2.8335,2.8335,2.8335,2.8346,2.8489,2.9301,2.9292,2.8965,2.9945,2.9849,2.9131,2.8176,2.8363,2.9034,2.9129,2.916,2.9236,2.9563,2.9111,2.8398,2.7993,2.784,2.7786,2.7731,2.7735,2.7705,2.7615,2.76,2.742,2.6866,2.6183,2.5734,2.5734,2.5173,2.4739,2.4739,2.4156,2.3729,2.3729,2.3212,2.2823,2.2823,2.2239,2.1829,2.1829,2.1216,2.0823,2.0823,2.0198,1.9842,1.9842,1.9753,1.9708,1.9708,1.9708,1.9708,1.9708,1.9708,1.9708,1.9708,1.9708,1.9708,3.0238,3.0883,3.1317,3.1292,3.0415,2.9124,2.7539,2.5796,2.396,2.1934,2.099,2.0235,1.9247,1.9814,2.0895,2.2219,2.3322,2.4933,2.7595,2.7959,2.8348,2.9377,2.9503,2.9503,2.9503,2.9503,2.9541,0.0,2.9641,2.9641,2.9641,2.9741,2.9792,2.9792,2.9792,2.9792,2.9792,2.9792,2.9792,2.9792,2.9792,2.9792,2.9792,2.9792,2.9792,2.9779,2.9691,0.0,2.9641,2.9541,2.9503,2.9503,2.9503,2.9717,3.0036,3.0168,3.0357,3.0679,3.1517,3.1378,3.0591,2.9218,2.8876,2.9129,2.9858,3.0072,3.021,3.0954,3.0641,3.0095,2.9985,2.961,2.9101,2.8551,2.8427,2.8263,2.772,2.76,2.757,2.745,2.6896,2.6422,2.6422,2.5869,2.5435,2.5435,2.4859,2.4425,2.4425,2.3864,2.343,2.343,2.2897,2.2523,2.2523,2.1904,2.153,2.153,2.0902,2.0543,2.0543,1.9989,1.9708,1.9708,1.9708,1.9708,1.9708,1.9708,1.9708,1.9708,1.9708,1.9708,3.0748,3.1256,3.1511,3.1511,3.0298,2.87,2.7234,2.5198,2.3104,2.1345,2.0545,1.999,1.9428,1.9787,2.056,2.1668,2.2317,2.3653,2.6414,2.7055,2.777,2.9176,2.9616,2.9792,2.9792,2.9792,2.9792,2.9792,2.9792,2.9792,2.9792,2.9792,2.9792,2.9792,2.9792,2.9792,2.9792,2.9792,2.9792,2.9792,2.9792,2.9792,2.9792,2.9792,2.9792,2.9792,2.9792,2.9792,2.9792,2.9792,2.9792,2.9792,2.9792,3.0227,3.0894,3.1352,3.1785,3.2217,3.308,3.2956,3.2232,3.1145,3.0603,3.0299,3.0299,3.0584,3.0999,3.138,3.1271,3.0928,3.0597,3.0283,2.9909,2.9265,2.8846,2.8502,2.8173,2.7854,2.76,2.76,2.7345,2.7121,2.7121,2.6557,2.6123,2.6123,2.5555,2.5113,2.5113,2.4852,2.4373,2.367,2.3325,2.3182,2.3182,2.2598,2.2224,2.2224,2.159,2.1231,2.1231,2.0902,2.0572,2.0228,2.0228,2.0049,1.9708,1.9708,1.9708,1.9708,1.9708,1.9708,3.0972,3.1391,3.1511,3.1511,3.0031,2.8196,2.6658,2.4422,2.2244,2.0626,1.9982,1.9708,1.9708,1.9749,2.0147,2.1223,2.1538,2.2593,2.5242,2.6235,2.7241,2.8712,2.944,2.9792,2.9792,2.9792,2.9792,2.9792,2.9792,2.9792,2.9792,2.9792,2.9792,2.9792,2.9792,2.9792,2.9792,2.9792,2.9792,2.9792,2.9792,2.9792,2.9792,2.9792,2.9792,2.9792,2.9998,3.0113,0.0,3.0113,3.0113,3.0075,2.9869,3.0381,3.1278,3.2033,3.2598,3.3121,3.4059,3.3949,3.3342,3.2885,3.2243,3.1558,3.0791,3.0999,3.1511,3.1511,3.1511,3.1376,3.0838,3.0717,3.0567,2.9924,2.928,2.8801,2.8801,2.8304,2.7809,2.7809,2.7705,2.76,2.76,2.7165,2.6821,2.6821,2.6243,2.5809,2.5809,2.5689,2.5211,2.4148,2.3909,2.3759,2.361,2.3182,2.2897,2.2897,2.2283,2.1904,2.1904,2.1769,2.1455,2.0912,2.0897,2.0662,2.0127,1.9974,1.9899,1.9899,1.9768,1.9708,3.0417,3.1032,3.1511,3.1511,3.0031,2.8196,2.6658,2.4422,2.2244,2.0626,1.9982,1.9708,1.9708,1.9701,2.0084,2.1226,2.1862,2.3015,2.5262,2.6527,2.7632,2.875,2.944,2.9792,2.9792,2.9792,2.9792,2.9792,2.9792,2.9792,2.9792,2.9792,2.9792,2.9792,2.9792,2.9792,2.9792,2.9792,2.9792,2.9792,2.9792,2.9792,2.9792,2.9792,2.9792,2.9869,3.0696,3.1068,0.0,3.1068,3.1068,3.097,3.0139,3.0381,3.1217,3.1278,3.1897,3.2771,3.3722,3.3652,3.3177,3.3357,3.2961,3.2288,3.1588,3.1438,3.1511,3.1511,3.1511,3.1496,3.1421,3.1406,3.1241,3.0582,2.9939,2.9517,2.9517,2.8966,2.8502,2.8502,2.8019,2.76,2.76,2.754,2.751,2.751,2.6941,2.6497,2.6497,2.5974,2.5555,2.5435,2.4874,2.4261,2.3655,2.355,2.352,2.352,2.2957,2.2613,2.2613,2.2009,2.1665,2.1605,2.1605,2.1575,2.15,2.0902,2.0598,2.0583,1.9974,1.9708,3.0238,3.0972,3.1406,3.0987,2.9445,2.7665,2.6355,2.3994,2.184,2.091,2.0174,1.9708,1.9708,1.9445,1.9478,2.0292,2.0374,2.0966,2.2862,2.4092,2.5448,2.7231,2.8235,2.9051,2.9729,0.0,2.9792,2.9792,2.9792,2.9792,2.9792,2.9792,2.9792,2.9792,2.9792,2.9792,2.9792,2.9792,2.9792,2.9792,2.9792,2.9792,2.9792,2.9792,2.9792,2.983,3.0216,3.0696,0.0,3.0595,3.0696,3.1106,3.0177,3.0709,3.2033,3.2033,3.301,3.4409,3.4773,3.4758,3.4514,3.4213,3.3903,3.3425,3.1944,3.1511,3.1511,3.1511,3.1511,3.1511,3.1511,3.1511,3.1436,3.1167,3.0612,3.0133,3.0133,2.9639,2.919,2.919,2.8992,2.8678,2.8263,2.8188,2.8053,2.766,2.7375,2.721,2.721,2.6986,2.6632,2.6243,2.5615,2.4918,2.4261,2.4201,2.4022,2.3625,2.337,2.3236,2.3236,2.2981,2.2667,2.2313,2.2298,2.2104,2.1695,2.144,2.1306,2.1306,2.1021,2.0887,2.934,3.0283,3.0808,3.0357,2.8768,2.7049,2.6114,2.3722,2.1561,2.1098,2.0311,1.9708,1.9708,1.9387,1.9219,1.9501,1.9499,1.9939,2.1302,2.2585,2.4092,2.6021,2.7193,2.8235,2.9202,2.9591,2.9792,2.9792,2.9792,2.9792,2.9792,2.9792,2.9792,2.9792,2.9792,2.9792,2.9792,2.9792,2.9792,2.9792,2.9792,2.9792,2.9792,2.9792,2.9934,3.0216,3.0216,3.0908,0.0,3.0709,3.0771,3.1499,3.0279,3.0771,3.2177,3.2177,3.322,3.4673,3.4953,3.5067,3.4981,3.4633,3.4503,3.4219,3.2587,3.1944,3.1795,3.1795,3.1645,3.1511,3.1511,3.1511,3.1511,3.1511,3.1137,3.0806,3.0806,3.0313,2.9864,2.9864,2.9726,2.9457,2.8966,2.8891,2.8667,2.8004,2.7899,2.7824,2.763,2.76,2.742,2.6956,2.6467,2.5839,2.4963,2.4903,2.4694,2.4223,2.4014,2.3909,2.3909,2.3714,2.3385,2.2972,2.2972,2.2733,2.2263,2.2069,2.1994,2.1999,2.1784,2.1695,2.745,2.8603,2.9636,2.9621,2.8109,2.649,2.602,2.3722,2.1561,2.1098,2.0311,1.9708,1.9708,1.9708,1.9519,1.8989,1.9842,2.0799,2.1407,2.2937,2.4393,2.5473,2.6603,2.7507,2.8072,2.9139,2.9792,2.9792,2.9792,0.0,2.9792,2.9792,2.9792,2.9792,2.9792,2.9792,2.9792,2.9792,2.9792,2.9792,2.9792,2.9792,2.9792,2.9792,3.0317,3.118,3.118,3.2249,0.0,3.196,3.1742,3.2393,3.0533,3.0381,3.1217,3.1217,3.1829,3.2749,3.3705,3.4027,3.4062,3.4411,3.4503,3.4384,3.3679,3.3021,3.2497,3.2497,3.2004,3.1511,3.1511,3.1511,3.1511,3.1511,3.1496,3.1496,3.1496,3.0957,3.0492,3.0492,2.9998,2.9606,2.9592,2.9592,2.934,2.8682,2.8592,2.8338,2.769,2.76,2.76,2.7585,2.7585,2.7046,2.5704,2.56,2.56,2.5585,2.4948,2.459,2.459,2.3947,2.3595,2.3595,2.3595,2.3595,2.358,2.2987,2.2688,2.2673,2.1994,2.1695,2.5588,2.6527,2.732,2.6422,2.536,2.4457,2.4013,2.2401,2.1015,2.1003,2.0311,1.9708,1.9708,1.9708,1.9941,2.0684,2.1116,2.1546,2.218,2.368,2.4952,2.5526,2.7607,2.9063,0.0,0.0,2.9792,2.9792,2.9792,2.9792,2.9792,2.9792,2.9792,2.9792,2.9792,2.9792,2.9792,2.9792,2.9792,2.9792,2.9792,2.9792,2.9792,2.9792,2.9972,3.0279,3.0932,3.1888,0.0,3.2393,3.2713,3.3415,3.2191,3.2285,3.3101,3.3101,3.3754,3.4624,3.492,3.5019,3.5023,3.5138,3.5175,3.513,3.4936,3.4083,3.3095,3.2647,3.2333,3.2064,3.163,3.1511,3.1511,3.1511,3.1511,3.1511,3.1511,3.1331,3.1182,3.1182,3.1017,3.0761,3.0298,3.0223,2.9998,2.937,2.9265,2.9026,2.8368,2.8278,2.8124,2.7645,2.76,2.724,2.6363,2.6273,2.6093,2.563,2.5397,2.5277,2.5277,2.4634,2.4276,2.4276,2.3834,2.3595,2.3595,2.34,2.331,2.3295,2.3086,2.2996,2.3967,2.4657,2.527,2.4425,2.3744,2.316,2.2823,2.1806,2.0892,2.0757,2.0296,1.9874,1.9744,1.9708,1.9912,2.0552,2.1039,2.1434,2.1807,2.351,2.5096,2.6127,2.7959,0.0,0.0,2.9666,2.9792,2.9792,2.9792,2.9792,2.9792,2.9792,2.9792,2.9792,2.9792,2.9792,2.9792,2.9792,2.9792,2.9792,2.9792,2.9792,2.9792,2.9792,2.9998,3.0343,3.0558,0.0,0.0,3.2357,3.282,3.391,3.2961,3.3171,3.3993,3.3993,3.4658,3.5504,3.5504,3.5504,3.5504,3.5504,3.5504,3.5504,3.5504,3.4741,3.3724,3.3066,3.2706,3.2392,3.1989,3.169,3.1511,3.1511,3.1511,3.1511,3.1511,3.1511,3.1511,3.1511,3.1511,3.1376,3.0943,3.0896,3.0672,3.0028,2.9924,2.9699,2.9056,2.8966,2.8712,2.8064,2.7989,2.772,2.7046,2.6986,2.6806,2.6378,2.6123,2.5974,2.5974,2.5322,2.4978,2.4978,2.4306,2.3984,2.3984,2.3729,2.3595,2.3595,2.3595,2.3595,0.0,2.2969,2.3413,2.3347,2.2912,2.2435,2.2255,2.1685,0.0,2.0471,2.0297,2.0156,1.9825,1.9738,1.9608,1.929,2.0186,2.0915,2.0936,2.2885,2.5102,2.7236,2.7908,2.8436,2.89,2.9478,2.9792,2.9792,2.9792,2.9792,2.9792,2.9792,2.9792,2.9792,2.9792,2.9792,2.9792,2.9792,2.9792,2.9792,2.9792,2.9792,2.9792,2.9792,3.0279,0.0,3.0317,0.0,0.0,3.2177,3.2522,3.4027,3.3136,3.3345,3.4095,3.4095,3.4691,3.5504,3.5504,3.5504,3.5504,3.5504,3.5504,3.5504,3.5504,3.5055,3.4444,3.3754,3.3125,3.2632,3.2512,3.2034,3.157,3.1511,3.1511,3.1511,3.1511,3.1511,3.1511,3.1511,3.1511,3.1511,3.1511,3.1511,3.1286,3.0672,3.0567,3.0357,2.9729,2.9666,2.9427,2.8742,2.8667,2.8412,2.7794,2.7645,2.76,2.76,2.7031,2.6662,2.6662,2.6033,2.5674,2.5674,2.5008,2.4679,2.4679,2.4059,2.3744,2.3744,2.3684,2.367,2.0965,0.0,2.1644,2.0817,2.0516,2.0555,0.0,2.0667,2.0215,2.073,2.0311,1.9969,2.0397,2.0049,2.0296,2.2194,2.2732,2.3194,2.4011,2.5527,2.7227,2.9013,2.9315,2.9453,2.9578,2.9716,2.9792,2.9792,2.9792,2.9792,2.9792,2.9792,2.9792,2.9792,2.9792,2.9792,2.9792,2.9792,2.9792,2.9792,2.9792,2.9792,2.9792,2.9792,2.9934,3.0216,3.1402,0.0,3.3031,3.4056,3.4739,3.5133,3.492,3.4953,3.5133,3.5133,3.5294,3.5504,3.5504,3.5504,3.5504,3.5504,3.5504,3.5504,3.5504,3.5385,3.513,3.4442,3.4159,3.3784,3.2781,3.2363,3.2123,3.163,3.1511,3.1511,3.1511,3.1511,3.1511,3.1511,3.1511,3.1511,3.1511,3.1511,3.1451,3.1286,3.1256,3.1017,3.0372,3.0283,3.0043,2.9415,2.934,2.9307,2.9142,2.8184,2.76,2.76,2.745,2.736,2.736,2.6707,2.6363,2.6363,2.5719,2.5352,2.5352,2.5211,2.5136,2.5121,2.459,2.4365,2.0732,2.0824,2.0889,2.0302,2.0154,2.0267,2.0738,2.0404,2.0052,2.033,2.0174,2.0033,2.0205,2.0438,2.1066,2.2503,2.3729,2.5188,2.7173,2.7666,2.8492,3.0251,3.0075,2.9792,0.0,2.9792,2.9792,2.9792,2.9792,2.9792,2.9792,2.9792,2.9792,2.9792,2.9792,2.9792,2.9792,2.9792,2.9792,2.9792,2.9792,2.9792,2.9792,2.9792,3.0037,3.0482,3.1513,0.0,3.331,3.4361,3.51,3.5504,3.5504,3.5504,3.5504,3.5504,3.5504,3.5504,3.5504,3.5504,3.5504,3.5504,3.5504,3.5504,3.5504,3.5504,3.5429,3.5055,3.4758,3.4339,3.3604,3.3185,3.2796,3.2108,3.2183,3.2318,3.2019,3.1959,3.1959,3.1959,3.1705,3.1511,3.1511,3.1511,3.1511,3.1511,3.1511,3.1376,3.1002,3.0943,3.0731,3.0073,2.9998,2.9894,2.9636,2.8933,2.8393,2.8094,2.7764,2.76,2.76,2.7255,2.6926,2.6626,2.6243,2.5914,2.5615,2.5615,2.5615,2.56,2.5217,2.5053,2.1231,2.0994,2.0793,2.0598,2.0613,2.0677,2.0648,2.0408,2.0124,1.9839,2.0109,2.0288,2.005,2.1081,2.2054,2.2263,2.4454,2.7144,3.0007,2.9482,2.9377,3.1032,3.0381,0.0,2.9792,2.9792,2.9792,2.9792,2.9792,2.9792,2.9792,2.9792,2.9792,2.9792,2.9792,2.9792,2.9792,2.9792,2.9792,2.9792,2.9934,2.9998,2.9998,3.0139,3.0671,3.1426,0.0,0.0,3.4027,3.4177,3.4725,3.5504,3.5504,3.5504,3.5504,3.5504,3.5504,3.5504,3.5504,3.5504,3.5504,3.5504,3.5504,3.5504,3.5504,3.5504,3.5504,3.5504,3.5085,3.4638,3.4533,3.4099,3.3484,3.2826,3.3095,3.3335,3.2781,3.2662,3.2632,3.2512,3.2034,3.163,3.1525,3.1511,3.1511,3.1511,3.1511,3.1511,3.1511,3.1511,3.1271,3.0717,3.0657,3.0447,2.9924,2.9789,2.949,2.8921,2.8184,2.7705,2.76,2.76,2.733,2.6752,2.6761,2.6467,2.5914,2.5914,2.5914,2.5899,2.5809,2.5749,2.171,2.1706,2.1276,2.0142,2.0288,2.0636,2.0398,2.0058,1.9874,2.0158,2.0436,2.0783,2.131,2.2443,2.3684,2.4822,2.7085,2.9449,3.1504,3.0822,3.0385,3.1125,0.0,2.9792,2.9792,2.9792,2.9792,2.9792,2.9792,2.9792,2.9792,2.9792,2.9792,2.9792,2.9792,2.9792,2.9792,2.9792,2.9792,2.9792,3.0595,3.097,3.1007,3.1829,3.2249,3.2429,0.0,3.3739,3.4061,3.4905,3.5359,3.5504,3.5504,3.5504,3.5504,3.5504,3.5504,3.5504,3.5504,3.5504,3.5504,3.5504,3.5504,3.5504,3.5504,3.5504,3.5504,3.5504,3.5429,3.522,3.4653,3.4429,3.4189,3.3499,3.3425,3.3469,3.3365,3.335,3.3185,3.2617,3.2437,3.2153,3.16,3.1511,3.1511,3.1511,3.1511,3.1511,3.1511,3.1511,3.1466,3.1361,3.1346,3.1316,3.1212,3.0702,3.0313,3.0208,2.9101,2.8173,2.7615,2.76,2.754,2.745,2.745,2.7405,2.7285,2.7285,2.7285,2.7285,2.6692,2.6437,2.1374,2.1303,2.1021,2.0393,2.1021,2.1829,2.2046,2.1687,2.1473,2.197,2.2179,2.2368,2.2667,2.4088,2.6004,2.8386,3.005,3.1588,3.3176,3.2521,3.2062,0.0,0.0,3.1119,3.0595,3.0558,3.0343,2.983,2.9792,2.9792,2.9792,2.9792,2.9792,2.9792,3.0279,3.0317,2.9792,3.0822,3.0809,2.9792,3.0758,3.1217,3.1217,3.2177,3.289,3.338,0.0,3.4312,3.4839,3.5326,3.5504,3.5504,3.5504,3.5504,3.5504,3.5504,3.5504,3.5504,3.5504,3.5504,3.5504,3.5504,3.5504,3.5504,3.5504,3.5504,3.5504,3.5504,3.5504,3.5429,3.5115,3.504,3.4861,3.4188,3.4307,3.4472,3.4098,3.4054,3.3933,3.3634,3.329,3.2841,3.2153,3.2034,3.1914,3.1555,3.1511,3.1511,3.1511,3.1511,3.1511,3.1511,3.1511,3.1511,3.1511,3.1212,3.0761,3.0058,2.9445,2.8831,2.8184,2.8128,2.7974,2.76,2.76,2.76,2.76,2.76,2.76,2.7585,2.7285,2.7151,2.1311,2.105,2.0771,2.1001,2.1654,2.2478,2.3385,2.3116,2.2957,2.3879,2.4193,2.4253,2.4103,2.5839,2.8323,3.1451,3.2542,3.338,3.4562,3.3926,3.3475,3.3935,3.3171,3.2321,3.1609,3.1536,3.1156,3.0216,3.0139,3.0037,2.9792,2.9792,2.9895,3.0101,3.062,3.062,3.0139,3.1536,3.1549,3.0139,3.1291,3.1852,3.1888,3.2855,3.3671,3.4361,3.4361,3.4791,3.5504,3.5504,3.5504,3.5504,3.5504,3.5504,3.5504,3.5504,3.5504,3.5504,3.5504,3.5504,3.5504,3.5504,3.5504,3.5504,3.5504,3.5504,3.5504,3.5504,3.5504,3.5504,3.5504,3.5504,3.537,3.4846,3.5115,3.5355,3.4863,3.4711,3.4698,3.4533,3.4099,3.3514,3.2856,3.2736,3.2497,3.1839,3.1735,3.1675,3.1525,3.1511,3.1511,3.1511,3.1511,3.1511,3.1511,3.1511,3.1077,3.0103,2.9894,2.9505,2.8861,2.8831,2.8502,2.7854,2.7839,2.7764,2.76,2.76,2.76,2.76,2.76,2.76,2.2198,2.1621,2.0952,2.193,2.1508,2.1316,2.3176,2.3116,2.3227,2.5076,2.5944,2.6183,2.557,2.7604,3.0265,3.2916,3.3934,3.4592,3.5325,0.0,3.3935,3.3979,3.3171,3.2558,3.25,3.25,3.2105,3.118,3.1106,3.0733,2.9869,2.9792,3.0216,3.1068,3.0317,3.0279,3.1068,3.1217,3.1217,3.1106,3.2925,3.3808,3.3842,3.4839,3.5326,3.5392,3.5392,3.5424,3.5504,3.5504,3.5504,3.5504,3.5504,3.5504,3.5504,3.5504,3.5504,3.5504,3.5504,3.5504,3.5504,3.5504,3.5504,3.5504,3.5504,3.5504,3.5504,3.5504,3.5504,3.5504,3.5504,3.5504,3.5489,3.5444,3.5474,3.5489,3.5444,3.5429,3.5235,3.4638,3.4474,3.4234,3.3529,3.3425,3.32,3.2542,3.2437,3.2183,3.1585,3.1511,3.1511,3.1511,3.1511,3.1511,3.1511,3.1511,3.1466,3.1376,3.0791,3.0163,2.9562,2.9532,2.9205,2.8547,2.8532,2.8203,2.76,2.76,2.76,2.76,2.76,2.76,2.1488,2.1475,2.1419,2.1821,2.2204,2.2921,2.4492,2.4986,2.5803,2.8158,2.8547,2.8487,2.8622,2.9834,3.139,3.32,3.4038,3.4711,3.5415,3.5166,3.4953,3.4953,3.4624,3.4158,3.3518,3.3449,3.3066,3.2141,3.2069,3.1938,3.1549,3.1549,3.1683,3.2069,3.2285,3.2285,3.2069,3.3255,3.3547,3.2961,3.3671,3.3993,3.4027,3.5019,3.5504,3.5504,3.5504,3.5504,3.5504,3.5504,3.5504,3.5504,3.5504,3.5504,3.5504,3.5504,3.5504,3.5504,3.5504,3.5504,3.5504,3.5504,3.5504,3.5504,3.5504,3.5504,3.5504,3.5504,3.5504,3.5504,3.5504,3.5504,3.5504,3.5504,3.5504,3.5504,3.5504,3.5504,3.5429,3.516,3.5115,3.4906,3.4218,3.4098,3.3888,3.3215,3.3125,3.3036,3.2781,3.2392,3.2108,3.2108,3.175,3.1511,3.1511,3.1511,3.1511,3.1511,3.1256,3.0823,3.0178,3.0163,2.9864,2.922,2.9205,2.9112,2.8843,2.8438,2.8203,2.8203,2.7794,2.76,2.0991,2.1042,2.1195,2.1736,2.2626,2.3819,2.5779,2.6752,2.7964,3.0597,3.0627,3.0387,3.1031,3.1496,3.2183,3.332,3.4233,3.4966,3.5444,3.5504,3.5504,3.5504,3.5504,3.5246,3.4543,3.4461,3.4075,3.3101,3.3031,3.2925,3.2629,3.2593,3.2749,3.3031,3.338,3.338,3.3066,3.4361,3.4691,3.3993,3.4312,3.4461,3.4509,3.518,3.5504,3.5504,3.5504,3.5504,3.5504,3.5504,3.5504,3.5504,3.5504,3.5504,3.5504,3.5504,3.5504,3.5504,3.5504,3.5504,3.5504,3.5504,3.5504,3.5504,3.5504,3.5504,3.5504,3.5504,3.5504,3.5504,3.5504,3.5504,3.5504,3.5504,3.5504,3.5504,3.5504,3.5504,3.5504,3.5504,3.5504,3.5355,3.4876,3.4833,3.4608,3.3903,3.3799,3.3724,3.3529,3.3095,3.2736,3.2512,3.1899,3.1511,3.1511,3.1511,3.1511,3.1511,3.1511,3.1286,3.0823,3.0836,3.0522,2.9906,2.9864,2.9774,2.9606,2.9131,2.8801,2.8592,2.8113,2.7809,2.0991,2.0378,2.0147,2.1879,2.2534,2.3601,2.6866,2.8139,2.9355,3.1988,3.1989,3.1735,3.2378,3.2497,3.2736,3.3395,3.4622,3.5489,3.5504,3.5504,3.5504,3.5504,3.5504,3.5504,3.5504,3.5504,3.51,3.4095,3.4027,3.3602,3.2664,3.2629,3.3066,3.3993,3.3101,3.3066,3.3993,3.4027,3.4027,3.4027,3.5019,3.5504,3.5504,3.5504,3.5504,3.5504,3.5504,3.5504,3.5504,3.5504,3.5504,3.5504,3.5504,3.5504,3.5504,3.5504,3.5504,3.5504,3.5504,3.5504,3.5504,3.5504,3.5504,3.5504,3.5504,3.5504,3.5504,3.5504,3.5504,3.5504,3.5504,3.5504,3.5504,3.5504,3.5504,3.5504,3.5504,3.5504,3.5504,3.5504,3.5504,3.5504,3.5504,3.5504,3.5265,3.4623,3.4518,3.4279,3.3589,3.3499,3.3245,3.2587,3.1914,3.1525,3.1511,3.1511,3.1511,3.1511,3.1511,3.1511,3.1511,3.1511,3.1182,3.0522,3.0507,3.0223,2.9636,2.9621,2.9277,2.8622,2.8607,2.8248,2.0516,2.1161,2.1914,2.2445,2.4386,2.6522,2.7964,2.8801,3.0043,3.2662,3.3425,3.3529,3.3245,3.32,3.3425,3.4083,3.4548,3.4951,3.5429,3.5504,3.5504,3.5504,3.5504,3.5504,3.5504,3.5504,3.5359,3.51,3.5067,3.492,3.4673,3.4624,3.4773,3.5052,3.4787,3.4773,3.5052,3.5067,3.5067,3.5067,3.5359,3.5504,3.5504,3.5504,3.5504,3.5504,3.5504,3.5504,3.5504,3.5504,3.5504,3.5504,3.5504,3.5504,3.5504,3.5504,3.5504,3.5504,3.5504,3.5504,3.5504,3.5504,3.5504,3.5504,3.5504,3.5504,3.5504,3.5504,3.5504,3.5504,3.5504,3.5504,3.5504,3.5504,3.5504,3.5504,3.5504,3.5504,3.5504,3.5504,3.5504,3.5504,3.5504,3.5504,3.5429,3.5235,3.519,3.4951,3.4309,3.4219,3.3933,3.3275,3.3036,3.2721,3.2228,3.2183,3.1989,3.1525,3.1511,3.1511,3.1511,3.1511,3.1406,3.1212,3.1197,3.1107,3.0956,3.0462,3.0133,2.9939,2.949,2.9217,2.04,2.1371,2.2553,2.3601,2.5548,2.766,2.937,3.0477,3.1734,3.3858,3.4382,3.4384,3.3963,3.3888,3.4039,3.4444,3.4728,3.5026,3.5444,3.5504,3.5504,3.5504,3.5504,3.5504,3.5504,3.5504,3.5504,3.5504,3.5504,3.5504,3.5504,3.5504,3.5504,3.5504,3.5504,3.5504,3.5504,3.5504,3.5504,3.5504,3.5504,3.5504,3.5504,3.5504,3.5504,3.5504,3.5504,3.5504,3.5504,3.5504,3.5504,3.5504,3.5504,3.5504,3.5504,3.5504,3.5504,3.5504,3.5504,3.5504,3.5504,3.5504,3.5504,3.5504,3.5504,3.5504,3.5504,3.5504,3.5504,3.5504,3.5504,3.5504,3.5504,3.5504,3.5504,3.5504,3.5504,3.5504,3.5504,3.5504,3.5504,3.5504,3.5504,3.5504,3.5504,3.5504,3.5504,3.5355,3.4936,3.4668,3.4354,3.3918,3.3649,3.3335,3.2946,3.2901,3.2617,3.1929,3.1899,3.178,3.1511,3.1511,3.1511,3.1511,3.1511,3.1511,3.1511,3.1077,3.0776,3.0492,3.0118,2.9846,2.0591,2.127,2.2398,2.4971,2.6273,2.7769,3.0883,3.2512,3.3784,3.513,3.4966,3.4593,3.4593,3.4593,3.4593,3.4593,3.51,3.5504,3.5504,3.5504,3.5504,3.5504,3.5504,3.5504,3.5504,3.5504,3.5504,3.5504,3.5504,3.5504,3.5504,3.5504,3.5504,3.5504,3.5504,3.5504,3.5504,3.5504,3.5504,3.5504,3.5504,3.5504,3.5504,3.5504,3.5504,3.5504,3.5504,3.5504,3.5504,3.5504,3.5504,3.5504,3.5504,3.5504,3.5504,3.5504,3.5504,3.5504,3.5504,3.5504,3.5504,3.5504,3.5504,3.5504,3.5504,3.5504,3.5504,3.5504,3.5504,3.5504,3.5504,3.5504,3.5504,3.5504,3.5504,3.5504,3.5504,3.5504,3.5504,3.5504,3.5504,3.5504,3.5504,3.5504,3.5504,3.5504,3.5504,3.5504,3.5504,3.4966,3.4593,3.4593,3.4038,3.3649,3.3589,3.3589,3.3305,3.2647,3.2602,3.2273,3.163,3.154,3.1511,3.1511,3.1511,3.1511,3.1511,3.1511,3.1182,3.0597,3.0597,3.0298,2.0839,2.1808,2.3002,2.5076,2.7649,3.0118,3.1869,3.2497,3.3095,3.4427,3.5011,3.528,3.528,3.528,3.528,3.528,3.5415,3.5504,3.5504,3.5504,3.5504,3.5504,3.5504,3.5504,3.5504,3.5504,3.5504,3.5504,3.5504,3.5504,3.5504,3.5504,3.5504,3.5504,3.5504,3.5504,3.5504,3.5504,3.5504,0.0,3.5504,3.5504,3.5504,3.5504,3.5504,3.5504,3.5504,3.5504,3.5504,3.5504,3.5504,3.5504,3.5504,3.5504,3.5504,3.5504,3.5504,3.5504,3.5504,3.5504,3.5504,3.5504,3.5504,3.5504,3.5504,3.5504,3.5504,3.5504,3.5504,3.5504,3.5504,3.5504,3.5504,3.5504,3.5504,3.5504,3.5504,3.5504,3.5504,3.5504,3.5504,3.5504,3.5504,3.5504,3.5504,3.5504,3.5504,3.5504,3.5504,3.537,3.528,3.528,3.516,3.4861,3.4339,3.4294,3.3978,3.332,3.3275,3.2991,3.2303,3.178,3.1511,3.1511,3.1511,3.1511,3.1511,3.1511,3.1436,3.1286,3.1286,3.1212,2.0905,2.234,2.4122,2.6855,2.9026,3.0776,3.178,3.2258,3.2706,3.3395,3.4083,3.4637,3.4951,3.5011,3.5115,3.5444,3.5504,3.5504,3.5504,3.5504,3.5504,3.5504,3.5504,3.5504,3.5504,3.5504,3.5504,3.5504,3.5504,3.5504,3.5504,3.5504,3.5504,3.5504,3.5504,3.5504,3.5504,3.5504,3.5504,3.5504,3.5504,3.5504,3.5504,3.5504,3.5504,3.5504,3.5504,3.5504,3.5504,3.5504,3.5504,3.5504,3.5504,3.5504,3.5504,3.5504,3.5504,3.5504,3.5504,3.5504,3.5504,3.5504,3.5504,3.5504,3.5504,3.5504,3.5504,3.5504,3.5504,3.5504,3.5504,3.5504,3.5504,3.5504,3.5504,3.5504,3.5504,3.5504,3.5504,3.5504,3.5504,3.5504,3.5504,3.5504,3.5504,3.5504,3.5504,3.5504,3.5504,3.5504,3.5504,3.5504,3.5504,3.5355,3.4996,3.4966,3.4681,3.4008,3.3994,3.3664,3.3021,3.2318,3.1824,3.1511,3.1511,3.1511,3.1511,3.1511,3.1511,3.1511,3.1511,3.1511,2.0755,2.2724,2.5234,2.8587,2.9968,3.0687,3.1346,3.1929,3.2318,3.2318,3.2961,3.3664,3.4234,3.4339,3.4532,3.522,3.5325,3.537,3.5489,3.5504,3.5504,3.5504,3.5504,3.5504,3.5504,3.5504,3.5504,3.5504,3.5504,3.5504,3.5504,3.5504,3.5504,3.5504,3.5504,3.5504,3.5504,3.5504,3.5504,3.5504,3.5504,3.5504,3.5504,3.5504,3.5504,3.5504,3.5504,3.5504,3.5504,3.5504,3.5504,3.5504,3.5504,3.5504,3.5504,3.5504,3.5504,3.5504,3.5504,3.5504,3.5504,3.5504,3.5504,3.5504,3.5504,3.5504,3.5504,3.5504,3.5504,3.5504,3.5504,3.5504,3.5504,3.5504,3.5504,3.5504,3.5504,3.5504,3.5504,3.5504,3.5504,3.5504,3.5504,3.5504,3.5504,3.5504,3.5504,3.5504,3.5504,3.5504,3.5504,3.5504,3.5504,3.5504,3.5504,3.5504,3.5265,3.4728,3.4651,3.4352,3.3694,3.314,3.2542,3.1854,3.1615,3.1511,3.1511,3.1511,3.1511,3.1511,3.1511,3.1511,2.0313,2.271,2.5604,2.8111,2.9624,3.0687,3.1346,3.157,3.163,3.163,3.2647,3.3529,3.3604,3.3619,3.3844,3.4533,3.4638,3.4848,3.5429,3.5504,3.5504,3.5504,3.5504,3.5504,3.5504,3.5504,3.5504,3.5504,3.5504,3.5504,3.5504,3.5504,3.5504,3.5504,3.5504,3.5504,3.5504,3.5504,3.5504,3.5504,3.5504,3.5504,3.5504,3.5504,3.5504,3.5504,3.5504,3.5504,3.5504,3.5504,3.5504,3.5504,3.5504,3.5504,3.5504,3.5504,3.5504,3.5504,3.5504,3.5504,3.5504,3.5504,3.5504,3.5504,3.5504,3.5504,3.5504,3.5504,3.5504,3.5504,3.5504,3.5504,3.5504,3.5504,3.5504,3.5504,3.5504,3.5504,3.5504,3.5504,3.5504,3.5504,3.5504,3.5504,3.5504,3.5504,3.5504,3.5504,3.5504,3.5504,3.5504,3.5504,3.5504,3.5504,3.5504,3.5504,3.5474,3.537,3.537,3.5055,3.4399,3.4294,3.3934,3.3245,3.2079,3.1511,3.1511,3.1511,3.1511,3.1511,3.1511,3.1511,2.1635,2.3412,2.5262,2.7838,2.8686,2.922,3.0627,3.0928,3.1032,3.1421,3.1974,3.2482,3.2886,3.2946,3.3155,3.3814,3.3918,3.4023,3.4337,3.4696,3.4936,3.4936,3.5265,3.5504,3.5504,3.5504,3.5504,3.5504,3.5504,3.5504,3.5504,3.5504,3.5504,3.5504,3.5504,3.5504,3.5504,3.5504,3.5504,3.5504,3.5504,3.5504,3.5504,3.5504,3.5504,3.5504,3.5504,3.5504,3.5504,3.5504,3.5504,3.5504,3.5504,3.5504,3.5504,3.5504,3.5504,3.5504,3.5504,3.5504,3.5504,3.5504,3.5504,3.5504,3.5504,3.5504,3.5504,3.5504,3.5504,3.5504,3.5504,3.5504,3.5504,3.5504,3.5504,3.5504,3.5504,3.5504,3.5504,3.5504,3.5504,3.5504,3.5504,3.5504,3.5504,3.5504,3.5504,3.5504,3.5504,3.5504,3.5504,3.5504,3.5504,3.5504,3.5504,3.5504,3.5504,3.5504,3.5504,3.537,3.507,3.4713,3.4369,3.4084,3.2751,3.2049,3.2049,3.169,3.1511,3.1511,3.1511,3.1511,2.2273,2.3311,2.4244,2.709,2.7757,2.8156,2.9822,3.0365,3.0626,3.1149,3.1241,3.1451,3.2108,3.2243,3.2482,3.314,3.3245,3.3305,3.3469,3.3918,3.4264,3.4264,3.4831,3.525,3.525,3.54,3.5504,3.5504,3.534,3.525,3.525,3.525,3.525,3.525,3.5415,3.5504,3.5504,3.5504,3.5504,3.5504,3.5504,3.5504,3.5504,3.5504,3.5504,3.5504,3.5504,3.5504,3.5504,3.5504,3.5504,3.5504,3.5504,3.5504,3.5504,3.5504,3.5504,3.5504,3.5504,3.5504,3.5504,3.5504,3.5504,3.5504,3.5504,3.5504,3.5504,3.5504,3.5504,3.5504,3.5504,3.5504,3.5504,3.5504,3.5504,3.5504,3.5504,3.5504,3.5504,3.5504,3.5504,3.5504,3.5504,3.5504,3.5504,3.5504,3.5504,3.5504,3.5504,3.5504,3.5504,3.5504,3.5504,3.5504,3.5504,3.5504,3.5504,3.5504,3.5504,3.5504,3.5504,3.5011,3.4741,3.4741,3.3604,3.2931,3.2766,3.2064,3.175,3.175,3.1585,3.1511,2.0924,2.1578,2.228,2.5349,2.7105,2.8288,2.9187,2.9945,3.0503,3.0556,3.0552,3.0776,3.1436,3.1555,3.1765,3.2452,3.2557,3.2781,3.341,3.3529,3.3544,3.3544,3.4128,3.4563,3.4563,3.5115,3.5504,3.5504,3.4906,3.4563,3.4563,3.4563,3.4563,3.4563,3.516,3.5504,3.5504,3.5504,3.5504,3.5504,3.5504,3.5504,3.5504,3.5504,3.5504,3.5504,3.5504,3.5504,3.5504,3.5504,3.5504,3.5504,3.5504,3.5504,3.5504,3.5504,3.5504,3.5504,3.5504,3.5504,3.5504,3.5504,3.5504,3.5504,3.5504,3.5504,3.5504,3.5504,3.5504,3.5504,3.5504,3.5504,3.5504,3.5504,3.5504,3.5504,3.5504,3.5504,3.5504,3.5504,3.5504,3.5504,3.5504,3.5504,3.5504,3.5504,3.5504,3.5504,3.5504,3.5504,3.5504,3.5504,3.5504,3.5504,3.5504,3.5504,3.5504,3.5504,3.5504,3.5504,3.5504,3.5474,3.5444,3.5444,3.4741,3.4068,3.344,3.2781,3.2437,3.2422,3.1795,3.1511,2.0294,2.134,2.254,2.4079,2.532,2.646,2.757,2.8497,2.9252,2.9648,2.9822,3.0103,3.0746,3.1212,3.1585,3.1824,3.1854,3.1929,3.2168,3.2602,3.2871,3.2871,3.344,3.3844,3.3844,3.4068,3.4218,3.4218,3.3978,3.3844,3.3844,3.3844,3.3844,3.3844,3.4502,3.5055,3.5504,3.5504,3.5504,3.5504,3.5504,3.5504,3.5504,3.5504,3.5504,3.5504,3.5504,3.5504,3.5504,3.5504,3.5504,3.5504,3.5504,3.5504,3.5504,3.5504,3.5504,3.5504,3.5504,3.5504,3.5504,3.5504,3.5504,3.5504,3.5504,3.5504,3.5504,3.5504,3.5504,3.5504,3.5504,3.5504,3.5504,3.5504,3.5504,3.5504,3.5504,3.5504,3.5504,3.5504,3.5504,3.5504,3.5504,3.5504,3.5504,3.5504,3.5504,3.5504,3.5504,3.5504,3.5504,3.5504,3.5504,3.5504,3.5504,3.5504,3.5504,3.5504,3.5504,3.5504,3.5504,3.5504,3.5504,3.5504,3.5265,3.4801,3.4159,3.3469,3.2931,3.2482,3.2243,3.1914,1.9625,2.0649,2.2014,2.3223,2.403,2.4954,2.6595,2.7449,2.8158,2.9122,2.9265,2.9463,3.0325,3.0691,3.0987,3.1436,3.1511,3.1511,3.1511,3.1884,3.2153,3.2153,3.2766,3.3155,3.3155,3.3365,3.3499,3.3499,3.329,0.0,3.3155,3.3155,3.326,3.3484,3.4159,3.4728,3.516,3.5385,3.5504,3.5504,3.5504,3.5504,3.5504,3.5504,3.5504,3.5504,3.5504,3.5504,3.5504,3.5504,3.5504,3.5504,3.5504,3.5504,3.5504,3.5504,3.5504,3.5504,3.5504,3.5504,3.5504,3.5504,3.5504,3.5504,3.5504,3.5504,3.5504,3.5504,3.5504,3.5504,3.5504,3.5504,3.5504,3.5504,3.5504,3.5504,3.5504,3.5504,3.5504,3.5504,3.5504,3.5504,3.5504,3.5504,3.5504,3.5504,3.5504,3.5504,3.5504,3.5504,3.5504,3.5504,3.5504,3.5504,3.5504,3.5504,3.5504,3.5504,3.5504,3.5504,3.5504,3.5504,3.5504,3.5504,3.5504,3.528,3.4816,3.4143,3.3604,3.317,3.2946,3.2497,0.0,0.0,0.0,2.2767,2.3325,2.3965,2.6259,2.6787,2.7251,2.8856,2.8748,2.8755,3.018,2.997,2.9983,3.1255,3.1466,3.1481,3.1511,3.1511,3.1511,3.1511,3.2064,3.2452,3.2452,3.3066,3.344,3.344,3.2841,3.2452,3.2452,3.2452,3.2781,3.344,3.4114,3.4474,3.4503,3.5145,3.5489,3.5504,3.5504,3.5504,3.5504,3.5504,3.5504,3.5504,3.5504,3.5504,3.5504,3.5504,3.5504,3.5504,3.5504,3.5504,3.5504,3.5504,3.5504,3.5504,3.5504,3.5504,3.5504,3.5504,3.5504,3.5504,3.5504,3.5504,3.5504,3.5504,3.5504,3.5504,3.5504,3.5504,3.5504,3.5504,3.5504,3.5504,3.5504,3.5504,3.5504,3.5504,3.5504,3.5504,3.5504,3.5504,3.5504,3.5504,3.5504,3.5504,3.5504,3.5504,3.5504,3.5504,3.5504,3.5504,3.5504,3.5504,3.5504,3.5504,3.5504,3.5504,3.5504,3.5504,3.5504,3.5504,3.5504,3.5504,3.5504,3.4863,3.4533,3.4488,3.3799,3.3155,1.9845,0.0,0.0,0.0,0.0,0.0,0.0,0.0,2.4854,2.6027,2.6582,2.7334,2.8773,2.8966,2.929,3.0571,3.0767,3.0943,3.1436,3.1511,3.1511,3.1511,3.166,3.178,3.178,3.1944,3.2049,0.0,3.1884,3.178,3.178,3.178,3.2079,3.2766,3.2961,3.3514,3.4503,3.4666,3.5011,3.5504,3.5504,3.5504,3.5504,3.5504,3.5504,3.5504,3.5504,3.5504,3.5504,3.5504,3.5504,3.5504,3.5504,3.5504,3.5504,3.5504,3.5504,3.5504,3.5504,3.5504,3.5504,3.5504,3.5504,3.5504,3.5504,3.5504,3.5504,3.5504,3.5504,3.5504,3.5504,3.5504,3.5504,3.5504,3.5504,3.5504,3.5504,3.5504,3.5504,3.5504,3.5504,3.5504,3.5504,3.5504,3.5504,3.5504,3.5504,3.5504,3.5504,3.5504,3.5504,3.5504,3.5504,3.5504,3.5504,3.5504,3.5504,3.5504,3.5504,3.5504,3.5504,3.5504,3.5504,3.5504,3.5504,3.5504,3.5504,3.531,3.4966,3.4488,3.3799,3.3395,2.0302,2.0893,2.1701,2.1113,0.0,0.0,2.3004,2.3371,2.3852,0.0,2.5725,2.6456,2.7628,2.7922,2.8444,2.9779,2.9989,3.0258,3.0983,3.1077,3.1182,3.1466,3.1511,3.1511,3.1511,3.1511,3.1511,3.1511,3.1511,3.1511,3.1511,3.1511,3.1675,3.2064,3.2333,3.2886,3.3649,3.4234,3.4713,3.5085,3.537,3.5504,3.5504,3.5504,3.5504,3.5504,3.5504,3.5504,3.5504,3.5504,3.5504,3.5504,3.5504,3.5504,3.5504,3.5504,3.5504,3.5504,3.5504,3.5504,3.5504,3.5504,3.5504,3.5504,3.5504,3.5504,3.5504,3.5504,3.5504,3.5504,3.5504,3.5504,3.5504,3.5504,3.5504,3.5504,3.5504,3.5504,3.5504,3.5504,3.5504,3.5504,3.5504,3.5504,3.5504,3.5504,3.5504,3.5504,3.5504,3.5504,3.5504,3.5504,3.5504,3.5504,3.5504,3.5504,3.5504,3.5504,3.5504,3.5504,3.5504,3.5504,3.5504,3.5504,3.5504,3.5504,3.5504,3.5504,3.5295,3.4906,3.4517,3.4173,2.0876,2.1025,2.1681,2.2192,2.1921,0.0,2.3729,2.3763,2.375,0.0,2.5427,2.5768,2.6524,2.6812,2.7376,2.87,2.9013,2.9391,3.0362,3.0498,3.0711,3.1212,3.1286,3.1316,3.1376,3.1391,3.1421,3.1496,3.1511,3.1511,3.1511,3.1511,3.1511,3.1511,3.2064,3.2407,3.2512,3.3739,3.4444,3.4518,3.5175,3.5504,3.5504,3.5504,3.5504,3.5504,3.5504,3.5504,3.5504,3.5504,3.5504,3.5504,3.5504,3.5504,3.5504,3.5504,3.5504,3.5504,3.5504,3.5504,3.5504,3.5504,3.5504,3.5504,3.5504,3.5504,3.5504,3.5504,3.5504,3.5504,3.5504,3.5504,3.5504,3.5504,3.5504,3.5504,3.5504,3.5504,3.5504,3.5504,3.5504,3.5504,3.5504,3.5504,3.5504,3.5504,3.5504,3.5504,3.5504,3.5504,3.5504,3.5504,3.5504,3.5504,3.5504,3.5504,3.5504,3.5504,3.5504,3.5504,3.5504,3.5504,3.5504,3.5504,3.5504,3.5504,3.5504,3.5504,3.5504,3.5504,3.5504,3.5175,2.3712,2.3746,2.3611,0.0,0.0,0.0,2.2155,2.2646,2.3356,0.0,2.3638,2.4276,2.5067,2.5293,2.56,2.636,2.7118,2.8293,3.0217,3.0483,3.0376,3.0021,2.9968,3.0163,3.0657,3.0717,3.0913,3.1466,3.1511,3.1511,3.1511,3.1511,3.1511,3.1511,3.163,3.1944,3.2482,3.329,3.3979,3.4518,3.5175,3.5504,3.5504,3.5504,3.5504,3.5504,3.5504,3.5504,3.5504,3.5504,3.5504,3.5504,3.5504,3.5504,3.5504,3.5504,3.5504,3.5504,3.5504,3.5504,3.5504,3.5504,3.5504,3.5504,3.5504,3.5504,3.5504,3.5504,3.5504,3.5504,3.5504,3.5504,3.5504,3.5504,3.5504,3.5504,3.5504,3.5504,3.5504,3.5504,3.5504,3.5504,3.5504,3.5504,3.5504,3.5504,3.5504,3.5504,3.5504,3.5504,3.5504,3.5504,3.5504,3.5504,3.5504,3.5504,3.5504,3.5504,3.5504,3.5504,3.5504,3.5504,3.5504,3.5504,3.5504,3.5504,3.5504,3.5504,3.5504,3.5504,3.5504,3.5429,0.0,0.0,0.0,2.4052,0.0,0.0,0.0,2.2852,2.288,2.2976,2.3281,2.3731,2.4496,2.4678,2.492,2.5594,2.6396,2.7235,2.8034,2.9233,2.9904,2.9642,2.9606,2.9726,3.0013,3.0043,3.0313,3.0943,3.0987,3.1137,3.1481,3.1511,3.1511,3.1511,3.1511,3.166,3.1989,3.3006,3.3664,3.3993,3.5011,3.5504,3.5504,3.5504,3.5504,3.5504,3.5504,3.5504,3.5504,3.5504,3.5504,3.5504,3.5504,3.5504,3.5504,3.5504,3.5504,3.5504,3.5504,3.5504,3.5504,3.5504,3.5504,3.5504,3.5504,3.5504,3.5504,3.5504,3.5504,3.5504,3.5504,3.5504,3.5504,3.5504,3.5504,3.5504,3.5504,3.5504,3.5504,3.5504,3.5504,3.5504,3.5504,3.5504,3.5504,3.5504,3.5504,3.5504,3.5504,3.5504,3.5504,3.5504,3.5504,3.5504,3.5504,3.5504,3.5504,3.5504,3.5504,3.5504,3.5504,3.5504,3.5504,3.5504,3.5504,3.5504,3.5504,3.5504,3.5504,3.5504,3.5504,3.5504,0.0,0.0,0.0,0.0,0.0,2.4423,0.0,0.0,0.0,2.3122,2.319,0.0,0.0,0.0,0.0,0.0,0.0,0.0,0.0,2.7365,0.0,2.8697,2.8949,2.9171,2.9293,2.9365,2.9639,3.0268,3.0088,3.0342,3.1256,3.1316,3.1376,3.1511,3.1511,3.1511,3.1511,3.2841,3.3499,3.3514,3.4861,3.5504,3.5504,3.5504,3.5504,3.5504,3.5504,3.5504,3.5504,3.5504,3.5504,3.5504,3.5504,3.5504,3.5504,3.5504,3.5504,3.5504,3.5504,3.5504,3.5504,3.5504,3.5504,3.5504,3.5504,3.5504,3.5504,3.5504,3.5504,3.5504,3.5504,3.5504,3.5504,3.5504,3.5504,3.5504,3.5504,3.5504,3.5504,3.5504,3.5504,3.5504,3.5504,3.5504,3.5504,3.5504,3.5504,3.5504,3.5504,3.5504,3.5504,3.5504,3.5504,3.5504,3.5504,3.5504,3.5504,3.5504,3.5504,3.5504,3.5504,3.5504,3.5504,3.5504,3.5504,3.5504,3.5504,3.5504,3.5504,3.5504,3.5504,3.5504,0.0,0.0,0.0,0.0,2.6979,0.0,0.0,0.0,2.3898,2.2682,0.0,0.0,0.0,0.0,0.0,0.0,0.0,0.0,2.3933,2.5216,2.6025,2.5505,2.6646,2.7683,2.8223,2.849,2.893,2.9648,2.8603,2.8723,3.0522,3.0612,3.0883,3.1481,3.1511,3.1511,3.1511,3.2841,3.3499,3.3514,3.4861,3.5504,3.5504,3.5504,3.5504,3.5504,3.5504,3.5504,3.5504,3.5504,3.5504,3.5504,3.5504,3.5504,3.5504,3.5504,3.5504,3.5504,3.5504,3.5504,3.5504,3.5504,3.5504,3.5504,3.5504,3.5504,3.5504,3.5504,3.5504,3.5504,3.5504,3.5504,3.5504,3.5504,3.5504,3.5504,3.5504,3.5504,3.5504,3.5504,3.5504,3.5504,3.5504,3.5504,3.5504,3.5504,3.5504,3.5504,3.5504,3.5504,3.5504,3.5504,3.5504,3.5504,3.5504,3.5504,3.5504,3.5504,3.5504,3.5504,3.5504,3.5504,3.5504,3.5504,3.5504,3.5504,3.5504,3.5504,3.5504,3.5504,3.5504,3.5504,0.0,0.0,0.0,0.0,0.0,0.0,2.4188,0.0,2.3173,0.0,0.0,0.0,0.0,0.0,0.0,0.0,2.3173,0.0,0.0,0.0,2.4527,0.0,0.0,0.0,2.6819,2.6748,2.7218,2.8611,2.7898,2.8075,2.9727,3.0238,3.0642,3.0898,3.1301,3.1511,3.1511,3.2841,3.3499,3.3514,3.4861,3.5504,3.5504,3.5504,3.5504,3.5504,3.5504,3.5504,3.5504,3.5504,3.5504,3.5504,3.5504,3.5504,3.5504,3.5504,3.5504,3.5504,3.5504,3.5504,3.5504,3.5504,3.5504,3.5504,3.5504,3.5504,3.5504,3.5504,3.5504,3.5504,3.5504,3.5504,3.5504,3.5504,3.5504,3.5504,3.5504,3.5504,3.5504,3.5504,3.5504,3.5504,3.5504,3.5504,3.5504,3.5504,3.5504,3.5504,3.5504,3.5504,3.5504,3.5504,3.5504,3.5504,3.5504,3.5504,3.5504,3.5504,3.5504,3.5504,3.5504,3.5504,3.5504,3.5504,3.5504,3.5504,3.5504,3.5504,3.5504,3.5504,3.5504,3.5504,3.011,0.0,0.0,0.0,0.0,0.0,0.0,0.0,0.0,0.0,0.0,0.0,0.0,0.0,0.0,0.0,0.0,2.2953,0.0,2.2412,0.0,0.0,0.0,0.0,0.0,2.5031,2.5394,2.7027,2.6425,2.6818,2.8711,2.9554,3.0148,3.0492,3.1152,3.1511,3.1511,3.2662,3.332,3.3499,3.4666,3.5325,3.5504,3.5504,3.5504,3.5504,3.5504,3.5504,3.5504,3.5504,3.5504,3.5504,3.5504,3.5504,3.5504,3.5504,3.5504,3.5504,3.5504,3.5504,3.5504,3.5504,3.5504,3.5504,3.5504,3.5504,3.5504,3.5504,3.5504,3.5504,3.5504,3.5504,3.5504,3.5504,3.5504,3.5504,3.5504,3.5504,3.5504,3.5504,3.5504,3.5504,3.5504,3.5504,3.5504,3.5504,3.5504,3.5504,3.5504,3.5504,3.5504,3.5504,3.5504,3.5504,3.5504,3.5504,3.5504,3.5504,3.5504,3.5504,3.5504,3.5504,3.5504,3.5504,3.5504,3.5504,3.5504,3.5504,3.5504,3.5504,3.5504,3.5504,0.0,0.0,0.0,2.7824,0.0,0.0,0.0,0.0,2.5101,0.0,0.0,0.0,0.0,0.0,0.0,0.0,0.0,0.0,0.0,0.0,0.0,0.0,0.0,0.0,0.0,2.3617,2.367,0.0,2.3548,2.4252,2.7475,2.8304,2.9235,3.0462,3.1152,3.1511,3.1511,3.2183,3.2871,3.3499,3.4219,3.4861,3.5504,3.5504,3.5504,3.5504,3.5504,3.5504,3.5504,3.5504,3.5504,3.5504,3.5504,3.5504,3.5504,3.5504,3.5504,3.5504,3.5504,3.5504,3.5504,3.5504,3.5504,3.5504,3.5504,3.5504,3.5504,3.5504,3.5504,3.5504,3.5504,3.5504,3.5504,3.5504,3.5504,3.5504,3.5504,3.5504,3.5504,3.5504,3.5504,3.5504,3.5504,3.5504,3.5504,3.5504,3.5504,3.5504,3.5504,3.5504,3.5504,3.5504,3.5504,3.5504,3.5504,3.5504,3.5504,3.5504,3.5504,3.5504,3.5504,3.5504,3.5504,3.5504,3.5504,3.5504,3.5504,3.5504,3.5504,3.5504,3.5504,3.5504,0.0,0.0,3.4011,3.0548,0.0,0.0,0.0,0.0,0.0,0.0,0.0,0.0,0.0,0.0,0.0,0.0,0.0,0.0,0.0,0.0,0.0,0.0,0.0,0.0,0.0,0.0,0.0,0.0,2.3577,0.0,2.6673,2.8376,2.9659,3.0538,3.2084,3.2664,3.2216,3.3303,3.3726,3.3499,3.4622,3.528,3.5504,3.5504,3.5504,3.5504,3.5504,3.5504,3.5504,3.5504,3.5504,3.5504,3.5504,3.5504,3.5504,3.5504,3.5504,3.5504,3.5504,3.5504,3.5504,3.5504,3.5504,3.5504,3.5504,3.5504,3.5504,3.5504,3.5504,3.5504,3.5504,3.5504,3.5504,3.5504,3.5504,3.5504,3.5504,3.5504,3.5504,3.5504,3.5504,3.5504,3.5504,3.5504,3.5504,3.5504,3.5504,3.5504,3.5504,3.5504,3.5504,3.5504,3.5504,3.5504,3.5504,3.5504,3.5504,3.5504,3.5504,3.5504,3.5504,3.5504,3.5504,3.5504,3.5504,3.5504,3.5504,3.5504,3.5504,3.5504,3.5504,3.5504,3.525,3.5656,0.0,3.2662,3.163,0.0,2.6522,0.0,2.7097,0.0,0.0,0.0,0.0,0.0,0.0,0.0,0.0,0.0,0.0,2.0826,0.0,0.0,0.0,0.0,0.0,0.0,2.1333,2.3032,2.2716,0.0,0.0,2.798,2.9579,3.0497,3.2269,3.3127,3.296,3.4046,3.4337,3.3879,3.5001,3.5524,3.5504,3.5504,3.5504,3.5504,3.5504,3.5504,3.5504,3.5504,3.5504,3.5504,3.5504,3.5504,3.5504,3.5504,3.5504,3.5504,3.5504,3.5504,3.5504,3.5504,3.5504,3.5504,3.5504,3.5504,3.5504,3.5504,3.5504,3.5504,3.5504,3.5504,3.5504,3.5504,3.5504,3.5504,3.5504,3.5504,3.5504,3.5504,3.5504,3.5504,3.5504,3.5504,3.5504,3.5504,3.5504,3.5504,3.5504,3.5504,3.5504,3.5504,3.5504,3.5504,3.5504,3.5504,3.5504,3.5504,3.5504,3.5504,3.5504,3.5504,3.5504,3.5504,3.5504,3.5504,3.5504,3.5504,3.5504,3.5504,3.5504,3.5504]}]]